[[{"header":{"parameterUnit":"m.s-1","parameterCategory":1,"la1":30.6,"la2":29.2853,"lo1":-89.7004,"lo2":-87.6739,"dy":0.0162,"dx":0.0183,"nx":112,"ny":82,"refTime":"2024-07-17T12:00:00:Z","depth":0,"parameterNumber":2,"parameterNumberName":"U-component_of_WINDS"},"data":[0.0,0.0,0.0,0.0,0.0,0.0,0.0,0.0,0.0,0.0,0.0,0.0,0.0,0.0,0.0,0.0,0.0,0.0,0.0,0.0,0.0,0.0,0.0,0.0,0.0,0.0,0.0,0.0,0.0,0.0,0.0,0.0,0.0,0.0,0.0,0.0,0.0,0.0,0.0,0.0,0.0,0.0,0.0,0.0,0.0,0.0,0.0,0.0,0.0,0.0,0.0,0.0,0.0,0.0,0.0,0.0,0.0,0.0,0.0,0.0,0.0,0.0,0.0,0.0,0.0,0.0,0.0,0.0,0.0,0.0,0.0,0.0,0.0,0.0,0.0,0.0,0.0,0.0,0.0,0.0,0.0,0.0,0.0,0.0,0.0,0.0,0.0,0.0,0.0,0.0,0.0,-2.2344,-2.4738,-2.5626,-2.4675,-2.3251,-2.134,-1.8805,0.0,0.0,0.0,0.0,0.0,0.0,0.0,0.0,0.0,0.0,0.0,0.0,0.0,0.0,0.0,0.0,0.0,0.0,0.0,0.0,0.0,0.0,0.0,0.0,0.0,0.0,0.0,0.0,0.0,0.0,0.0,0.0,0.0,0.0,0.0,0.0,0.0,0.0,0.0,0.0,0.0,0.0,0.0,0.0,0.0,0.0,0.0,0.0,0.0,0.0,0.0,0.0,0.0,0.0,0.0,0.0,0.0,0.0,0.0,0.0,0.0,0.0,0.0,0.0,0.0,0.0,0.0,0.0,0.0,0.0,0.0,0.0,0.0,0.0,0.0,0.0,0.0,0.0,0.0,0.0,0.0,0.0,0.0,0.0,0.0,0.0,0.0,0.0,0.0,0.0,0.0,0.0,0.0,0.0,0.0,0.0,0.0,0.0,0.0,0.0,0.0,0.0,0.0,0.0,-1.7078,-2.2626,-2.4398,-2.5004,-2.4549,-2.2165,-2.0172,-1.8922,0.0,0.0,0.0,0.0,0.0,0.0,0.0,0.0,0.0,0.0,0.0,0.0,0.0,0.0,0.0,0.0,0.0,0.0,0.0,0.0,0.0,0.0,0.0,0.0,0.0,0.0,0.0,0.0,0.0,0.0,0.0,0.0,0.0,0.0,0.0,0.0,0.0,0.0,0.0,0.0,0.0,0.0,0.0,0.0,0.0,0.0,0.0,0.0,0.0,0.0,0.0,0.0,0.0,0.0,0.0,0.0,0.0,0.0,0.0,0.0,0.0,0.0,0.0,0.0,0.0,0.0,0.0,0.0,0.0,0.0,0.0,0.0,0.0,0.0,0.0,0.0,0.0,0.0,0.0,0.0,0.0,0.0,0.0,0.0,0.0,0.0,0.0,0.0,0.0,0.0,0.0,0.0,0.0,0.0,0.0,0.0,0.0,0.0,0.0,0.0,0.0,0.0,0.0,-1.723,-1.923,-2.315,-2.3915,-2.4001,-2.365,-2.1287,-1.9415,-1.8463,-1.647,0.0,0.0,0.0,0.0,0.0,0.0,0.0,0.0,0.0,0.0,0.0,0.0,0.0,0.0,0.0,0.0,0.0,0.0,0.0,0.0,0.0,0.0,0.0,0.0,0.0,0.0,0.0,0.0,0.0,0.0,0.0,0.0,0.0,0.0,0.0,0.0,0.0,0.0,0.0,0.0,0.0,0.0,0.0,0.0,0.0,0.0,0.0,0.0,0.0,0.0,0.0,0.0,0.0,0.0,0.0,0.0,0.0,0.0,0.0,0.0,0.0,0.0,0.0,0.0,0.0,0.0,0.0,0.0,0.0,0.0,0.0,0.0,0.0,0.0,0.0,0.0,0.0,0.0,0.0,0.0,0.0,0.0,0.0,0.0,0.0,0.0,0.0,0.0,0.0,0.0,0.0,0.0,0.0,0.0,0.0,0.0,0.0,0.0,0.0,0.0,0.0,0.0,-1.9545,-2.1644,-2.3484,-2.3576,-2.3357,-2.3027,-2.055,-1.8634,-1.7733,-1.5718,0.0,0.0,0.0,0.0,0.0,0.0,0.0,0.0,0.0,0.0,0.0,0.0,0.0,0.0,0.0,0.0,0.0,0.0,0.0,0.0,0.0,0.0,0.0,0.0,0.0,0.0,0.0,0.0,0.0,0.0,0.0,0.0,0.0,0.0,0.0,0.0,0.0,0.0,0.0,0.0,0.0,0.0,0.0,0.0,0.0,0.0,0.0,0.0,0.0,0.0,0.0,0.0,0.0,0.0,0.0,0.0,0.0,0.0,0.0,0.0,0.0,0.0,0.0,0.0,0.0,0.0,0.0,0.0,0.0,0.0,0.0,0.0,0.0,0.0,0.0,0.0,0.0,0.0,0.0,0.0,0.0,0.0,0.0,0.0,0.0,0.0,0.0,0.0,0.0,0.0,0.0,0.0,0.0,0.0,0.0,0.0,0.0,0.0,0.0,0.0,0.0,0.0,-1.9709,-2.2733,-2.3274,-2.3605,-2.3633,-2.33,-1.998,-1.7564,-1.6758,-1.4354,0.0,0.0,0.0,0.0,0.0,0.0,0.0,0.0,0.0,0.0,0.0,0.0,0.0,0.0,0.0,0.0,0.0,0.0,0.0,0.0,0.0,0.0,0.0,0.0,0.0,0.0,0.0,0.0,0.0,0.0,0.0,0.0,0.0,0.0,0.0,0.0,0.0,0.0,0.0,0.0,0.0,0.0,0.0,0.0,0.0,0.0,0.0,0.0,0.0,0.0,0.0,0.0,0.0,0.0,0.0,0.0,0.0,0.0,0.0,0.0,0.0,0.0,0.0,0.0,0.0,0.0,0.0,0.0,0.0,0.0,0.0,0.0,0.0,0.0,0.0,0.0,0.0,0.0,0.0,0.0,0.0,0.0,0.0,0.0,0.0,0.0,0.0,0.0,0.0,0.0,0.0,0.0,0.0,0.0,0.0,0.0,0.0,0.0,0.0,0.0,0.0,0.0,-1.8342,-2.0879,0.0,-2.2402,-2.2178,-2.2058,-2.021,-1.8194,-1.6233,0.0,0.0,0.0,0.0,0.0,0.0,0.0,0.0,0.0,0.0,0.0,0.0,0.0,0.0,0.0,0.0,0.0,0.0,0.0,0.0,0.0,0.0,0.0,0.0,0.0,0.0,0.0,0.0,0.0,0.0,0.0,0.0,0.0,0.0,0.0,0.0,0.0,0.0,0.0,0.0,0.0,0.0,0.0,0.0,0.0,0.0,0.0,0.0,0.0,0.0,0.0,0.0,0.0,0.0,0.0,0.0,0.0,0.0,0.0,0.0,0.0,0.0,0.0,0.0,0.0,0.0,0.0,0.0,0.0,0.0,0.0,0.0,0.0,0.0,0.0,0.0,0.0,0.0,0.0,0.0,0.0,0.0,0.0,0.0,0.0,0.0,0.0,0.0,0.0,0.0,0.0,0.0,0.0,0.0,0.0,0.0,0.0,0.0,0.0,0.0,0.0,0.0,-1.5687,-1.8104,-2.0347,0.0,-2.169,-2.1464,-2.1464,-2.0136,-1.8323,-1.6052,0.0,0.0,0.0,0.0,0.0,0.0,0.0,0.0,0.0,0.0,0.0,0.0,0.0,0.0,0.0,0.0,0.0,0.0,0.0,0.0,0.0,0.0,0.0,0.0,0.0,0.0,0.0,0.0,0.0,0.0,0.0,0.0,0.0,0.0,0.0,0.0,0.0,0.0,0.0,0.0,0.0,0.0,0.0,0.0,0.0,0.0,0.0,0.0,0.0,0.0,0.0,0.0,0.0,0.0,0.0,0.0,0.0,0.0,0.0,0.0,0.0,0.0,0.0,0.0,0.0,0.0,0.0,0.0,0.0,0.0,0.0,0.0,0.0,0.0,0.0,0.0,0.0,0.0,0.0,0.0,0.0,0.0,0.0,0.0,0.0,0.0,0.0,0.0,0.0,0.0,0.0,0.0,0.0,0.0,0.0,0.0,0.0,0.0,0.0,0.0,0.0,0.0,-1.5933,-1.935,-2.1781,-2.1781,-2.1781,-2.1797,-2.1797,-1.9605,-1.7626,0.0,0.0,0.0,0.0,0.0,0.0,0.0,0.0,0.0,0.0,0.0,0.0,0.0,0.0,0.0,0.0,0.0,0.0,0.0,0.0,0.0,0.0,0.0,0.0,0.0,0.0,0.0,0.0,0.0,0.0,0.0,0.0,0.0,0.0,0.0,0.0,0.0,0.0,0.0,0.0,0.0,0.0,0.0,0.0,0.0,0.0,0.0,0.0,0.0,0.0,0.0,0.0,0.0,0.0,0.0,0.0,0.0,0.0,0.0,0.0,0.0,0.0,0.0,0.0,0.0,0.0,0.0,0.0,0.0,0.0,0.0,0.0,0.0,0.0,0.0,0.0,0.0,0.0,0.0,0.0,0.0,0.0,0.0,0.0,0.0,0.0,0.0,0.0,0.0,0.0,0.0,0.0,0.0,0.0,0.0,0.0,0.0,0.0,0.0,0.0,0.0,0.0,0.0,-1.5973,-1.9084,-2.1338,-2.1449,-2.1246,-2.1087,-2.1087,-2.0447,-1.8806,-1.593,0.0,0.0,0.0,0.0,0.0,0.0,0.0,0.0,0.0,0.0,0.0,0.0,0.0,0.0,0.0,0.0,0.0,0.0,0.0,0.0,0.0,0.0,0.0,0.0,0.0,0.0,0.0,0.0,0.0,0.0,0.0,0.0,0.0,0.0,0.0,0.0,0.0,0.0,0.0,0.0,0.0,0.0,0.0,0.0,0.0,0.0,0.0,0.0,0.0,0.0,0.0,0.0,0.0,0.0,0.0,0.0,0.0,0.0,0.0,0.0,0.0,0.0,0.0,0.0,0.0,0.0,0.0,0.0,0.0,0.0,0.0,0.0,0.0,0.0,0.0,0.0,0.0,0.0,0.0,0.0,0.0,0.0,0.0,0.0,0.0,0.0,0.0,0.0,0.0,0.0,0.0,0.0,0.0,0.0,0.0,0.0,0.0,0.0,0.0,0.0,0.0,0.0,-1.6115,-1.8979,-2.0974,-2.1087,-2.0925,-2.0794,-2.0794,-2.0794,-1.9546,-1.6623,0.0,0.0,0.0,0.0,0.0,0.0,0.0,0.0,0.0,0.0,0.0,0.0,0.0,0.0,0.0,0.0,0.0,0.0,0.0,0.0,0.0,0.0,0.0,0.0,0.0,0.0,0.0,0.0,0.0,0.0,0.0,0.0,0.0,0.0,0.0,0.0,0.0,0.0,0.0,0.0,0.0,0.0,0.0,0.0,0.0,0.0,0.0,0.0,0.0,0.0,0.0,0.0,0.0,0.0,0.0,0.0,0.0,0.0,0.0,0.0,0.0,0.0,0.0,0.0,0.0,0.0,0.0,0.0,0.0,0.0,0.0,0.0,0.0,0.0,0.0,0.0,0.0,0.0,0.0,0.0,0.0,0.0,0.0,0.0,0.0,0.0,0.0,0.0,0.0,0.0,0.0,0.0,0.0,0.0,0.0,0.0,0.0,0.0,0.0,0.0,0.0,0.0,-1.6387,-1.8982,-2.0694,-2.0778,-2.0794,-2.0794,-2.0794,-2.0794,-1.9941,-1.792,0.0,0.0,0.0,0.0,0.0,0.0,0.0,0.0,0.0,0.0,0.0,0.0,0.0,0.0,0.0,0.0,0.0,0.0,0.0,0.0,0.0,0.0,0.0,0.0,0.0,0.0,0.0,0.0,0.0,0.0,0.0,0.0,0.0,0.0,0.0,0.0,0.0,0.0,0.0,0.0,0.0,0.0,0.0,0.0,0.0,0.0,0.0,0.0,0.0,0.0,0.0,0.0,0.0,0.0,0.0,0.0,0.0,0.0,0.0,0.0,-1.7132,0.0,0.0,0.0,0.0,0.0,0.0,0.0,0.0,0.0,0.0,0.0,0.0,0.0,0.0,0.0,0.0,0.0,0.0,0.0,0.0,0.0,0.0,0.0,0.0,0.0,0.0,0.0,0.0,0.0,0.0,0.0,0.0,0.0,0.0,0.0,0.0,0.0,0.0,0.0,0.0,0.0,-1.7025,-1.9107,-2.0542,-2.0694,-2.0726,-2.0744,-2.0794,-2.0794,-2.0146,-1.8567,-1.7162,0.0,0.0,0.0,0.0,0.0,0.0,0.0,0.0,0.0,0.0,0.0,0.0,0.0,0.0,0.0,0.0,0.0,0.0,0.0,0.0,0.0,0.0,0.0,0.0,0.0,0.0,0.0,0.0,0.0,0.0,0.0,0.0,0.0,0.0,0.0,0.0,0.0,0.0,0.0,0.0,0.0,0.0,0.0,0.0,0.0,0.0,0.0,0.0,0.0,0.0,0.0,0.0,0.0,0.0,0.0,0.0,0.0,0.0,0.0,0.0,-1.7759,0.0,0.0,0.0,0.0,0.0,0.0,0.0,0.0,0.0,0.0,0.0,0.0,0.0,0.0,0.0,0.0,0.0,0.0,0.0,0.0,0.0,0.0,0.0,0.0,0.0,0.0,0.0,0.0,0.0,0.0,0.0,0.0,0.0,0.0,0.0,0.0,0.0,0.0,0.0,0.0,-1.7214,-1.9152,-2.0457,-2.0594,-2.0644,-2.0711,-2.0744,-2.0778,-2.0352,-1.9309,-1.8204,0.0,0.0,0.0,0.0,0.0,0.0,0.0,0.0,0.0,0.0,0.0,0.0,0.0,0.0,0.0,0.0,0.0,0.0,0.0,0.0,0.0,0.0,0.0,0.0,0.0,0.0,0.0,0.0,0.0,0.0,0.0,0.0,0.0,0.0,0.0,0.0,0.0,0.0,0.0,0.0,0.0,0.0,0.0,0.0,0.0,0.0,0.0,0.0,0.0,0.0,0.0,0.0,0.0,0.0,0.0,-2.3888,-2.375,-2.3957,-2.4232,-2.0963,-2.0102,-2.0877,0.0,0.0,0.0,0.0,0.0,0.0,0.0,0.0,0.0,0.0,0.0,0.0,0.0,0.0,0.0,0.0,0.0,0.0,0.0,0.0,0.0,0.0,0.0,0.0,0.0,-2.0085,-1.9901,0.0,0.0,0.0,0.0,0.0,0.0,0.0,0.0,0.0,0.0,0.0,0.0,-1.7541,-1.9291,-2.0407,-2.0494,-2.061,-2.0676,-2.0693,-2.076,-2.0557,-1.9988,-1.9294,-1.8061,0.0,0.0,0.0,0.0,0.0,0.0,0.0,0.0,0.0,0.0,0.0,0.0,0.0,0.0,0.0,0.0,0.0,0.0,0.0,0.0,0.0,0.0,0.0,0.0,0.0,0.0,0.0,0.0,0.0,0.0,0.0,0.0,-1.4675,-1.6347,0.0,0.0,0.0,0.0,0.0,0.0,0.0,0.0,0.0,0.0,0.0,0.0,0.0,0.0,-2.4229,-2.4974,-2.6059,-2.7506,-2.8161,-2.8506,-2.8592,-2.7937,-2.7351,-2.6764,-2.5517,0.0,-2.325,-2.1751,0.0,0.0,0.0,0.0,0.0,0.0,0.0,0.0,0.0,0.0,0.0,0.0,0.0,0.0,0.0,0.0,0.0,0.0,0.0,0.0,0.0,0.0,-2.1989,-2.1887,-2.1938,-2.1932,0.0,-1.9399,-1.7456,-1.7264,0.0,0.0,0.0,0.0,0.0,0.0,0.0,0.0,-1.8871,-1.9797,-2.0373,-2.0494,-2.0527,-2.0577,-2.0693,-2.076,-2.0746,-2.0601,-1.9988,-1.9246,-1.8329,-1.6478,0.0,0.0,0.0,0.0,0.0,0.0,0.0,0.0,0.0,0.0,0.0,0.0,0.0,0.0,0.0,0.0,0.0,0.0,0.0,0.0,0.0,0.0,0.0,0.0,0.0,0.0,0.0,0.0,0.0,-1.4167,-1.645,-1.7535,-1.7862,-1.7927,0.0,0.0,0.0,0.0,0.0,0.0,0.0,0.0,0.0,-2.2735,-2.4239,-2.5514,-2.6517,-2.7497,-2.8335,-2.8973,-2.9283,-2.9403,-2.9334,-2.9008,-2.8682,-2.8356,-2.7963,-2.7432,-2.6609,-2.3822,-2.2258,-2.1502,0.0,0.0,0.0,0.0,0.0,0.0,-2.0107,0.0,0.0,0.0,0.0,0.0,0.0,0.0,0.0,0.0,0.0,0.0,0.0,0.0,0.0,-2.2296,-2.2296,-2.231,-2.2338,-2.1275,-2.0107,0.0,-1.8467,-1.7498,-1.6214,0.0,0.0,0.0,0.0,0.0,-1.9163,-1.9888,-2.0339,-2.0424,-2.0477,-2.0544,-2.0693,-2.076,-2.0778,-2.076,-2.0509,-2.0052,-1.9356,-1.8045,-1.6544,0.0,0.0,0.0,0.0,0.0,0.0,0.0,0.0,0.0,0.0,0.0,0.0,0.0,0.0,0.0,0.0,0.0,0.0,0.0,0.0,0.0,0.0,0.0,0.0,0.0,0.0,0.0,0.0,-1.611,-1.793,-1.8903,-1.9449,-1.9733,0.0,0.0,0.0,0.0,0.0,0.0,-2.1597,-2.2916,-2.3995,-2.4767,-2.685,-2.814,-2.8564,-2.9349,-2.9919,-3.026,-3.0053,-2.9897,-2.9792,-2.9792,-2.9688,-2.95,-2.9518,-2.9381,-2.8919,-2.5716,-2.4392,-2.426,-2.3284,-2.2883,0.0,-2.3477,-2.3678,-2.3678,-2.3678,-2.3678,-2.3393,-2.1688,0.0,-2.0386,-1.9287,0.0,0.0,0.0,0.0,-2.1817,-2.2003,0.0,-2.2581,-2.2581,-2.2446,-2.2282,-2.2194,-2.2166,-2.1888,0.0,-1.986,-1.8696,-1.7324,0.0,0.0,0.0,0.0,-1.8746,-1.9456,-1.9996,-2.0321,-2.0388,-2.0441,-2.0526,-2.0644,-2.0727,-2.0761,-2.0761,-2.0794,-2.0573,-2.0083,-1.9372,-1.8315,-1.691,0.0,0.0,0.0,0.0,0.0,0.0,0.0,0.0,0.0,0.0,0.0,0.0,0.0,0.0,0.0,0.0,0.0,0.0,0.0,0.0,0.0,0.0,0.0,0.0,0.0,0.0,0.0,0.0,0.0,-2.1063,-2.1886,0.0,0.0,0.0,0.0,-2.031,-2.1989,-2.3342,-2.3991,-2.5543,-2.6821,-2.7735,-2.8346,-2.9385,-3.0917,-3.061,-3.1188,-3.2612,-3.1777,-3.1378,-3.1378,-3.1378,-3.1003,-3.0337,-3.0338,-2.9875,-2.8983,-2.7453,-2.6788,-2.657,-2.506,-2.4452,-2.4389,-2.4423,-2.444,-2.444,-2.444,-2.444,-2.4423,-2.4305,-2.3325,-2.2161,-2.2093,-2.16,0.0,0.0,-2.2699,-2.3458,-2.4152,-2.3848,-2.3342,-2.3342,-2.2818,-2.2209,-2.1886,-2.1827,-2.1899,0.0,-2.1869,-2.1295,-2.0248,0.0,0.0,-1.9181,-1.9194,-1.9487,-2.0165,-2.0289,-2.0321,-2.0388,-2.0405,-2.0424,-2.051,-2.0627,-2.071,-2.071,-2.0745,-2.0778,-2.0747,-2.0099,-1.9073,-1.7683,-1.558,0.0,0.0,0.0,0.0,0.0,0.0,0.0,0.0,0.0,0.0,0.0,0.0,0.0,0.0,0.0,0.0,0.0,0.0,0.0,0.0,0.0,0.0,0.0,0.0,0.0,0.0,0.0,0.0,-2.1989,-2.2759,0.0,0.0,-2.3358,-2.3454,-2.4164,-2.4734,-2.5337,-2.6034,-2.6862,-2.7664,-2.8427,-2.9307,-3.0288,-3.1271,-3.1462,-3.1767,-3.2271,-3.1979,-3.1701,-3.1504,-3.1504,-3.1298,-3.0898,-3.0917,-3.0745,-3.0385,-2.9403,-2.8691,-2.8148,-2.708,-2.664,-2.6573,-2.6082,-2.5929,-2.5862,-2.5372,-2.5203,-2.5118,-2.466,-2.4135,-2.3729,-2.3729,-2.3526,-2.3374,-2.3644,-2.3915,-2.4169,-2.4423,-2.4118,-2.3675,-2.345,-2.2829,-2.2206,-2.1865,-2.1631,-2.1508,-2.1615,-2.1386,-2.091,-2.0111,-2.0051,-1.993,-1.938,-1.9672,-2.0027,-2.0273,-2.0304,-2.0321,-2.0388,-2.0405,-2.0474,-2.061,-2.0676,-2.0726,-2.076,-2.0778,-2.0605,-2.0178,-1.9483,-1.8646,-1.7731,-1.6085,-1.4422,0.0,0.0,0.0,0.0,0.0,0.0,0.0,0.0,0.0,0.0,0.0,0.0,0.0,0.0,0.0,0.0,0.0,0.0,0.0,0.0,0.0,0.0,0.0,0.0,0.0,0.0,-2.2419,-2.3422,-2.4064,-2.4757,-2.5622,-2.5258,-2.5409,-2.6513,-2.6525,-2.6773,-2.75,-2.8023,-2.8614,-2.9321,-3.0212,-3.1055,-3.1797,-3.1972,-3.2176,-3.2373,-3.2262,-3.2085,-3.1874,-3.1798,-3.17,-3.1565,-3.1331,-3.123,-3.1157,-3.0705,-3.0213,-2.9653,-2.8602,-2.8043,-2.7739,-2.7249,-2.6911,-2.6623,-2.6133,-2.5981,-2.5896,-2.5405,-2.5083,-2.488,-2.488,-2.4694,-2.4541,-2.4795,-2.488,-2.4931,-2.5185,-2.4858,-2.4379,-2.4022,-2.3206,-2.2361,-2.1905,-2.1455,-2.1103,-2.0974,-2.0877,-2.0668,-2.021,-2.0231,-2.015,-1.9703,-2.0027,-2.0304,-2.0304,-2.0304,-2.0321,-2.0371,-2.0371,-2.044,-2.0592,-2.061,-2.0677,-2.076,-2.0778,-2.0605,-2.0162,-1.9451,-1.8741,-1.8046,-1.6654,-1.526,-1.3858,0.0,0.0,0.0,0.0,0.0,0.0,0.0,0.0,0.0,0.0,0.0,0.0,0.0,0.0,0.0,0.0,0.0,0.0,0.0,0.0,0.0,0.0,0.0,-2.1262,-2.2587,-2.4079,-2.5457,-2.5862,-2.6323,-2.7069,-2.7073,-2.705,-2.7066,-2.734,-2.778,-2.8427,-2.9089,-2.9801,-3.0593,-3.1067,-3.1731,-3.2606,-3.2224,-3.2414,-3.3112,-3.2794,-3.2646,-3.2618,-3.2433,-3.2324,-3.2259,-3.1613,-3.1271,-3.121,-3.1274,-3.1254,-3.1055,-2.9602,-2.8552,-2.7874,-2.7858,-2.7402,-2.6759,-2.6742,-2.6725,-2.6725,-2.6725,-2.6218,-2.5626,-2.5626,-2.5135,-2.4728,-2.5439,-2.5626,-2.5812,-2.6505,-2.6167,-2.5512,-2.5112,-2.3951,-2.2734,-2.1976,-2.1283,-2.071,-2.0373,-2.0561,-2.0778,-2.0778,-2.0526,-2.0304,-2.0304,-2.0304,0.0,-2.0304,-2.0304,-2.0304,-2.0304,-2.0304,-2.0321,-2.0405,-2.046,-2.0561,-2.0693,-2.0745,-2.0778,-2.0763,-2.0131,-1.942,-1.8678,-1.7336,-1.5994,-1.4695,0.0,0.0,0.0,0.0,0.0,0.0,0.0,0.0,0.0,0.0,0.0,0.0,0.0,0.0,0.0,0.0,0.0,0.0,0.0,0.0,0.0,0.0,-2.3194,-2.2457,-2.4065,-2.5461,-2.5843,-2.6386,-2.6992,-2.7695,-2.7917,-2.8232,-2.8688,-2.9246,-2.9648,-2.9833,-3.0017,-3.0443,-3.1142,-3.1316,-3.1899,-3.3028,-3.293,-3.3185,-3.3753,-3.3657,-3.3539,-3.3402,-3.3339,-3.2935,-3.2293,-3.2113,-3.1704,-3.119,-3.123,-3.123,-3.1106,-3.0159,-2.9668,-2.9396,-2.8873,-2.8553,-2.8282,-2.7706,-2.7503,-2.7401,-2.686,-2.6556,-2.6404,-2.6404,-2.6268,-2.6149,-2.6336,-2.6404,-2.6437,-2.664,-2.6336,-2.5881,-2.5514,-2.4508,-2.3382,-2.2438,-2.1663,-2.0996,-2.0414,-2.0373,-2.0441,-2.0441,-2.0373,-2.0304,-2.0304,0.0,0.0,-2.0304,-2.0304,-2.0304,-2.0304,-2.0304,-2.0356,-2.046,-2.0494,-2.0578,0.0,-2.0794,-2.0573,-2.0099,-1.9373,-1.8678,-1.7983,-1.7588,-1.7225,0.0,0.0,0.0,0.0,0.0,0.0,0.0,0.0,0.0,0.0,0.0,0.0,0.0,0.0,0.0,0.0,0.0,0.0,0.0,0.0,0.0,0.0,-2.3762,-2.4712,-2.4576,-2.5963,-2.7015,-2.7123,-2.7648,-2.8233,-2.8837,-2.903,-2.9295,-2.9781,-3.0171,-3.0509,-3.0812,-3.0828,-3.1136,-3.1782,-3.2024,-3.2488,-3.3182,-3.3417,-3.3691,-3.4011,-3.4235,-3.4274,-3.4147,-3.4078,-3.3738,0.0,-3.2882,-3.2324,-3.1667,-3.1667,-3.1481,0.0,0.0,0.0,0.0,0.0,-2.8993,-2.8942,-2.8467,-2.8077,-2.7739,-2.73,-2.6945,-2.6691,-2.6691,-2.6691,-2.6691,-2.6691,-2.6691,-2.6691,-2.6691,-2.6522,-2.625,-2.5899,-2.5104,-2.4152,-2.324,-2.2471,-2.1799,-2.1247,0.0,0.0,-2.0782,-2.0489,-2.0304,-2.0304,-2.0304,-2.0304,0.0,-2.0304,-2.0304,-2.0339,-2.0339,-2.039,-2.0494,-2.0544,0.0,0.0,0.0,-2.0494,-1.983,-1.9404,0.0,0.0,0.0,0.0,0.0,0.0,0.0,0.0,-1.6783,-1.7083,0.0,0.0,0.0,0.0,0.0,0.0,0.0,0.0,0.0,0.0,0.0,0.0,0.0,0.0,0.0,0.0,-2.5102,-2.5971,-2.6972,-2.7842,-2.8469,-2.8681,-2.9102,-2.9578,-3.0038,-3.0187,-3.0329,-3.05,-3.0649,-3.0968,-3.1566,0.0,0.0,0.0,0.0,-3.3277,-3.3365,-3.3843,-3.4136,-3.4185,-3.4649,-3.4904,-3.4871,-3.4712,-3.4573,-3.4455,-3.3812,-3.3051,-3.2293,-3.2293,-3.187,-3.119,-3.119,-3.0801,-3.0142,-2.9501,-2.9247,0.0,0.0,0.0,0.0,-2.7824,-2.73,-2.6691,-2.6691,-2.6691,-2.6691,-2.6691,-2.6691,-2.6691,-2.6691,-2.6691,-2.6607,-2.6245,-2.5677,-2.499,-2.4138,-2.346,-2.2854,-2.2381,-2.2305,-2.212,-2.1519,-2.0857,-2.0397,-2.032,-2.0304,0.0,-2.0304,-2.0304,-2.0321,-2.0388,0.0,0.0,-2.051,-2.0627,-2.071,-2.071,-2.0777,-2.0526,-1.9941,-1.9909,-1.9909,-1.9909,-1.9909,-2.021,-2.0794,-2.0794,-2.0794,-2.0731,-1.8236,-1.8141,0.0,0.0,0.0,0.0,0.0,0.0,0.0,0.0,0.0,0.0,0.0,0.0,0.0,0.0,0.0,-2.4963,-2.6199,-2.7212,-2.7731,-2.8465,-2.8862,-2.8731,-2.9111,-2.9586,-3.0037,-3.0744,-3.1149,-3.1182,-3.2112,-3.2709,-3.2835,-3.2835,0.0,-3.3665,-3.3381,-3.3624,-3.4464,-3.4601,-3.4857,-3.5293,0.0,0.0,-3.543,-3.5403,-3.5064,-3.4489,-3.4336,-3.3546,-3.2293,-3.2293,-3.187,-3.119,-3.119,-3.1106,-3.097,-3.0818,-3.0768,-3.0683,-3.0091,-2.9397,-2.8653,-2.801,-2.73,-2.6691,-2.6691,-2.6691,0.0,-2.6691,-2.6691,-2.6691,-2.6691,-2.6691,-2.6674,-2.6607,-2.6232,-2.5635,-2.46,-2.4028,-2.3418,-2.2489,-2.2305,-2.2274,-2.2135,-2.155,-2.0919,-2.0379,-2.0304,-2.0304,-2.0304,-2.0304,-2.0321,-2.0388,-2.0405,-2.0474,-2.066,-2.0693,-2.0711,-2.0777,-2.0794,-2.0731,-2.0605,-2.0605,-2.0605,-2.0605,-2.0605,-2.0668,-2.0794,-2.0794,-2.0794,-2.0778,-2.0241,-2.0526,0.0,0.0,0.0,0.0,0.0,0.0,0.0,0.0,0.0,0.0,0.0,-2.1441,-2.2537,0.0,-2.4792,-2.6427,-2.7092,-2.7574,-2.8109,-2.8506,-2.8701,-2.857,-2.9477,-3.013,-3.0245,-3.1171,-3.1798,-3.1886,-3.3047,-3.3746,-3.3746,-3.4399,-3.4693,-3.4586,-3.4596,-3.4872,-3.5396,-3.5268,-3.5541,-3.6197,-3.5785,-3.56,-3.56,-3.56,-3.5397,-3.5064,-3.5064,-3.4421,-3.3343,-3.2598,-3.187,-3.119,-3.119,-3.119,-3.119,-3.119,-3.119,-3.114,-3.0784,-3.0159,-2.9414,-2.8653,-2.7892,-2.7182,-2.681,-2.6691,-2.6691,-2.6691,-2.6691,-2.6691,-2.6691,-2.6691,-2.6691,-2.6691,-2.6539,-2.6198,-2.5447,-2.4987,-2.448,-2.3744,-2.3444,-2.3194,-2.2855,-2.2517,-2.1966,-2.0949,-2.0795,-2.069,-2.035,-2.0304,-2.0321,-2.0388,-2.0424,-2.0509,-2.0693,-2.0727,-2.0745,-2.0794,-2.0794,-2.0794,-2.0794,-2.0794,-2.0794,-2.0794,-2.0794,-2.0794,-2.0794,-2.1158,-2.1347,-2.1363,-2.1696,-2.206,0.0,0.0,0.0,0.0,0.0,0.0,0.0,0.0,-2.0686,-2.0816,-2.2051,-2.347,-2.4668,-2.4999,-2.5696,-2.7579,-2.7829,-2.798,-2.8519,-2.8596,-2.8596,-2.8596,-2.984,-3.0712,-3.0694,-3.1689,-3.2432,-3.2691,-3.3762,-3.4473,-3.4601,-3.5639,-3.6081,-3.5749,-3.6034,-3.6273,-3.637,-3.6142,-3.6299,-3.6795,-3.6146,-3.5752,-3.56,-3.56,-3.56,-3.5583,-3.5447,-3.4979,-3.4167,-3.2852,-3.187,-3.119,-3.119,-3.119,-3.119,-3.119,-3.119,-3.119,-3.119,-3.0717,-2.9989,-2.9247,-2.8467,-2.7655,-2.6911,-2.6691,-2.6691,-2.6691,-2.6691,-2.6691,-2.6691,-2.6691,-2.6691,-2.6691,-2.6691,-2.659,-2.6192,-2.5854,-2.5484,-2.5001,-2.4639,-2.4235,-2.3599,-2.3486,-2.304,-2.1704,-2.1488,-2.126,-2.0599,-2.0507,-2.0495,-2.0472,-2.0509,-2.0594,-2.0711,-2.0777,-2.0794,-2.0794,-2.0794,-2.0794,-2.0794,-2.0794,-2.0794,-2.0794,-2.0794,-2.0794,-2.0794,-2.1521,-2.1884,-2.1916,-2.2706,-2.3085,-1.658,-1.7128,-1.785,-1.8589,-1.927,-2.0285,0.0,0.0,-2.3121,-2.3405,-2.388,-2.4335,-2.4737,-2.5528,-2.6425,-2.7327,-2.8436,-2.9187,-2.9289,-2.9279,-2.9279,-2.9279,-2.9965,-3.0773,-3.1662,-3.2542,-3.3286,-3.3767,-3.4399,-3.5061,-3.5787,-3.5952,-3.6512,-3.7545,-3.7203,-3.7203,-3.7675,-3.7662,-3.7364,-3.6795,-3.6711,-3.6282,-3.56,-3.56,-3.56,-3.5566,-3.4912,-3.4201,-3.3457,-3.2649,-3.187,-3.119,-3.119,-3.119,-3.119,-3.119,-3.119,-3.119,-3.119,-3.0717,-2.9989,-2.9247,-2.8467,-2.7655,-2.6911,-2.6691,-2.6691,-2.6691,-2.6691,-2.6691,-2.6691,-2.6691,-2.6691,-2.6691,-2.6691,-2.659,-2.6192,-2.6052,-2.5817,-2.5059,-2.4863,-2.4688,-2.4256,-2.4194,-2.3733,-2.2397,-2.2197,-2.1954,-2.135,-2.1275,-2.1111,-2.0705,-2.0676,-2.0711,-2.0778,-2.0794,-2.0794,-2.0794,-2.0794,-2.0794,-2.0794,-2.0794,-2.0794,-2.0794,-2.0794,-2.0794,-2.0794,-2.1472,-2.1836,-2.1916,-2.3212,-2.3778,-1.8956,-1.9198,-1.9372,0.0,-2.1417,-2.2243,-2.3173,-2.4052,-2.459,-2.426,-2.4635,-2.5176,-2.5644,-2.6068,-2.6842,0.0,-2.9018,-2.9525,-2.9925,-2.9648,-2.9496,-2.9762,-3.0445,-3.0917,-3.1027,-3.2045,-3.2949,-3.3485,-3.4873,-3.5966,-3.6613,-3.7753,-3.8437,-3.8548,-3.8319,-3.8319,-3.8531,-3.8125,-3.7956,-3.8082,-3.7218,-3.6626,-3.6282,-3.5802,-3.56,-3.5583,-3.5261,-3.4726,-3.3981,-3.3237,-3.251,-3.1802,-3.136,-3.119,-3.119,-3.119,-3.119,-3.119,-3.119,-3.1004,-3.0615,-2.9871,-2.9127,-2.8349,-2.7588,-2.7046,-2.6691,-2.6691,-2.6691,-2.6691,-2.6691,-2.6691,-2.6691,-2.6691,-2.6691,-2.6657,-2.6487,-2.607,-2.5652,-2.5313,-2.4863,-2.4492,-2.4323,-2.4302,-2.4138,-2.3663,-2.3172,-2.2682,-2.2096,-2.2037,-2.1846,-2.1351,-2.0928,-2.0743,-2.0794,-2.0794,-2.0794,-2.0794,-2.0794,-2.0794,-2.0794,-2.0794,-2.0794,-2.0794,-2.0794,-2.1,-2.1442,-2.2106,-2.2659,-2.3101,-2.4065,-2.4523,-2.0242,-2.0602,-2.0859,-2.1769,-2.2852,-2.3697,-2.3697,-2.4847,-2.5682,-2.4866,-2.522,-2.5741,-2.6032,-2.6353,-2.7186,-2.9031,-2.9652,-3.0183,-3.1004,-3.0419,-3.0145,-3.0815,-3.1068,-3.118,-3.1133,-3.2301,-3.3277,-3.3827,-3.5451,-3.6694,-3.7295,-3.8899,-3.9656,-3.9292,-3.9292,-3.9292,-3.9292,-3.8768,-3.8667,-3.8988,-3.7929,-3.7202,-3.6778,-3.5977,-3.56,-3.56,-3.56,-3.5182,-3.4455,-3.3931,-3.3136,-3.2242,-3.1718,-3.1376,-3.119,-3.119,-3.119,-3.119,-3.119,-3.119,-3.1072,-3.0345,-2.9736,-2.9128,-2.8111,-2.7418,-2.6962,-2.6759,-2.6691,-2.6691,-2.6691,-2.6691,-2.6691,-2.6691,-2.6691,-2.6691,-2.6691,-2.6245,-2.5762,-2.554,-2.504,-2.4574,-2.4343,-2.4338,-2.438,-2.4498,-2.4024,-2.3451,-2.2935,-2.2552,-2.2186,-2.181,-2.1135,-2.0744,-2.0794,-2.0794,-2.0906,-2.1079,-2.1094,-2.1189,-2.1363,-2.1189,-2.1094,-2.1079,-2.1079,-2.1347,-2.19,-2.2754,-2.3433,-2.392,-2.4669,-2.5005,-1.9362,-2.0568,-2.206,-2.141,-2.2866,-2.4457,-2.4457,-2.5608,-2.6437,-2.5638,-2.5783,-2.5936,-2.5429,-2.6236,-2.7472,-2.8969,-3.0307,-3.1563,-3.2741,-3.1901,-3.1579,-3.2773,-3.1901,-3.1651,0.0,-3.4013,-3.4951,-3.5492,-3.6303,-3.7104,-3.7848,-3.8616,-3.9368,-4.0045,-4.0079,-4.0079,-4.0079,-4.0045,-3.969,-3.8988,-3.8937,-3.8176,-3.6778,-3.5977,-3.56,-3.56,-3.56,-3.5182,-3.4489,-3.4472,-3.3613,-3.2293,-3.2276,-3.1836,-3.119,-3.119,-3.119,-3.119,-3.119,-3.119,-3.1072,-3.0345,-3.0072,-2.9768,-2.8263,-2.779,-2.7621,-2.6894,-2.6691,-2.6691,-2.6691,-2.6691,-2.6691,-2.6691,-2.6691,-2.6691,-2.6691,-2.6674,-2.6436,-2.5652,-2.5484,-2.5218,-2.4431,-2.44,-2.4498,-2.4498,-2.4528,-2.4365,-2.3829,-2.2681,-2.1916,-2.19,-2.1237,-2.0794,-2.0794,-2.0794,-2.1094,-2.1821,-2.1869,-2.2171,-2.2819,-2.2201,-2.1853,-2.1771,-2.1771,-2.1804,-2.19,-2.3243,-2.3872,-2.392,-2.4669,-2.5005,-2.1481,-2.209,-2.2479,-2.3204,-2.4321,-2.522,-2.522,-2.5981,-2.6353,-2.5087,-2.4935,-2.4961,-2.4689,-2.5302,-2.6751,-2.9429,-3.0608,-3.1794,-3.3427,-3.2942,-3.266,-3.3388,-3.3137,0.0,0.0,0.0,0.0,-3.5021,-3.6276,-3.7265,-3.7865,-3.9056,-3.9842,-4.0096,-4.0096,-4.0096,-4.0096,-4.0096,-3.9977,-3.9723,-3.9225,-3.8234,-3.6795,-3.6502,-3.6096,-3.56,-3.56,-3.5447,-3.5199,-3.4692,-3.3914,-3.2983,-3.2496,-3.1853,-3.119,-3.119,-3.119,-3.119,-3.119,-3.119,-3.1157,-3.0903,-3.0497,-2.9987,-2.948,-2.8991,-2.8433,-2.7655,-2.7418,-2.7334,-2.6826,-2.6691,-2.6691,-2.6691,-2.6691,-2.6691,-2.6691,-2.6487,-2.6139,-2.5615,-2.5275,-2.4962,-2.4523,-2.4477,-2.4539,-2.4681,-2.4722,-2.4668,-2.4488,-2.3361,-2.2566,-2.2566,-2.1522,-2.0794,-2.0794,-2.1252,-2.1632,-2.1884,-2.2329,-2.2661,-2.2882,-2.2693,-2.255,-2.2532,-2.2532,-2.2769,-2.3225,-2.3667,-2.416,-2.4638,-2.4875,-2.5005,-2.2479,-2.2852,-2.2987,-2.4203,-2.505,-2.5592,-2.5592,-2.5981,-2.6,-2.4903,-2.4573,-2.4349,-2.3862,-2.4527,-2.6181,-2.9272,-3.0427,-3.181,-3.4225,-3.3833,-3.3665,-3.4678,-3.4449,-3.4591,0.0,0.0,0.0,-3.5502,-3.6918,-3.7919,-3.827,-3.9453,-4.0096,-4.0096,-4.0096,-4.0096,-4.0096,-4.0096,-4.0096,-4.0096,-3.9089,-3.8108,-3.7161,-3.662,-3.6096,-3.56,-3.56,-3.56,-3.5566,-3.5098,-3.4455,-3.3728,-3.2966,-3.2242,-3.1546,-3.1292,-3.119,-3.119,-3.119,-3.119,-3.119,-3.119,-3.0886,-3.0446,-3.0192,-2.9583,-2.884,-2.8027,-2.7604,-2.73,-2.6826,-2.6691,-2.6691,-2.6691,-2.6691,-2.6691,-2.6691,-2.6505,-2.6157,-2.5615,-2.5313,-2.5036,-2.4564,-2.4559,-2.4661,-2.4842,-2.4882,-2.4882,-2.4882,-2.3932,-2.3259,-2.3259,-2.2232,-2.1537,-2.1537,-2.1981,-2.2359,-2.2596,-2.3022,-2.3388,-2.3641,-2.3404,-2.3259,-2.3259,-2.3259,-2.348,-2.3904,-2.4176,-2.4523,-2.5005,-2.5005,-2.5005,-2.2381,-2.2953,-2.3695,-2.4423,-2.5135,-2.5643,-2.5609,-2.5592,-2.5461,-2.4995,-2.4627,-2.4062,-2.2962,0.0,-2.579,-2.8506,-2.9881,-3.1779,-3.5132,-3.4655,-3.4697,0.0,0.0,0.0,0.0,0.0,0.0,-3.6981,0.0,-3.8988,-3.8988,-3.9706,-4.0096,-4.0096,-4.0096,-4.0096,-4.0096,-4.0096,-4.0096,-4.0079,-3.8633,-3.7939,-3.7855,-3.6343,-3.5633,-3.56,-3.56,-3.56,-3.56,-3.56,-3.5148,-3.437,-3.3677,-3.2933,-3.2158,-3.1464,-3.119,-3.119,-3.119,-3.119,-3.119,-3.119,-3.119,-3.1072,-3.0378,-2.9634,-2.8891,-2.8077,-2.7317,-2.6742,-2.6708,-2.6691,-2.6691,-2.6708,-2.6691,-2.6691,-2.6708,-2.6708,-2.647,-2.5689,-2.5612,-2.5438,-2.4645,-2.4681,-2.4862,-2.4966,-2.5005,-2.5005,-2.5005,-2.4349,-2.3904,-2.3904,-2.3291,-2.2898,-2.2898,-2.293,-2.3212,-2.3856,-2.3935,-2.427,-2.4954,-2.4334,-2.3951,-2.3951,-2.3951,-2.3951,-2.3951,-2.4669,-2.5005,-2.5005,-2.5005,-2.5005,-2.3644,-2.4475,-2.522,-2.5947,-2.6268,-2.6285,-2.5744,-2.5592,-2.5191,-2.3732,-2.3159,-2.2769,-2.216,-2.3647,0.0,-2.7834,-3.0392,0.0,-3.5284,-3.5852,0.0,-3.7476,0.0,-3.7347,-3.7848,-3.8396,0.0,0.0,-3.8785,-3.8988,-3.8988,-3.9706,-4.0096,-4.0096,-4.0096,-4.0096,-4.0096,-4.0096,-4.0096,-4.0096,-3.9157,-3.843,-3.7872,-3.6924,-3.6163,-3.56,-3.56,-3.56,-3.56,-3.56,-3.4839,-3.366,-3.3474,-3.2611,-3.1464,-3.1258,-3.119,-3.119,-3.119,-3.119,-3.119,-3.119,-3.119,-3.1157,-3.097,-3.0395,-2.9668,-2.8925,-2.8129,-2.7384,-2.6843,-2.6691,-2.6742,-2.6842,-2.6758,-2.6742,-2.6892,-2.6892,-2.6708,-2.6262,-2.5779,-2.5307,-2.4806,-2.4862,-2.4946,-2.4985,-2.5005,-2.5005,-2.5005,-2.4349,-2.3904,-2.3904,-2.3291,-2.2898,-2.2898,-2.3354,-2.3733,-2.3888,-2.4413,-2.4796,-2.4985,-2.4812,-2.4717,-2.4717,-2.4717,-2.4717,-2.4717,-2.4906,-2.5005,-2.5005,-2.5005,-2.5005,-2.4186,-2.5033,-2.5795,-2.6522,-2.6691,-2.6505,-2.5778,-2.5355,-2.4648,-2.2983,-2.2486,-2.2027,-2.0988,-2.2718,0.0,0.0,0.0,0.0,-3.4783,-3.6079,-3.7083,0.0,-3.8193,0.0,-3.8819,-3.9225,-3.9486,0.0,-3.9486,-3.9486,-3.9486,-3.9893,-4.0096,-4.0096,-4.0096,-4.0096,-4.0096,-4.0096,-4.0096,-4.0096,-3.9005,-3.8311,-3.7872,-3.6772,-3.6028,-3.56,0.0,-3.56,-3.56,-3.56,-3.4906,-3.3846,-3.3541,-3.2696,-3.165,-3.1309,-3.119,-3.119,-3.119,-3.119,-3.119,-3.119,-3.119,-3.119,-3.119,-3.0683,-3.0004,-2.96,-2.867,-2.7705,-2.7283,-2.6996,-2.6809,-2.6893,-2.6876,-2.6859,-2.6975,-2.6975,-2.6859,-2.6555,-2.6049,-2.561,-2.5403,-2.5304,-2.5227,-2.5227,-2.5088,-2.5005,-2.5005,-2.4638,-2.4381,-2.4381,-2.4052,-2.3815,-2.3815,-2.4179,-2.4381,-2.4381,-2.4764,-2.5005,-2.5005,-2.5005,-2.5005,-2.5005,-2.5005,-2.5005,-2.5005,-2.5005,-2.5005,-2.5005,-2.5005,-2.5005,-2.4321,-2.5101,-2.5896,-2.6539,-2.6623,-2.6353,-2.5625,-2.4797,-2.3831,-2.2446,-2.2032,-2.1465,-1.9942,-2.1666,-2.395,-2.5895,0.0,-3.114,-3.4083,-3.5831,-3.7117,-3.7956,-3.87,-3.9394,-4.0045,-4.0096,-4.0096,-4.0096,-4.0096,-4.0096,-4.0096,-4.0096,-4.0096,-4.0096,-4.0096,-4.0096,-4.0096,-4.0096,-4.0096,-4.0079,-3.8599,-3.7905,-3.7855,-3.6293,-3.56,-3.56,0.0,0.0,-3.56,-3.56,-3.5115,-3.4286,-3.366,-3.2882,-3.209,-3.1427,-3.119,-3.119,-3.119,-3.119,-3.119,-3.119,-3.119,-3.119,-3.119,-3.0683,-3.0108,-3.0108,-2.9008,-2.7824,-2.7824,-2.7369,-2.6926,-2.6909,-2.6958,-2.7024,-2.7024,-2.704,-2.6958,-2.6674,-2.6314,-2.6086,-2.6104,-2.5817,-2.5577,-2.5577,-2.5288,-2.5084,-2.5084,-2.5025,-2.5005,-2.5005,-2.5005,-2.5005,-2.5005,-2.5005,-2.5005,-2.5005,-2.5005,-2.5005,-2.5005,-2.5005,-2.5005,-2.5005,-2.5005,-2.5005,-2.5005,-2.5005,-2.5005,-2.5005,-2.5005,-2.5005,-2.4457,-2.5489,-2.6539,-2.6657,-2.6234,-2.5592,-2.4863,-2.3646,0.0,0.0,-2.0639,-2.0086,-2.0428,-2.1873,-2.3681,-2.586,-2.8384,-3.114,-3.4083,-3.5831,-3.7303,0.0,-3.9469,-3.996,-4.0096,0.0,0.0,0.0,0.0,0.0,-4.0096,-4.0096,-4.0096,-4.0096,-4.0096,-4.0096,-4.0096,-4.0096,-4.0096,-4.0079,-3.8599,-3.7905,-3.7855,-3.6293,-3.56,-3.56,0.0,0.0,-3.56,-3.56,-3.4805,-3.3592,-3.3457,-3.2577,-3.1376,-3.1241,-3.119,-3.119,-3.119,-3.119,-3.119,-3.119,-3.119,-3.119,-3.119,-3.0683,-3.0108,-3.0108,-2.9063,-2.7963,-2.7963,-2.747,-2.6991,-2.7038,-2.7023,-2.7057,-2.7202,-2.7251,-2.7154,-2.6758,-2.6624,-2.647,-2.6157,-2.6034,-2.6015,-2.6015,-2.5652,-2.5424,-2.5424,-2.5169,-2.5005,-2.5005,-2.5005,-2.5005,-2.5005,-2.5005,-2.5005,-2.5005,-2.5005,-2.5005,-2.5005,-2.5005,-2.5005,-2.5005,-2.5005,-2.5005,-2.5005,-2.5005,-2.5005,-2.5005,-2.5005,-2.5005,-2.4389,-2.5303,-2.6218,-2.659,-2.615,-2.5423,-2.4677,0.0,0.0,0.0,-2.0135,-1.9762,-1.9759,-2.1312,0.0,-2.4508,-2.6758,-2.9364,-3.2357,-3.4426,-3.6299,-3.821,-3.9436,-4.0096,0.0,0.0,0.0,0.0,0.0,0.0,-4.0096,-4.0096,-4.0096,-4.0096,-4.0096,-4.0096,-4.0096,-4.0096,-4.0096,-4.0079,-3.8599,-3.7905,-3.7855,-3.6293,-3.56,-3.56,0.0,0.0,-3.56,-3.56,-3.4721,-3.3406,-3.3406,-3.251,-3.119,-3.119,-3.119,-3.119,-3.119,-3.119,-3.119,-3.119,-3.119,-3.119,-3.119,-3.0954,-3.0666,-3.0666,-2.9929,-2.9051,-2.8677,-2.8118,-2.7568,-2.7188,-2.712,-2.717,-2.7283,-2.7299,-2.7234,-2.7056,-2.7006,-2.6957,-2.6775,-2.6539,-2.6402,-2.6402,-2.6068,-2.5744,-2.5521,-2.5349,-2.5188,-2.5025,-2.5005,-2.5005,-2.5005,-2.5005,-2.5005,-2.5005,-2.5005,-2.5005,-2.5005,-2.5005,-2.5005,-2.5005,-2.5005,-2.5005,-2.5005,-2.5005,-2.5005,-2.5005,-2.5005,-2.5005,-2.4305,-2.5033,-2.5795,-2.6522,-2.6031,-2.5203,-2.4626,-2.3105,0.0,-2.0238,-1.9748,-1.9456,-1.9181,-2.0589,-2.2212,0.0,-2.522,-2.7571,-3.0751,-3.3102,-3.5351,0.0,-3.9191,0.0,-4.0096,0.0,0.0,0.0,0.0,0.0,0.0,-4.0096,-4.0096,-4.0096,-4.0096,-4.0096,-4.0096,-4.0096,-4.0028,-3.9859,-3.8531,-3.7821,-3.7618,-3.6225,-3.56,-3.56,0.0,0.0,0.0,-3.543,-3.4585,-3.3389,-3.3237,-3.2357,-3.119,-3.119,-3.119,-3.119,-3.119,-3.119,-3.119,-3.119,-3.119,-3.119,-3.119,-3.121,-3.123,-3.123,-3.0747,-3.0093,-2.9361,-2.8733,-2.8131,-2.7324,-2.7217,-2.7299,-2.7299,-2.7299,-2.7299,-2.7299,-2.7299,-2.7299,-2.7299,-2.7039,-2.6825,-2.6825,-2.6402,-2.598,-2.567,-2.5484,-2.5288,-2.5025,-2.5005,-2.5005,-2.5005,-2.5005,-2.5005,-2.5005,-2.5005,-2.5005,-2.5005,-2.5005,-2.5005,-2.5005,-2.5005,-2.5005,-2.5005,-2.5005,-2.5005,-2.5005,-2.5005,-2.5005,-2.4305,-2.5033,-2.5795,-2.6522,-2.5642,-2.4575,-2.4508,0.0,-2.017,-2.0035,-1.8932,-1.8391,-1.9664,-2.0069,-2.113,-2.3949,-2.5118,-2.6996,-3.0666,-3.3102,-3.5351,-3.7635,0.0,0.0,-4.0096,0.0,0.0,0.0,0.0,0.0,0.0,-4.0096,-4.0096,-4.0096,-4.0096,-4.0096,-4.0096,-4.0096,-3.9774,-3.9089,-3.8278,-3.755,-3.688,-3.6011,-3.56,-3.56,0.0,0.0,0.0,-3.4878,-3.4134,-3.3339,-3.2666,-3.1921,-3.119,-3.119,-3.119,-3.119,-3.119,-3.119,-3.119,-3.119,-3.119,-3.119,-3.119,-3.1252,-3.1276,-3.1276,-3.0899,-3.0311,-2.9573,-2.887,-2.8196,-2.7471,-2.7282,-2.7299,-2.7299,-2.7299,-2.7299,-2.7299,-2.7299,-2.7299,-2.7299,-2.7283,-2.7234,-2.7234,-2.659,-2.6104,-2.605,-2.546,-2.5025,-2.5005,-2.5005,-2.5005,-2.5005,-2.5005,-2.5005,-2.5005,-2.5005,-2.5005,-2.5005,-2.5005,-2.5005,-2.5005,-2.5005,-2.5005,-2.5005,-2.5005,-2.5005,-2.5005,-2.5005,-2.5005,-2.4186,-2.4711,-2.5218,-2.6387,-2.5591,-2.4491,-2.4491,-2.2175,-2.0002,-2.0002,-1.9186,-1.8775,-1.9811,-2.0403,-2.1109,-2.2324,-2.3122,-2.4611,-2.7435,-2.9364,-3.1985,-3.6022,-3.7449,0.0,0.0,0.0,0.0,0.0,0.0,0.0,0.0,0.0,-4.0096,-4.0096,-4.0096,-4.0096,-4.0096,-4.0096,-3.974,-3.8988,-3.8261,-3.7499,-3.6778,-3.5977,-3.56,0.0,0.0,0.0,0.0,-3.4793,-3.4066,-3.3339,-3.2598,-3.1853,-3.119,-3.119,-3.119,-3.119,-3.119,-3.119,-3.121,-3.1252,-3.1254,-3.1254,-3.1254,-3.1293,-3.1315,-3.1406,-3.1316,-3.0895,-2.9711,-2.8577,-2.7661,-2.7368,-2.7299,-2.7299,-2.7299,-2.7299,-2.7299,-2.7299,-2.7299,-2.7299,-2.7299,-2.7299,-2.7218,-2.6974,-2.6674,-2.628,-2.5799,-2.5481,-2.5227,-2.5025,-2.5005,-2.5005,-2.5005,-2.5005,-2.5005,-2.5005,-2.5005,-2.5005,-2.5005,-2.5005,-2.5005,-2.5005,-2.5005,-2.5005,-2.5005,-2.5005,-2.5005,-2.5005,-2.5005,-2.5005,-2.378,-2.4169,-2.4474,-2.5743,-2.51,-2.4169,-2.4169,-2.2023,-2.0082,-2.0302,-1.9587,-1.9198,-2.0183,-2.0822,-2.1275,-2.1495,-2.2141,-2.341,-2.5609,-2.7401,-3.0089,0.0,0.0,0.0,0.0,0.0,0.0,0.0,0.0,0.0,0.0,0.0,-3.9876,-4.0096,-4.0096,-4.0096,-4.0096,-4.0096,-3.9622,-3.8667,-3.8159,-3.7398,-3.6417,-3.5853,-3.56,0.0,0.0,0.0,0.0,-3.4532,-3.3787,-3.3,-3.228,-3.167,-3.119,-3.119,-3.119,-3.121,-3.1213,-3.1232,-3.1232,-3.1332,-3.1351,-3.1351,-3.1372,-3.1391,-3.1408,-3.1483,-3.1252,-3.0674,-2.9437,-2.8215,-2.7299,-2.7299,-2.7299,-2.7299,-2.7299,-2.7299,-2.7299,-2.7299,-2.7299,-2.7299,-2.7299,-2.7299,-2.7202,-2.6925,-2.6775,-2.6487,-2.5926,-2.5652,-2.5424,-2.5169,-2.515,-2.5107,-2.5005,-2.5005,-2.5005,-2.5005,-2.5005,-2.5005,-2.5005,-2.5005,-2.5005,-2.5005,-2.5005,-2.5005,-2.5005,-2.5005,-2.5005,-2.5005,-2.5005,-2.5005,-2.3004,-2.341,-2.3594,-2.4338,-2.3966,-2.341,-2.341,-2.1637,-2.0234,-2.1021,-1.9972,-1.9367,-2.0903,-2.119,-2.1444,-2.2161,-2.2919,-2.4154,-2.6386,-2.8636,-3.09,0.0,0.0,0.0,0.0,0.0,0.0,0.0,0.0,0.0,0.0,0.0,-3.9368,-4.0079,-4.0096,-4.0096,-4.0096,-4.0096,-3.9343,-3.7922,-3.7905,-3.7087,-3.5616,-3.56,0.0,0.0,0.0,0.0,0.0,-3.3854,-3.3087,-3.2226,-3.1562,-3.1271,-3.119,-3.119,-3.119,-3.121,-3.1274,-3.1295,-3.1315,-3.1443,-3.1498,-3.15,-3.1578,-3.1598,-3.1598,-3.1598,-3.0589,-2.9351,-2.861,-2.7851,-2.7299,-2.7299,-2.7299,-2.7299,-2.7299,-2.7299,-2.7299,-2.7299,-2.7299,-2.7299,-2.7299,-2.7299,-2.7299,-2.7282,-2.6957,-2.6691,-2.6691,-2.598,-2.5503,-2.5503,-2.5503,-2.5349,-2.5025,-2.5005,-2.5005,-2.5005,-2.5005,-2.5005,-2.5005,-2.5005,-2.5005,-2.5005,-2.5005,-2.5005,-2.5005,-2.5005,-2.5005,-2.5005,-2.5005,-2.5005,-2.2378,-2.2649,-2.2699,-2.2936,-2.2818,-2.2649,-2.2649,-2.1282,-2.0234,-2.1038,-2.0365,-1.9963,-2.1004,-2.1613,-2.2192,-2.2936,-2.3663,0.0,0.0,0.0,0.0,-3.3761,0.0,0.0,0.0,0.0,0.0,0.0,0.0,0.0,0.0,0.0,0.0,-3.8582,-3.8599,-3.8836,-3.9326,-3.8853,-3.8362,-3.7905,-3.7381,-3.6603,-3.56,0.0,0.0,0.0,0.0,0.0,0.0,-3.3917,-3.3145,-3.236,-3.1601,-3.1293,-3.1274,-3.1366,-3.1402,-3.1421,-3.1423,-3.1443,-3.1445,-3.154,-3.1578,-3.1596,-3.169,-3.1671,-3.1617,-3.1709,-3.066,-2.9455,-2.9213,-2.823,-2.7299,-2.7299,-2.7299,-2.7299,-2.7299,-2.7299,-2.7299,-2.7299,-2.7299,-2.7299,-2.7299,-2.7299,-2.7202,-2.6941,-2.6792,-2.6607,-2.6315,-2.6068,-2.5908,-2.5908,-2.5908,-2.5744,-2.5368,-2.5329,-2.5329,-2.5329,-2.5127,-2.5005,-2.5005,-2.5005,-2.5005,-2.5005,-2.5005,-2.5005,-2.5005,-2.5227,-2.5481,-2.5742,-2.5462,-2.5329,-2.1231,-2.1434,-2.1434,-2.1434,-2.1434,-2.1434,-2.1434,-2.0471,-1.9811,-2.0585,-2.0352,-2.0251,-2.1055,-2.1803,-2.2448,-2.2919,-2.3596,0.0,0.0,0.0,0.0,0.0,0.0,0.0,0.0,0.0,0.0,0.0,0.0,0.0,0.0,0.0,0.0,-3.7533,-3.8042,-3.8557,-3.902,-3.8574,-3.8197,-3.7928,-3.737,-3.6688,-3.5898,0.0,0.0,0.0,0.0,0.0,0.0,-3.3574,-3.2801,-3.2066,-3.1575,-3.1387,-3.1387,-3.1462,-3.1498,-3.1498,-3.1519,-3.1538,-3.1557,-3.1653,-3.1671,-3.169,-3.1764,-3.1727,-3.1621,-3.1437,-3.0472,-2.9455,-2.9161,-2.8196,-2.7299,-2.7299,-2.7299,-2.7299,-2.7299,-2.7299,-2.7299,-2.7299,-2.7299,-2.7299,-2.7299,-2.7299,-2.7218,-2.6974,-2.6941,-2.6842,-2.6573,-2.6419,-2.6315,-2.6315,-2.6315,-2.6228,-2.5962,-2.5817,-2.5726,-2.5726,-2.5519,-2.5362,-2.5188,-2.5188,-2.5127,-2.5005,-2.5005,-2.5005,-2.5005,-2.5208,-2.5538,-2.5979,-2.5652,-2.5577,0.0,-1.9883,-1.99,-1.9849,-1.9883,-1.9917,-1.9917,-1.9389,0.0,-1.9862,-2.0002,-2.0268,-2.1123,-2.1837,-2.2347,-2.2499,-2.3105,0.0,0.0,-2.7892,0.0,0.0,0.0,0.0,0.0,0.0,0.0,0.0,0.0,0.0,0.0,0.0,0.0,0.0,-3.8307,-3.9038,-3.9028,-3.8996,-3.8649,-3.8023,-3.7715,-3.7168,-3.6457,0.0,0.0,0.0,0.0,0.0,0.0,-3.2901,-3.2183,-3.1517,-3.1517,-3.1517,-3.1517,-3.1517,-3.1517,-3.1536,-3.1596,-3.1617,-3.1635,-3.1746,-3.18,-3.18,-3.18,-3.18,-3.1645,-3.0921,-3.011,-2.9334,-2.8592,-2.7851,-2.7299,-2.7299,-2.7299,-2.7299,-2.7299,-2.7299,-2.7299,-2.7299,-2.7299,-2.7299,-2.7299,-2.7299,-2.7299,-2.7299,-2.7299,-2.7299,-2.7299,-2.6974,-2.6741,-2.6741,-2.6741,-2.6741,-2.6741,-2.6367,-2.6139,-2.6139,-2.6122,-2.5926,-2.5559,-2.554,-2.5387,-2.5068,-2.5064,-2.5068,-2.5146,-2.5103,-2.5362,-2.5924,-2.5689,-2.5781,-1.8273,0.0,-1.9029,-1.8459,-1.8729,-1.9164,0.0,-1.9012,-1.9113,-1.9862,-2.0002,-2.042,-2.1789,-2.2178,-2.2854,-2.4544,0.0,0.0,0.0,0.0,0.0,0.0,0.0,0.0,0.0,0.0,0.0,0.0,0.0,0.0,0.0,0.0,0.0,0.0,-3.8151,-3.8454,-3.833,-3.7886,-3.7837,-3.8223,-3.7602,-3.7195,0.0,0.0,0.0,0.0,0.0,0.0,0.0,-3.2853,-3.2299,-3.1578,-3.1578,-3.1578,-3.1596,-3.1688,-3.1726,-3.1726,-3.1763,-3.1746,-3.1746,-3.18,-3.18,-3.18,-3.18,-3.18,-3.1645,-3.0921,-3.011,-2.9334,-2.8592,-2.7851,-2.7299,-2.7299,-2.7299,-2.7299,-2.7299,-2.7299,-2.7299,-2.7299,-2.7299,-2.7299,-2.7299,-2.7299,-2.7299,-2.7299,-2.7299,-2.7299,-2.7299,-2.7218,-2.7153,-2.7153,-2.7153,-2.7153,-2.7153,-2.6792,-2.6556,-2.6556,-2.6263,-2.6052,-2.5962,-2.5962,-2.5908,-2.5852,-2.5687,-2.589,-2.6454,-2.6052,-2.628,-2.7101,-2.6539,-2.642,-1.7304,-1.8082,-1.8792,-1.8403,-1.8606,-1.8894,-1.8894,-1.864,-1.8606,-1.9338,-1.9761,-2.0369,-2.1566,-2.2361,-2.3207,0.0,-2.5439,0.0,0.0,0.0,0.0,0.0,0.0,0.0,0.0,0.0,0.0,0.0,0.0,0.0,0.0,0.0,0.0,0.0,0.0,-3.8252,-3.8166,-3.7864,-3.7918,-3.8239,-3.7792,-3.7542,-3.7451,0.0,0.0,0.0,0.0,0.0,-3.3096,-3.2692,-3.2385,-3.2127,-3.1948,-3.1985,-3.2144,-3.2056,-3.2126,-3.2266,-3.2266,-3.2162,-3.2002,-3.1838,-3.18,-3.18,-3.18,-3.1558,-3.1196,-3.0817,-3.011,-2.9334,-2.8592,-2.7851,-2.7299,-2.7299,-2.7299,-2.7299,-2.7299,-2.7299,-2.7299,-2.7299,-2.7299,-2.7299,-2.7299,-2.7299,-2.7299,-2.7299,-2.7299,-2.7299,-2.7299,-2.7299,-2.7299,-2.7299,-2.7299,-2.7315,-2.7329,-2.7153,-2.7006,-2.6974,-2.6808,-2.6607,-2.6436,-2.6454,-2.6402,-2.6229,-2.6123,-2.6316,-2.6807,-2.642,-2.6624,-2.7355,-2.6906,-2.6856,-1.6841,-1.7941,-1.9046,-1.8927,-1.8978,-1.9063,-1.9063,-1.8589,-1.8307,-1.8944,-1.9659,-2.042,-2.1224,-2.2494,0.0,0.0,0.0,0.0,0.0,0.0,0.0,0.0,0.0,0.0,0.0,0.0,0.0,0.0,0.0,0.0,0.0,0.0,0.0,0.0,0.0,0.0,-3.8026,-3.8281,-3.8336,-3.8224,-3.8121,-3.7946,-3.7716,-3.686,0.0,0.0,0.0,0.0,-3.3248,-3.2564,-3.2486,-3.2763,-3.2419,-3.2503,-3.2763,-3.2487,-3.257,-3.2795,-3.2731,-3.2503,-3.2179,-3.1893,-3.18,-3.18,-3.18,-3.1282,-3.0662,-3.0541,-2.9937,-2.9161,-2.842,-2.7764,-2.7299,-2.7299,-2.7299,-2.7299,-2.7299,-2.7299,-2.7299,-2.7299,-2.7299,-2.7299,-2.7299,-2.7299,-2.7299,-2.7299,-2.7299,-2.7299,-2.7299,-2.7315,-2.7315,-2.7315,-2.7313,-2.7345,-2.7407,-2.7423,-2.7392,-2.7329,-2.7376,-2.7247,-2.6923,-2.6954,-2.6856,-2.659,-2.6539,-2.6624,-2.6841,-2.6607,-2.6757,-2.7276,-2.7067,-2.718,-1.7456,-1.8713,-1.9676,-1.9063,-1.9372,-1.9828,-1.9828,-1.9731,-1.9681,-1.9811,-2.0467,-2.1228,-2.1989,-2.2835,-2.3799,0.0,0.0,0.0,0.0,0.0,0.0,0.0,0.0,0.0,0.0,0.0,0.0,0.0,0.0,0.0,0.0,0.0,0.0,0.0,0.0,0.0,0.0,-3.8022,-3.8382,-3.8368,-3.8415,-3.805,-3.7361,-3.6993,-3.6049,0.0,0.0,0.0,-3.2893,-3.2752,-3.2731,-3.2795,-3.2731,-3.2765,-3.2795,-3.2731,-3.2765,-3.2747,-3.2487,-3.2161,-3.1856,-3.1818,-3.18,-3.18,-3.18,-3.1282,-3.0558,-2.9886,-2.9144,-2.8403,-2.7661,-2.7385,-2.7299,-2.7299,-2.7299,-2.7299,-2.7299,-2.7299,-2.7299,-2.7299,-2.7299,-2.7299,-2.7299,-2.7299,-2.7299,-2.7299,-2.7299,-2.7299,-2.7299,-2.7362,-2.7376,-2.7376,-2.7436,-2.7465,-2.7481,-2.7481,-2.7481,-2.7465,-2.7465,-2.745,-2.7404,-2.7402,-2.7417,-2.7417,-2.7197,-2.7227,-2.755,-2.7117,-2.7148,-2.7627,-2.7432,-2.7463,-1.6417,-1.8008,-1.9476,-1.9486,-2.0369,-2.1248,-2.1248,-2.1248,-2.1248,-2.1248,-2.1549,-2.2023,0.0,0.0,-2.4745,-2.7046,0.0,0.0,0.0,0.0,0.0,0.0,0.0,0.0,0.0,0.0,0.0,0.0,0.0,0.0,0.0,0.0,0.0,0.0,0.0,0.0,0.0,-3.733,-3.7525,-3.7106,-3.7247,-3.7091,-3.6629,-3.5926,-3.5201,0.0,0.0,-3.3248,-3.3078,-3.3078,-3.3184,-3.3317,-3.3139,-3.3184,-3.3346,-3.3346,-3.3229,-3.3032,-3.2684,-3.2352,-3.2037,-3.1856,-3.18,-3.18,-3.18,-3.0972,-2.9972,-2.961,-2.8972,-2.823,-2.7489,-2.7299,-2.7299,-2.7299,-2.7299,-2.7299,-2.7299,-2.7299,-2.7299,-2.7299,-2.7299,-2.7299,-2.7299,-2.7299,-2.7315,-2.7362,-2.7345,-2.736,-2.7405,-2.7436,-2.7452,-2.7452,-2.7465,-2.7511,-2.7557,-2.7557,-2.7557,-2.7557,-2.7557,-2.7554,-2.7615,-2.7615,-2.763,-2.7659,-2.7537,-2.7552,-2.7701,-2.7474,-2.7491,-2.7701,-2.7615,-2.7597,-1.5859,-1.7523,-1.9207,-2.0061,-2.1299,-2.2361,-2.2516,-2.2699,-2.2818,-2.2818,-2.2939,0.0,0.0,-2.4541,0.0,0.0,0.0,0.0,0.0,0.0,0.0,0.0,0.0,0.0,0.0,0.0,0.0,0.0,0.0,0.0,0.0,0.0,0.0,0.0,0.0,0.0,-3.5757,-3.6355,-3.6431,-3.6,-3.6164,-3.6098,-3.5787,-3.4983,-3.4509,-3.4294,-3.3406,-3.3184,-3.3422,-3.3422,-3.3583,-3.3762,-3.3508,-3.3564,-3.3807,-3.3807,-3.3536,-3.3139,-3.289,-3.2519,-3.2144,-3.1874,-3.18,-3.1765,-3.1593,-3.0593,-2.9472,-2.9299,-2.8713,-2.8006,-2.7437,-2.7299,-2.7299,-2.7299,-2.7299,-2.7297,-2.733,-2.7313,-2.7313,-2.7313,-2.7346,-2.7345,-2.733,-2.7329,-2.736,-2.7423,-2.7423,-2.7436,-2.7496,-2.7511,-2.7526,-2.7526,-2.7542,-2.7554,-2.7615,-2.7615,-2.7615,-2.7615,-2.7615,-2.7644,-2.7701,-2.7701,-2.7701,-2.7701,-2.7701,-2.7701,-2.7701,-2.7701,-2.7701,-2.7701,-2.7701,-2.7701,-1.727,-1.8319,-1.9343,-2.0763,-2.1701,-2.2482,-2.3156,-2.3864,-2.4338,-2.4338,-2.4881,0.0,0.0,-2.615,0.0,0.0,0.0,0.0,0.0,0.0,0.0,0.0,0.0,0.0,0.0,0.0,0.0,0.0,0.0,0.0,0.0,0.0,0.0,0.0,0.0,0.0,-3.4987,-3.5042,-3.5382,-3.6,-3.6069,-3.5729,-3.4983,-3.4966,-3.4555,-3.3853,-3.3753,-3.3734,-3.3762,-3.3762,-3.3793,-3.3807,-3.3762,-3.3793,-3.3807,-3.3807,-3.339,-3.2827,-3.2811,-3.2386,-3.1819,-3.1818,-3.18,-3.1662,-3.0989,-3.0179,-2.9368,-2.8678,-2.7937,-2.7368,-2.7299,-2.7299,-2.7299,-2.7299,-2.7299,-2.7315,-2.7376,-2.7392,-2.7392,-2.7392,-2.7436,-2.7467,-2.7407,-2.7436,-2.7481,-2.7496,-2.7496,-2.7496,-2.7496,-2.7557,-2.7602,-2.7602,-2.7659,-2.7686,-2.7701,-2.7701,-2.7701,-2.7701,-2.7701,-2.7701,-2.7701,-2.7701,-2.7701,-2.7701,-2.7701,-2.7701,-2.7701,-2.7701,-2.7701,-2.7701,-2.7701,-2.7701,-1.6802,-1.7803,-1.8785,-2.0215,-2.1513,-2.2728,-2.3829,-2.5015,-2.5879,-2.5879,-2.6148,0.0,0.0,0.0,0.0,0.0,0.0,0.0,0.0,0.0,0.0,0.0,0.0,0.0,0.0,0.0,0.0,0.0,0.0,0.0,0.0,0.0,0.0,0.0,0.0,0.0,0.0,-3.4706,-3.4857,-3.4627,-3.4669,-3.4518,-3.4225,-3.4252,-3.41,-3.3807,-3.3807,-3.3807,-3.3807,-3.3807,-3.3807,-3.3807,-3.3807,-3.3807,-3.3807,-3.3807,-3.3508,-3.3108,-3.3108,-3.2813,-3.2403,-3.2179,-3.1812,-3.1342,-3.0836,-2.9817,-2.8765,-2.8472,-2.7868,-2.7299,-2.7299,-2.7299,-2.7299,-2.7299,-2.733,-2.7378,-2.7392,-2.7421,-2.7467,-2.7467,-2.7481,-2.7496,-2.7467,-2.7481,-2.7511,-2.7557,-2.7557,-2.7587,-2.763,-2.7659,-2.7657,-2.7657,-2.7686,-2.7701,-2.7701,-2.7701,-2.7701,-2.7701,-2.7701,-2.7701,-2.7701,-2.7701,-2.7701,-2.7701,-2.7701,-2.7701,-2.7701,-2.7701,-2.7701,-2.7701,-2.7701,-2.7701,-1.6915,-1.7971,-1.9076,-2.0272,-2.1712,-2.3153,-2.4294,-2.569,-2.6809,-2.7063,-2.7182,-2.7162,-2.6871,0.0,0.0,0.0,0.0,0.0,0.0,0.0,0.0,0.0,0.0,0.0,0.0,0.0,0.0,0.0,0.0,0.0,0.0,0.0,0.0,0.0,0.0,0.0,0.0,-3.4344,-3.4344,-3.3807,-3.3807,-3.3807,-3.3807,-3.3807,-3.3807,-3.3807,-3.3807,-3.3807,-3.3807,-3.3807,-3.3807,-3.3807,-3.3807,-3.3807,-3.3807,-3.3807,-3.3597,-3.3306,-3.3306,-3.3078,-3.2711,-3.2254,-3.1682,-3.1073,-3.0316,-2.9297,-2.8351,-2.8127,-2.7694,-2.733,-2.733,-2.7315,-2.7315,-2.733,-2.7378,-2.7407,-2.7436,-2.7513,-2.7526,-2.7526,-2.7557,-2.7554,-2.7542,-2.7539,-2.7569,-2.7615,-2.763,-2.7644,-2.7701,-2.7701,-2.7701,-2.7701,-2.7701,-2.7701,-2.7701,-2.7701,-2.7701,-2.7701,-2.7701,-2.7701,-2.7701,-2.7701,-2.7701,-2.7701,-2.7701,-2.7701,-2.7701,-2.7701,-2.7701,-2.7701,-2.7701,-2.7701,-1.8016,-1.9133,-2.0475,-2.122,-2.2511,-2.3796,-2.4547,-2.5801,-2.7046,-2.7845,-2.7998,-2.8032,-2.8084,0.0,0.0,0.0,0.0,0.0,0.0,0.0,0.0,0.0,0.0,0.0,0.0,0.0,0.0,0.0,0.0,0.0,0.0,0.0,0.0,0.0,0.0,0.0,0.0,-3.3807,-3.3807,-3.3807,-3.3807,-3.3807,-3.3807,-3.3807,-3.3807,-3.3807,-3.3807,-3.3807,-3.3807,-3.3807,-3.3788,-3.377,-3.3788,-3.377,-3.377,-3.377,-3.356,-3.327,-3.327,-3.3057,-3.2652,-3.1854,-3.1402,-3.0878,-2.9283,-2.861,-2.823,-2.7506,-2.7362,-2.7392,-2.7392,-2.7362,-2.733,-2.7393,-2.7392,-2.7438,-2.7572,-2.7602,-2.7602,-2.7602,-2.7659,-2.7672,-2.76,-2.7659,-2.7701,-2.7701,-2.7701,-2.7701,-2.7701,-2.7701,-2.7701,-2.7701,-2.7701,-2.7701,-2.7701,-2.7701,-2.7701,-2.7701,-2.7701,-2.7701,-2.7701,-2.7701,-2.7701,-2.7701,-2.7701,-2.7701,-2.7701,-2.7701,-2.7701,-2.7701,-2.7701,-2.7701,-1.8081,-1.8823,-2.0026,-2.1867,-2.3041,-2.4076,-2.5397,-2.6337,-2.7179,-2.7964,-2.8101,-2.7997,-2.779,0.0,0.0,0.0,0.0,0.0,0.0,0.0,0.0,0.0,0.0,0.0,0.0,0.0,0.0,0.0,0.0,0.0,0.0,0.0,0.0,0.0,0.0,0.0,0.0,0.0,-3.3807,-3.3807,-3.3807,-3.3807,-3.3807,-3.3807,-3.3807,-3.3807,-3.3807,-3.3807,-3.3807,-3.3807,-3.3128,-3.2155,-3.2742,-3.2614,-3.21,-3.21,-3.2049,-3.1952,-3.1952,-3.19,-3.171,-3.1037,-3.0383,-2.97,-2.8797,-2.8136,-2.7654,-2.743,-2.7423,-2.7483,-2.7483,-2.7467,-2.7452,-2.7467,-2.7513,-2.7542,-2.7587,-2.763,-2.7657,-2.7657,-2.7686,-2.7701,-2.7672,-2.7686,-2.7701,-2.7701,-2.7701,-2.7701,-2.7701,-2.7701,-2.7701,-2.7701,-2.7701,-2.7701,-2.7701,-2.7701,-2.7701,-2.7701,-2.7701,-2.7701,-2.7701,-2.7701,-2.7701,-2.7701,-2.7701,-2.7701,-2.7701,-2.7701,-2.7701,-2.7701,-2.7701,-2.7701,-1.8943,-1.9814,-2.1061,-2.2716,-2.3715,-2.4681,-2.623,0.0,0.0,0.0,-2.8391,-2.8131,-2.8078,0.0,0.0,0.0,0.0,0.0,0.0,0.0,0.0,0.0,0.0,0.0,0.0,0.0,0.0,0.0,0.0,0.0,0.0,0.0,0.0,0.0,0.0,0.0,0.0,0.0,0.0,-3.3807,-3.3476,-3.333,-3.333,-3.3642,-3.3807,-3.377,-3.3458,-3.333,-3.3311,-3.2981,-3.2265,-3.1452,-3.1935,-3.1825,-3.1397,-3.1397,-3.1397,-3.1397,-3.1397,-3.1397,-3.1266,-3.0477,-2.979,-2.9155,-2.8384,-2.7801,-2.7407,-2.7421,-2.7498,-2.7542,-2.7542,-2.7554,-2.7569,-2.7557,-2.7572,-2.7617,-2.763,-2.7657,-2.7701,-2.7701,-2.7701,-2.7701,-2.7701,-2.7701,-2.7701,-2.7701,-2.7701,-2.7701,-2.7701,-2.7701,-2.7701,-2.7701,-2.7701,-2.7701,-2.7701,-2.7701,-2.7701,-2.7701,-2.7701,-2.7701,-2.7701,-2.7701,-2.7701,-2.7701,-2.7701,-2.7701,-2.7701,-2.7701,-2.7701,-2.7701,-2.7701,-2.7701,-2.0119,-2.144,-2.2802,-2.3698,-2.456,0.0,-2.6971,-2.7718,-2.8322,-2.9059,0.0,-2.8248,0.0,0.0,0.0,0.0,0.0,0.0,0.0,0.0,0.0,0.0,0.0,0.0,0.0,0.0,0.0,0.0,0.0,0.0,0.0,0.0,0.0,0.0,0.0,0.0,0.0,0.0,0.0,0.0,-3.2949,-3.2564,-3.2509,-3.3256,-3.3587,-3.3532,-3.2816,-3.2454,-3.2326,-3.1659,-3.1323,-3.1195,-3.1268,-3.125,-3.1182,-3.1182,-3.1182,-3.1182,-3.1182,-3.1182,-3.1017,-3.0033,-2.9472,-2.9034,-2.8127,-2.7644,-2.7438,-2.7526,-2.7587,-2.7617,-2.7617,-2.7659,-2.7686,-2.7615,-2.7617,-2.7615,-2.7686,-2.7701,-2.7701,-2.7701,-2.7701,-2.7701,-2.7701,-2.7701,-2.7701,-2.7701,-2.7701,-2.7701,-2.7701,-2.7701,-2.7701,-2.7701,-2.7701,-2.7701,-2.7701,-2.7701,-2.7701,-2.7701,-2.7701,-2.7701,-2.7701,-2.7701,-2.7701,-2.7701,-2.7701,-2.7701,-2.7701,-2.7701,-2.7701,-2.7701,-2.7701,-2.7701,-1.9481,-2.0665,-2.2302,-2.4264,-2.5781,-2.6885,-2.7213,-2.7404,-2.7543,-2.7715,-2.7612,0.0,0.0,0.0,0.0,0.0,0.0,0.0,0.0,0.0,0.0,0.0,0.0,0.0,0.0,0.0,0.0,0.0,0.0,0.0,0.0,0.0,0.0,0.0,0.0,0.0,-3.3807,-3.3807,-3.3476,0.0,-3.2674,-3.2284,-3.1659,-3.1843,-3.1929,-3.1911,-3.1733,-3.1292,-3.076,-3.1213,-3.065,-2.9574,-3.021,-3.0081,-2.9519,-2.9519,-2.9519,-2.9519,-2.9519,-2.9519,-2.9447,-2.9052,-2.8745,-2.8483,-2.8251,-2.7883,-2.7602,-2.7815,-2.7786,-2.7672,-2.7672,-2.7686,-2.7701,-2.7686,-2.7672,-2.7686,-2.7701,-2.7701,-2.7701,-2.7701,-2.7701,-2.7701,-2.7701,-2.7701,-2.7701,-2.7701,-2.7701,-2.7701,-2.7701,-2.7701,-2.7701,-2.7701,-2.7701,-2.7701,-2.7701,-2.7701,-2.7701,-2.7701,-2.7701,-2.7701,-2.7701,-2.7701,-2.7701,-2.7701,-2.7701,-2.7701,-2.7701,-2.7701,-2.7701,-2.7701,-2.7701,-2.7701,-1.943,-2.0406,-2.1664,-2.4333,0.0,-2.6833,-2.7213,-2.7299,-2.7299,-2.7299,0.0,0.0,0.0,0.0,0.0,0.0,0.0,0.0,0.0,0.0,0.0,0.0,0.0,0.0,0.0,0.0,0.0,0.0,0.0,0.0,0.0,0.0,0.0,0.0,0.0,0.0,-3.2651,-3.2651,-3.243,-3.2027,-3.1641,-3.1035,-3.0283,-3.1048,-3.1397,-3.1378,-3.0993,-3.0595,-3.021,-3.0246,-2.9769,-2.9042,-2.9464,-2.9372,-2.9005,-2.9005,-2.9005,-2.9005,-2.9005,-2.9028,-2.8998,-2.8785,-2.8601,-2.8464,-2.8381,-2.8093,-2.7844,-2.8156,-2.7982,-2.7745,-2.7855,-2.78,-2.7701,-2.7701,-2.7701,-2.7701,-2.7701,-2.7701,-2.7701,-2.7701,-2.7701,-2.7701,-2.7701,-2.7701,-2.7701,-2.7701,-2.7701,-2.7701,-2.7701,-2.7701,-2.7701,-2.7701,-2.7701,-2.7701,-2.7701,-2.7701,-2.7701,-2.7701,-2.7701,-2.7701,-2.7701,-2.7701,-2.7701,-2.7701,-2.7701,-2.7701,-2.7701,-2.7701,-2.7701,-2.7701,-2.7701,-2.7701,-1.9103,-2.0205,-2.132,-2.425,-2.5557,0.0,-2.7109,-2.7299,-2.7297,0.0,0.0,0.0,0.0,0.0,0.0,0.0,0.0,0.0,0.0,0.0,0.0,0.0,0.0,0.0,0.0,0.0,0.0,0.0,0.0,0.0,0.0,0.0,0.0,0.0,0.0,-3.1397,-3.1397,-3.1397,-3.1342,-3.1182,-3.0375,-2.9629,-2.906,-3.0375,-3.0993,-3.0944,-3.0283,-2.9989,-2.9953,-2.9292,-2.9017,-2.9028,-2.904,-2.9028,-2.9017,-2.9017,-2.9017,-2.9005,-2.9017,-2.9044,-2.9067,-2.8881,-2.8767,-2.8718,-2.8609,-2.8342,-2.8156,-2.8491,-2.8197,-2.7829,-2.8047,-2.7897,-2.7701,-2.7701,-2.7701,-2.7701,-2.7701,-2.7701,-2.7701,-2.7701,-2.7701,-2.7701,-2.7701,-2.7701,-2.7701,-2.7701,-2.7701,-2.7701,-2.7701,-2.7701,-2.7701,-2.7701,-2.7701,-2.7701,-2.7701,-2.7701,-2.7701,-2.7701,-2.7701,-2.7701,-2.7701,-2.7701,-2.7701,-2.7701,-2.7701,-2.7701,-2.7701,-2.7701,-2.7701,-2.7701,-2.7701,-2.7701,-1.7173,0.0,-2.2009,0.0,-2.5557,-2.6301,0.0,0.0,-2.7376,0.0,0.0,0.0,0.0,0.0,0.0,0.0,0.0,0.0,0.0,0.0,0.0,0.0,0.0,0.0,0.0,0.0,0.0,0.0,0.0,0.0,0.0,0.0,-3.0687,-3.1378,-3.1397,0.0,-3.1397,-3.1397,-3.1048,-3.0356,-2.9537,-2.9097,-2.9005,-2.9225,-2.9317,-2.9317,-2.9207,-2.9152,-2.9152,-2.9111,-2.9096,-2.9078,-2.9145,-2.9152,-2.9096,-2.9096,-2.9051,-2.9005,-2.9074,-2.9078,-2.91,-2.9186,-2.9055,-2.8922,-2.9189,-2.8885,-2.8504,-2.8838,-2.8515,-2.8061,-2.8102,-2.7897,-2.7701,-2.7701,-2.7701,-2.7701,-2.7701,-2.7701,-2.7701,-2.7701,-2.7701,-2.7701,-2.7701,-2.7701,-2.7701,-2.7701,-2.7701,-2.7701,-2.7701,-2.7701,-2.7701,-2.7701,-2.7701,-2.7701,-2.7701,-2.7701,-2.7701,-2.7701,-2.7701,-2.7701,-2.7701,-2.7701,-2.7701,-2.7701,-2.7701,-2.7701,-2.7701,-2.7701,-2.7701,-2.7701,-2.7701,-2.7701,-1.7114,-1.9269,-2.1475,0.0,-2.4577,-2.5129,-2.635,0.0,0.0,0.0,0.0,0.0,0.0,0.0,0.0,0.0,0.0,0.0,0.0,0.0,0.0,0.0,0.0,0.0,0.0,0.0,0.0,0.0,0.0,0.0,0.0,-2.9537,-2.9684,-3.0044,-3.0063,0.0,-3.0063,-3.0063,-2.9879,-2.9519,-2.917,-2.9028,-2.9062,-2.9062,-2.904,-2.9005,-2.9051,-2.9062,-2.9062,-2.9123,-2.9123,-2.9089,-2.9123,-2.9141,-2.9089,-2.9089,-2.9119,-2.913,-2.9163,-2.9186,-2.9218,-2.9291,-2.924,-2.9218,-2.9365,-2.9115,-2.8815,-2.8968,-2.8565,-2.8102,-2.8102,-2.7897,-2.7701,-2.7701,-2.7701,-2.7701,-2.7701,-2.7701,-2.7701,-2.7701,-2.7701,-2.7701,-2.7701,-2.7701,-2.7701,-2.7701,-2.7701,-2.7701,-2.7701,-2.7701,-2.7701,-2.7701,-2.7701,-2.7701,-2.7701,-2.7701,-2.7701,-2.7701,-2.7701,-2.7701,-2.7701,-2.7701,-2.7701,-2.7701,-2.7701,-2.7701,-2.7701,-2.7701,-2.7701,-2.7701,-2.7701,-2.7701,-1.6873,0.0,-2.0136,-2.263,-2.3388,-2.3922,0.0,0.0,0.0,0.0,0.0,0.0,0.0,0.0,0.0,0.0,0.0,0.0,0.0,0.0,0.0,0.0,0.0,0.0,0.0,0.0,0.0,0.0,0.0,0.0,-2.9005,-2.9005,-2.9005,-2.9005,-2.9005,-2.9005,-2.9005,-2.9005,-2.9005,-2.9005,-2.9005,-2.9028,-2.9085,-2.9078,-2.9067,-2.904,-2.9108,-2.9141,-2.9123,-2.9207,-2.9197,-2.9141,-2.9163,-2.9163,-2.9141,-2.9152,-2.9156,-2.92,-2.9229,-2.9251,-2.9302,-2.9323,-2.9365,-2.9396,-2.9396,-2.9262,-2.91,-2.9014,-2.8615,-2.8197,-2.8129,-2.7897,-2.7701,-2.7701,-2.7701,-2.7701,-2.7701,-2.7701,-2.7701,-2.7701,-2.7701,-2.7701,-2.7701,-2.7701,-2.7701,-2.7701,-2.7701,-2.7701,-2.7701,-2.7701,-2.7701,-2.7701,-2.7701,-2.7701,-2.7701,-2.7701,-2.7701,-2.7701,-2.7701,-2.7728,-2.78,-2.7745,-2.776,-2.789,-2.7844,-2.7786,-2.7701,-2.7745,-2.7789,-2.78,-2.78,-2.7826,0.0,-1.6588,0.0,-2.0958,-2.2233,-2.3164,0.0,0.0,0.0,0.0,0.0,0.0,0.0,0.0,0.0,0.0,0.0,0.0,0.0,0.0,0.0,0.0,0.0,0.0,0.0,0.0,0.0,0.0,0.0,0.0,-2.9005,-2.9005,-2.9005,-2.9005,-2.9005,-2.9005,-2.9005,-2.9005,-2.9005,-2.9005,-2.9005,-2.9005,-2.9005,-2.9074,-2.9108,-2.9089,-2.9156,-2.9189,-2.92,-2.9262,-2.9251,-2.9218,-2.9326,-2.9304,-2.92,-2.928,-2.9251,-2.92,-2.9262,-2.9302,-2.9312,-2.9376,-2.9396,-2.9396,-2.9396,-2.9396,-2.9326,-2.906,-2.8749,-2.8428,-2.8166,-2.7897,-2.7701,-2.7701,-2.7701,-2.7701,-2.7701,-2.7701,-2.7701,-2.7701,-2.7701,-2.7701,-2.7701,-2.7701,-2.7701,-2.7701,-2.7701,-2.7701,-2.7701,-2.7701,-2.7701,-2.7701,-2.7701,-2.7701,-2.7701,-2.7701,-2.7701,-2.7701,-2.7701,-2.7797,-2.8075,-2.7844,-2.7901,-2.8344,-2.8228,-2.8024,-2.7701,-2.7879,-2.8035,-2.8088,-2.8088,-2.8219,-1.5615,0.0,0.0,-1.9608,-2.0706,-2.168,0.0,0.0,0.0,0.0,0.0,0.0,0.0,0.0,0.0,0.0,0.0,0.0,0.0,0.0,0.0,0.0,0.0,0.0,0.0,0.0,0.0,0.0,0.0,0.0,-2.9005,-2.9005,-2.9005,-2.9005,-2.9127,-2.9185,-2.9185,-2.9067,-2.9005,-2.9005,-2.9005,-2.9051,-2.9123,-2.9145,-2.9218,-2.9283,-2.9315,-2.9294,-2.9262,-2.9344,-2.9315,-2.9262,-2.9323,-2.9312,-2.9262,-2.9302,-2.9323,-2.9326,-2.9365,-2.9365,-2.9376,-2.9396,-2.9396,-2.9396,-2.9396,-2.9396,-2.9304,-2.8808,-2.8591,-2.8402,-2.7968,-2.7771,-2.7701,-2.7701,-2.7701,-2.7701,-2.7701,-2.7701,-2.7701,-2.7701,-2.7701,-2.7701,-2.7701,-2.7701,-2.7701,-2.7701,-2.7701,-2.7701,-2.7701,-2.7701,-2.7701,-2.7701,-2.7701,-2.7701,-2.7701,-2.7701,-2.7701,-2.7701,-2.7897,-2.8061,-2.8156,-2.8272,-2.8415,-2.8584,-2.8628,-2.8491,-2.8143,-2.8355,-2.8471,-2.8491,-2.8491,-2.8516,-1.5107,0.0,0.0,0.0,0.0,-2.0412,0.0,0.0,0.0,0.0,0.0,0.0,0.0,0.0,0.0,0.0,0.0,0.0,0.0,0.0,0.0,0.0,0.0,0.0,0.0,0.0,0.0,0.0,0.0,0.0,-2.8216,-2.8455,-2.8489,-2.8261,-2.8339,-2.8423,-2.8447,-2.8559,-2.8613,-2.8624,-2.8624,-2.8692,-2.8801,-2.8793,-2.8847,-2.8938,-2.9256,-2.9376,-2.9344,-2.9386,-2.9365,-2.9302,-2.9323,-2.9323,-2.9302,-2.9334,-2.9365,-2.9396,-2.9396,-2.9396,-2.9396,-2.9396,-2.9396,-2.9396,-2.9396,-2.9396,-2.9304,-2.8808,-2.8597,-2.8402,-2.7936,-2.7771,-2.7713,-2.7815,-2.7826,-2.7826,-2.7826,-2.7757,-2.7701,-2.7701,-2.7701,-2.7701,-2.7701,-2.7701,-2.7701,-2.7701,-2.7701,-2.7701,-2.7701,-2.7701,-2.7701,-2.7701,-2.7701,-2.7745,-2.7844,-2.7826,-2.7883,-2.7978,-2.821,-2.8376,-2.8491,-2.8628,-2.8772,-2.89,-2.8975,-2.8918,-2.8742,-2.876,-2.8795,-2.883,-2.883,-2.8807,0.0,0.0,0.0,0.0,0.0,0.0,0.0,0.0,0.0,0.0,0.0,0.0,0.0,0.0,0.0,0.0,0.0,0.0,0.0,0.0,0.0,0.0,0.0,0.0,0.0,0.0,0.0,0.0,0.0,-2.8253,-2.6675,-2.7346,-2.7461,-2.6831,-2.668,-2.6669,-2.6794,-2.7453,-2.7802,-2.7874,-2.7874,-2.7896,-2.7967,-2.7964,-2.7976,-2.8061,-2.8967,-2.9388,-2.9396,-2.9396,-2.9365,-2.9312,-2.9376,-2.9365,-2.9312,-2.9376,-2.9396,-2.9396,-2.9396,-2.9396,-2.9396,-2.9396,-2.9396,-2.9396,-2.9396,-2.9396,-2.9336,-2.9089,-2.8761,-2.8448,-2.8179,-2.7926,-2.7786,-2.8047,-2.8098,-2.8098,-2.8098,-2.7911,-2.773,-2.7698,-2.7698,-2.7716,-2.7701,-2.7716,-2.7716,-2.7701,-2.7716,-2.7698,-2.7698,-2.773,-2.773,-2.7698,-2.773,-2.7844,-2.8088,-2.8116,-2.8246,-2.8578,-2.8603,-2.8748,-2.9086,-2.8865,-2.89,-2.9304,-2.9251,-2.928,-2.9412,-2.9075,-2.8997,-2.9126,-2.9126,-2.9107,-1.4219,0.0,0.0,0.0,0.0,0.0,0.0,0.0,0.0,0.0,0.0,0.0,0.0,0.0,0.0,0.0,0.0,0.0,0.0,0.0,0.0,0.0,0.0,0.0,0.0,0.0,0.0,0.0,0.0,-2.706,-2.662,-2.6814,-2.6901,-2.6879,-2.67,-2.67,-2.6944,-2.698,-2.7017,-2.7022,-2.7022,-2.7081,-2.7142,-2.7133,-2.7488,-2.8084,-2.8346,-2.882,-2.9396,-2.9396,-2.9386,-2.9376,-2.9396,-2.9386,-2.9376,-2.9396,-2.9396,-2.9396,-2.9396,-2.9396,-2.9396,-2.9396,-2.9396,-2.9396,-2.9396,-2.9396,-2.9336,-2.9089,-2.8927,-2.8791,-2.8466,-2.8319,-2.8298,-2.8376,-2.8389,-2.8389,-2.8389,-2.8337,-2.8219,-2.8034,-2.7978,-2.794,-2.7728,-2.7855,-2.7926,-2.7745,-2.7855,-2.7978,-2.7978,-2.8152,-2.8206,-2.8006,-2.8152,-2.8246,-2.8183,-2.8337,-2.8516,-2.8664,-2.8895,-2.9071,-2.9177,-2.9324,-2.9482,-2.9589,-2.9569,-2.9579,-2.9617,-2.9512,-2.9492,-2.9522,-2.9482,-2.9453,-1.5662,-1.6447,-1.7772,0.0,0.0,0.0,0.0,0.0,0.0,0.0,0.0,0.0,0.0,0.0,0.0,0.0,0.0,0.0,0.0,0.0,0.0,0.0,0.0,0.0,0.0,0.0,0.0,0.0,-2.5982,-2.6486,-2.6117,-2.5786,-2.5676,-2.5856,-2.5687,-2.5715,-2.5947,-2.6124,-2.6202,-2.6233,-2.6292,-2.633,-2.6339,-2.6405,-2.6665,-2.713,-2.7817,-2.8393,-2.8895,-2.9248,-2.9396,-2.9396,-2.9396,-2.9396,-2.9396,-2.9396,-2.9396,-2.9396,-2.9396,-2.9396,-2.9396,-2.9396,-2.9396,-2.9396,-2.9396,-2.9396,-2.9376,-2.92,-2.91,-2.8968,-2.8761,-2.8591,-2.8541,-2.867,-2.8713,-2.8713,-2.8713,-2.8713,-2.8584,-2.8183,-2.8192,-2.8179,-2.7911,-2.8088,-2.8206,-2.8061,-2.8166,-2.8272,-2.8272,-2.8428,-2.8478,-2.8324,-2.846,-2.8591,-2.8578,-2.8712,-2.8877,-2.9053,-2.9251,-2.9392,-2.9412,-2.9607,-2.9701,-2.9701,-2.9701,-2.9701,-2.9701,-2.9701,-2.9701,-2.9701,-2.9655,-2.9636,-1.7664,-1.805,-1.8884,-1.9615,0.0,0.0,-2.0991,-2.0931,0.0,0.0,0.0,0.0,0.0,0.0,0.0,0.0,0.0,0.0,0.0,0.0,0.0,0.0,0.0,0.0,0.0,0.0,0.0,-2.4266,-2.5591,-2.6105,-2.5321,-2.4595,-2.4275,-2.4391,-2.4266,-2.4311,-2.4512,-2.5106,-2.544,-2.5513,-2.5643,-2.566,-2.5621,-2.5722,-2.577,-2.5817,-2.7223,-2.7957,-2.82,-2.8942,-2.9304,-2.9396,-2.9396,-2.9396,-2.9396,-2.9396,-2.9396,-2.9396,-2.9396,-2.9396,-2.9396,-2.9396,-2.9396,-2.9396,-2.9396,-2.9396,-2.9396,-2.9396,-2.924,-2.9037,-2.9037,-2.8808,-2.8682,-2.8962,-2.9037,-2.9037,-2.9037,-2.9037,-2.888,-2.8316,-2.8389,-2.8466,-2.8192,-2.8376,-2.8541,-2.8516,-2.8523,-2.8566,-2.8566,-2.864,-2.8676,-2.867,-2.8736,-2.8877,-2.9086,-2.9137,-2.9283,-2.9598,-2.9607,-2.9636,-2.9701,-2.9701,-2.9701,-2.9701,-2.9701,-2.9701,-2.9701,-2.9701,-2.9701,-2.9701,-2.9701,-2.9701,-1.8633,-1.9399,-2.0349,-1.9417,0.0,0.0,0.0,-1.9309,0.0,0.0,0.0,0.0,0.0,0.0,0.0,0.0,0.0,0.0,0.0,0.0,0.0,0.0,0.0,0.0,0.0,0.0,-2.4515,-2.4303,-2.457,-2.4699,-2.4524,-2.4377,-2.4284,-2.4321,-2.4294,-2.4374,-2.4575,-2.47,-2.4856,-2.5042,-2.5059,-2.5059,-2.5057,-2.4971,-2.5336,-2.6035,-2.6121,-2.7009,-2.8344,-2.836,-2.8765,-2.9396,-2.9396,-2.9396,-2.9396,-2.9396,-2.9396,-2.9396,-2.9396,-2.9396,-2.9396,-2.9396,-2.9396,-2.9396,-2.9396,-2.9396,-2.9396,-2.9396,-2.9347,-2.9315,-2.9315,-2.9265,-2.9243,-2.9304,-2.9315,-2.9315,-2.9315,-2.9315,-2.9222,-2.8892,-2.8868,-2.8803,-2.8478,-2.8688,-2.8815,-2.8541,-2.8724,-2.8906,-2.8906,-2.9148,-2.9251,-2.902,-2.9201,-2.9293,-2.9198,-2.9392,-2.955,-2.9664,-2.9692,-2.9692,-2.9701,-2.9701,-2.9701,-2.9701,-2.9701,-2.9701,-2.9701,-2.9701,-2.9701,-2.9701,-2.9701,-2.9701,-2.0607,-2.1103,-2.1708,-2.1098,0.0,0.0,0.0,0.0,0.0,0.0,0.0,0.0,0.0,0.0,0.0,0.0,0.0,0.0,0.0,0.0,0.0,0.0,0.0,0.0,0.0,0.0,-2.443,-2.4348,-2.4321,-2.4294,-2.4294,-2.4294,-2.4339,-2.4399,-2.4425,-2.4534,-2.4693,-2.4734,-2.4811,-2.4902,-2.4974,-2.4955,-2.4902,-2.4902,-2.5129,-2.5525,-2.5785,-2.6381,-2.7189,-2.7475,-2.782,-2.8244,-2.9062,-2.9396,-2.9396,-2.9396,-2.9396,-2.9396,-2.9396,-2.9396,-2.9396,-2.9396,-2.9396,-2.9396,-2.9396,-2.9396,-2.9396,-2.9396,-2.9396,-2.9396,-2.9396,-2.9396,-2.9396,-2.9396,-2.9396,-2.9396,-2.9396,-2.9399,-2.9359,-2.9225,-2.9235,-2.9134,-2.8814,-2.9027,-2.9195,-2.902,-2.9137,-2.9251,-2.9251,-2.9433,-2.9511,-2.9363,-2.9492,-2.956,-2.9463,-2.9569,-2.9655,-2.9701,-2.9701,-2.9701,-2.9701,-2.9701,-2.9701,-2.9701,-2.9701,-2.9701,-2.9701,-2.9701,-2.9701,-2.9701,-2.9701,-2.9701,0.0,0.0,0.0,0.0,0.0,-2.3004,0.0,0.0,0.0,-2.2739,0.0,0.0,0.0,0.0,0.0,0.0,0.0,0.0,0.0,0.0,0.0,0.0,0.0,0.0,0.0,0.0,-2.4298,-2.4402,-2.421,-2.4164,-2.4375,-2.4375,-2.4444,-2.457,-2.4628,-2.4727,-2.4864,-2.4916,-2.4961,-2.4987,-2.5091,-2.5091,-2.4987,-2.5055,-2.5068,-2.5019,-2.5582,-2.5865,-2.5989,-2.6572,-2.6859,-2.7037,-2.8393,-2.8913,-2.8913,-2.8913,-2.9006,-2.9155,-2.9155,-2.9248,-2.9396,-2.9396,-2.9396,-2.9396,-2.9396,-2.9396,-2.9396,-2.9396,-2.9396,-2.9396,-2.9396,-2.9396,-2.9407,-2.9388,-2.9399,-2.9399,-2.9427,-2.9421,-2.9423,-2.9423,-2.9472,-2.9433,-2.9155,-2.9314,-2.9502,-2.9502,-2.9502,-2.9531,-2.9531,-2.9588,-2.9617,-2.9617,-2.9673,-2.9701,-2.9701,-2.9701,-2.9701,-2.9701,-2.9701,-2.9701,-2.9701,-2.9701,-2.9701,-2.9701,-2.9701,-2.9701,-2.9701,-2.9701,-2.9701,-2.9701,-2.9701,-2.9701,0.0,0.0,0.0,0.0,-2.3602,0.0,0.0,0.0,-2.2776,-2.2256,0.0,0.0,0.0,0.0,0.0,0.0,0.0,0.0,0.0,0.0,0.0,0.0,0.0,0.0,0.0,0.0,0.0,-2.4435,-2.3761,-2.3709,-2.4615,-2.466,-2.4719,-2.4842,-2.4849,-2.4923,-2.5061,-2.5066,-2.5138,-2.5253,-2.5264,-2.5264,-2.5248,-2.5149,-2.5154,-2.5233,-2.4962,-2.5326,-2.6068,-2.5913,-2.6275,-2.6925,-2.7111,-2.7185,-2.7185,-2.7185,-2.7631,-2.8244,-2.8244,-2.8746,-2.9396,-2.9396,-2.9396,-2.9396,-2.9396,-2.9396,-2.9396,-2.9396,-2.9396,-2.9396,-2.9396,-2.9396,-2.9388,-2.9411,-2.9392,-2.9412,-2.9491,-2.9482,-2.9482,-2.9482,-2.954,-2.955,-2.9463,-2.9472,-2.9502,-2.9502,-2.955,-2.9588,-2.9588,-2.9645,-2.9692,-2.9692,-2.9701,-2.9701,-2.9701,-2.9701,-2.9701,-2.9701,-2.9701,-2.9701,-2.9701,-2.9701,-2.9701,-2.9701,-2.9701,-2.9701,-2.9701,-2.9701,-2.9701,-2.9701,-2.9701,-2.9701,0.0,0.0,0.0,0.0,0.0,0.0,-2.2969,0.0,-2.324,0.0,0.0,0.0,0.0,0.0,0.0,0.0,0.0,0.0,0.0,0.0,0.0,0.0,0.0,0.0,0.0,0.0,0.0,0.0,0.0,-2.3718,-2.4643,-2.4772,-2.4881,-2.5006,-2.5025,-2.5086,-2.5203,-2.5222,-2.5243,-2.5308,-2.5308,-2.5308,-2.5303,-2.5243,-2.5198,-2.5171,-2.5013,-2.5064,-2.528,-2.5166,-2.5274,-2.5503,-2.5503,-2.608,-2.6907,-2.6907,-2.7111,-2.7464,-2.7947,-2.8021,-2.8021,-2.8486,-2.8988,-2.9396,-2.9396,-2.9399,-2.9401,-2.9401,-2.9421,-2.9451,-2.9451,-2.9451,-2.9461,-2.9453,-2.9463,-2.9463,-2.9492,-2.954,-2.955,-2.955,-2.9617,-2.9645,-2.9626,-2.9626,-2.9626,-2.9626,-2.9636,-2.9673,-2.9673,-2.9673,-2.9701,-2.9701,-2.9701,-2.9701,-2.9701,-2.9701,-2.9701,-2.9701,-2.9701,-2.9701,-2.9701,-2.9701,-2.9701,-2.9701,-2.9701,-2.9701,-2.9701,-2.9701,-2.9701,-2.9701,-2.9701,-2.9701,-2.3827,0.0,0.0,0.0,0.0,0.0,0.0,0.0,0.0,0.0,0.0,0.0,0.0,0.0,0.0,0.0,0.0,0.0,0.0,0.0,0.0,0.0,0.0,0.0,0.0,0.0,0.0,0.0,0.0,0.0,-2.4759,-2.4908,-2.5025,-2.5154,-2.5154,-2.5192,-2.5303,-2.5308,-2.5308,-2.5308,-2.5308,-2.5308,-2.5308,-2.5308,-2.5233,-2.5109,-2.5055,-2.4922,-2.47,-2.466,-2.459,-2.45,-2.45,-2.5206,-2.6238,-2.6238,-2.6368,-2.6646,-2.7241,-2.7352,-2.7334,-2.791,-2.8682,-2.9399,-2.9399,-2.9411,-2.9433,-2.9433,-2.9463,-2.9502,-2.9502,-2.9502,-2.9502,-2.9512,-2.9531,-2.954,-2.956,-2.9579,-2.9626,-2.9626,-2.9673,-2.9701,-2.9701,-2.9701,-2.9701,-2.9701,-2.9701,-2.9701,-2.9701,-2.9701,-2.9701,-2.9701,-2.9701,-2.9701,-2.9701,-2.9701,-2.9701,-2.9701,-2.9701,-2.9701,-2.9701,-2.9701,-2.9701,-2.9701,-2.9701,-2.9701,-2.9701,-2.9701,-2.9701,-2.9701,-2.9701,-2.9701,0.0,0.0,0.0,-2.3425,0.0,0.0,0.0,0.0,-2.4462,0.0,0.0,0.0,0.0,0.0,-2.2906,-2.2126,0.0,0.0,0.0,0.0,0.0,0.0,0.0,0.0,0.0,0.0,0.0,0.0,0.0,0.0,-2.499,-2.5084,-2.5154,-2.5298,-2.5284,-2.5303,-2.5308,-2.5308,-2.5308,-2.5308,-2.5308,-2.5308,-2.5308,-2.5308,-2.5233,-2.5084,-2.4955,-2.4818,-2.4692,-2.4557,-2.4508,-2.45,-2.45,-2.4537,-2.4574,-2.4574,-2.5076,-2.5745,-2.5782,-2.6776,-2.8077,-2.8096,-2.8702,-2.9402,-2.9402,-2.9443,-2.9492,-2.9492,-2.9492,-2.9502,-2.9502,-2.9502,-2.9531,-2.9588,-2.9598,-2.9617,-2.9692,-2.9701,-2.9701,-2.9701,-2.9701,-2.9701,-2.9701,-2.9701,-2.9701,-2.9701,-2.9701,-2.9701,-2.9701,-2.9701,-2.9701,-2.9701,-2.9701,-2.9701,-2.9701,-2.9701,-2.9701,-2.9701,-2.9701,-2.9701,-2.9701,-2.9701,-2.9701,-2.9701,-2.9701,-2.9701,-2.9701,-2.9701,-2.9701,-2.9701,-2.9701,-2.9701,0.0,0.0,-2.4127,-2.344,0.0,0.0,0.0,0.0,0.0,0.0,0.0,0.0,0.0,0.0,-2.311,-2.285,-2.1903,0.0,0.0,0.0,0.0,0.0,0.0,0.0,0.0,0.0,0.0,0.0,0.0,0.0,0.0,-2.5182,-2.5253,-2.5303,-2.5308,-2.5308,-2.5308,-2.5308,-2.5308,-2.5308,-2.5308,-2.5308,-2.5303,-2.5217,-2.5084,-2.4968,-2.4837,-2.47,-2.4557,-2.4525,-2.45,-2.45,-2.45,-2.45,-2.45,-2.45,-2.4667,-2.4908,-2.4916,-2.5985,-2.7289,-2.6748,-2.7522,-2.8669,-2.8669,-2.9081,-2.9578,-2.9578,-2.9607,-2.9636,-2.9636,-2.9636,-2.9636,-2.9655,-2.9673,-2.9664,-2.9701,-2.9701,-2.9701,-2.9701,-2.9701,-2.9701,-2.9701,-2.9701,-2.9701,-2.9701,-2.9701,-2.9701,-2.9701,-2.9701,-2.9701,-2.9701,-2.9701,-2.9701,-2.9701,-2.9701,-2.9701,-2.9701,-2.9701,-2.9701,-2.9701,-2.9701,-2.9701,-2.9701,-2.9701,-2.9701,-2.9701,-2.9701,-2.9701,-2.9701,-2.9701,-2.9701,-2.4275,-2.4338,0.0,0.0,-2.3931,0.0,-2.3438,0.0,0.0,0.0,0.0,0.0,0.0,0.0,-2.3479,-2.2901,-2.1919,-2.0641,0.0,0.0,0.0,0.0,0.0,0.0,0.0,0.0,-2.0523,-2.2185,0.0,0.0,0.0,0.0,-2.5308,-2.5308,-2.5308,-2.5308,-2.5308,-2.5308,-2.5308,-2.5308,-2.5308,-2.5308,-2.5303,-2.5198,-2.5103,-2.4955,-2.4825,-2.4689,-2.4564,-2.4515,-2.4517,-2.4524,-2.4507,-2.4515,-2.4524,-2.4507,-2.4515,-2.4551,-2.4539,-2.5637,-2.6943,-2.642,-2.7409,-2.8764,-2.8764,-2.9176,-2.9626,-2.9626,-2.9673,-2.9701,-2.9701,-2.9701,-2.9701,-2.9701,-2.9701,-2.9701,-2.9701,-2.9701,-2.9701,-2.9701,-2.9701,-2.9701,-2.9701,-2.9701,-2.9701,-2.9701,-2.9701,-2.9701,-2.9701,-2.9701,-2.9701,-2.9701,-2.9701,-2.9701,-2.9701,-2.9701,-2.9701,-2.9701,-2.9701,-2.9701,-2.9701,-2.9701,-2.9701,-2.9701,-2.9701,-2.9701,-2.9701,-2.9701,-2.9701,-2.9701,-2.9701,-2.9701]},{"header":{"parameterUnit":"m.s-1","parameterCategory":1,"la1":30.6,"la2":29.2853,"lo1":-89.7004,"lo2":-87.6739,"dy":0.0162,"dx":0.0183,"nx":112,"ny":82,"refTime":"2024-07-17T12:00:00:Z","depth":0,"parameterNumber":3,"parameterNumberName":"V-component_of_WINDS"},"data":[0.0,0.0,0.0,0.0,0.0,0.0,0.0,0.0,0.0,0.0,0.0,0.0,0.0,0.0,0.0,0.0,0.0,0.0,0.0,0.0,0.0,0.0,0.0,0.0,0.0,0.0,0.0,0.0,0.0,0.0,0.0,0.0,0.0,0.0,0.0,0.0,0.0,0.0,0.0,0.0,0.0,0.0,0.0,0.0,0.0,0.0,0.0,0.0,0.0,0.0,0.0,0.0,0.0,0.0,0.0,0.0,0.0,0.0,0.0,0.0,0.0,0.0,0.0,0.0,0.0,0.0,0.0,0.0,0.0,0.0,0.0,0.0,0.0,0.0,0.0,0.0,0.0,0.0,0.0,0.0,0.0,0.0,0.0,0.0,0.0,0.0,0.0,0.0,0.0,0.0,0.0,-1.21,-1.305,-1.3626,-1.3819,-1.2559,-1.1617,-1.1327,0.0,0.0,0.0,0.0,0.0,0.0,0.0,0.0,0.0,0.0,0.0,0.0,0.0,0.0,0.0,0.0,0.0,0.0,0.0,0.0,0.0,0.0,0.0,0.0,0.0,0.0,0.0,0.0,0.0,0.0,0.0,0.0,0.0,0.0,0.0,0.0,0.0,0.0,0.0,0.0,0.0,0.0,0.0,0.0,0.0,0.0,0.0,0.0,0.0,0.0,0.0,0.0,0.0,0.0,0.0,0.0,0.0,0.0,0.0,0.0,0.0,0.0,0.0,0.0,0.0,0.0,0.0,0.0,0.0,0.0,0.0,0.0,0.0,0.0,0.0,0.0,0.0,0.0,0.0,0.0,0.0,0.0,0.0,0.0,0.0,0.0,0.0,0.0,0.0,0.0,0.0,0.0,0.0,0.0,0.0,0.0,0.0,0.0,0.0,0.0,0.0,0.0,0.0,0.0,-0.9637,-1.2998,-1.3351,-1.3505,-1.3924,-1.2223,-1.1066,-1.0897,0.0,0.0,0.0,0.0,0.0,0.0,0.0,0.0,0.0,0.0,0.0,0.0,0.0,0.0,0.0,0.0,0.0,0.0,0.0,0.0,0.0,0.0,0.0,0.0,0.0,0.0,0.0,0.0,0.0,0.0,0.0,0.0,0.0,0.0,0.0,0.0,0.0,0.0,0.0,0.0,0.0,0.0,0.0,0.0,0.0,0.0,0.0,0.0,0.0,0.0,0.0,0.0,0.0,0.0,0.0,0.0,0.0,0.0,0.0,0.0,0.0,0.0,0.0,0.0,0.0,0.0,0.0,0.0,0.0,0.0,0.0,0.0,0.0,0.0,0.0,0.0,0.0,0.0,0.0,0.0,0.0,0.0,0.0,0.0,0.0,0.0,0.0,0.0,0.0,0.0,0.0,0.0,0.0,0.0,0.0,0.0,0.0,0.0,0.0,0.0,0.0,0.0,0.0,-0.9404,-1.055,-1.2865,-1.3256,-1.3544,-1.4071,-1.2696,-1.1753,-1.1621,-1.0242,0.0,0.0,0.0,0.0,0.0,0.0,0.0,0.0,0.0,0.0,0.0,0.0,0.0,0.0,0.0,0.0,0.0,0.0,0.0,0.0,0.0,0.0,0.0,0.0,0.0,0.0,0.0,0.0,0.0,0.0,0.0,0.0,0.0,0.0,0.0,0.0,0.0,0.0,0.0,0.0,0.0,0.0,0.0,0.0,0.0,0.0,0.0,0.0,0.0,0.0,0.0,0.0,0.0,0.0,0.0,0.0,0.0,0.0,0.0,0.0,0.0,0.0,0.0,0.0,0.0,0.0,0.0,0.0,0.0,0.0,0.0,0.0,0.0,0.0,0.0,0.0,0.0,0.0,0.0,0.0,0.0,0.0,0.0,0.0,0.0,0.0,0.0,0.0,0.0,0.0,0.0,0.0,0.0,0.0,0.0,0.0,0.0,0.0,0.0,0.0,0.0,0.0,-1.0502,-1.163,-1.2784,-1.3102,-1.3451,-1.4008,-1.2779,-1.19,-1.1709,-1.033,0.0,0.0,0.0,0.0,0.0,0.0,0.0,0.0,0.0,0.0,0.0,0.0,0.0,0.0,0.0,0.0,0.0,0.0,0.0,0.0,0.0,0.0,0.0,0.0,0.0,0.0,0.0,0.0,0.0,0.0,0.0,0.0,0.0,0.0,0.0,0.0,0.0,0.0,0.0,0.0,0.0,0.0,0.0,0.0,0.0,0.0,0.0,0.0,0.0,0.0,0.0,0.0,0.0,0.0,0.0,0.0,0.0,0.0,0.0,0.0,0.0,0.0,0.0,0.0,0.0,0.0,0.0,0.0,0.0,0.0,0.0,0.0,0.0,0.0,0.0,0.0,0.0,0.0,0.0,0.0,0.0,0.0,0.0,0.0,0.0,0.0,0.0,0.0,0.0,0.0,0.0,0.0,0.0,0.0,0.0,0.0,0.0,0.0,0.0,0.0,0.0,0.0,-1.0813,-1.2407,-1.3437,-1.3051,-1.2999,-1.3588,-1.1681,-1.032,-0.9994,-0.9167,0.0,0.0,0.0,0.0,0.0,0.0,0.0,0.0,0.0,0.0,0.0,0.0,0.0,0.0,0.0,0.0,0.0,0.0,0.0,0.0,0.0,0.0,0.0,0.0,0.0,0.0,0.0,0.0,0.0,0.0,0.0,0.0,0.0,0.0,0.0,0.0,0.0,0.0,0.0,0.0,0.0,0.0,0.0,0.0,0.0,0.0,0.0,0.0,0.0,0.0,0.0,0.0,0.0,0.0,0.0,0.0,0.0,0.0,0.0,0.0,0.0,0.0,0.0,0.0,0.0,0.0,0.0,0.0,0.0,0.0,0.0,0.0,0.0,0.0,0.0,0.0,0.0,0.0,0.0,0.0,0.0,0.0,0.0,0.0,0.0,0.0,0.0,0.0,0.0,0.0,0.0,0.0,0.0,0.0,0.0,0.0,0.0,0.0,0.0,0.0,0.0,0.0,-1.0377,-1.1843,0.0,-1.3494,-1.3859,-1.4086,-1.3345,-1.2214,-1.0719,0.0,0.0,0.0,0.0,0.0,0.0,0.0,0.0,0.0,0.0,0.0,0.0,0.0,0.0,0.0,0.0,0.0,0.0,0.0,0.0,0.0,0.0,0.0,0.0,0.0,0.0,0.0,0.0,0.0,0.0,0.0,0.0,0.0,0.0,0.0,0.0,0.0,0.0,0.0,0.0,0.0,0.0,0.0,0.0,0.0,0.0,0.0,0.0,0.0,0.0,0.0,0.0,0.0,0.0,0.0,0.0,0.0,0.0,0.0,0.0,0.0,0.0,0.0,0.0,0.0,0.0,0.0,0.0,0.0,0.0,0.0,0.0,0.0,0.0,0.0,0.0,0.0,0.0,0.0,0.0,0.0,0.0,0.0,0.0,0.0,0.0,0.0,0.0,0.0,0.0,0.0,0.0,0.0,0.0,0.0,0.0,0.0,0.0,0.0,0.0,0.0,0.0,-0.9426,-1.0825,-1.2135,0.0,-1.3718,-1.414,-1.414,-1.3839,-1.2889,-1.1058,0.0,0.0,0.0,0.0,0.0,0.0,0.0,0.0,0.0,0.0,0.0,0.0,0.0,0.0,0.0,0.0,0.0,0.0,0.0,0.0,0.0,0.0,0.0,0.0,0.0,0.0,0.0,0.0,0.0,0.0,0.0,0.0,0.0,0.0,0.0,0.0,0.0,0.0,0.0,0.0,0.0,0.0,0.0,0.0,0.0,0.0,0.0,0.0,0.0,0.0,0.0,0.0,0.0,0.0,0.0,0.0,0.0,0.0,0.0,0.0,0.0,0.0,0.0,0.0,0.0,0.0,0.0,0.0,0.0,0.0,0.0,0.0,0.0,0.0,0.0,0.0,0.0,0.0,0.0,0.0,0.0,0.0,0.0,0.0,0.0,0.0,0.0,0.0,0.0,0.0,0.0,0.0,0.0,0.0,0.0,0.0,0.0,0.0,0.0,0.0,0.0,0.0,-1.0747,-1.2447,-1.361,-1.361,-1.361,-1.3621,-1.3621,-1.2701,-1.1694,0.0,0.0,0.0,0.0,0.0,0.0,0.0,0.0,0.0,0.0,0.0,0.0,0.0,0.0,0.0,0.0,0.0,0.0,0.0,0.0,0.0,0.0,0.0,0.0,0.0,0.0,0.0,0.0,0.0,0.0,0.0,0.0,0.0,0.0,0.0,0.0,0.0,0.0,0.0,0.0,0.0,0.0,0.0,0.0,0.0,0.0,0.0,0.0,0.0,0.0,0.0,0.0,0.0,0.0,0.0,0.0,0.0,0.0,0.0,0.0,0.0,0.0,0.0,0.0,0.0,0.0,0.0,0.0,0.0,0.0,0.0,0.0,0.0,0.0,0.0,0.0,0.0,0.0,0.0,0.0,0.0,0.0,0.0,0.0,0.0,0.0,0.0,0.0,0.0,0.0,0.0,0.0,0.0,0.0,0.0,0.0,0.0,0.0,0.0,0.0,0.0,0.0,0.0,-1.0723,-1.2782,-1.4224,-1.4163,-1.4466,-1.4663,-1.4663,-1.4384,-1.3322,-1.1232,0.0,0.0,0.0,0.0,0.0,0.0,0.0,0.0,0.0,0.0,0.0,0.0,0.0,0.0,0.0,0.0,0.0,0.0,0.0,0.0,0.0,0.0,0.0,0.0,0.0,0.0,0.0,0.0,0.0,0.0,0.0,0.0,0.0,0.0,0.0,0.0,0.0,0.0,0.0,0.0,0.0,0.0,0.0,0.0,0.0,0.0,0.0,0.0,0.0,0.0,0.0,0.0,0.0,0.0,0.0,0.0,0.0,0.0,0.0,0.0,0.0,0.0,0.0,0.0,0.0,0.0,0.0,0.0,0.0,0.0,0.0,0.0,0.0,0.0,0.0,0.0,0.0,0.0,0.0,0.0,0.0,0.0,0.0,0.0,0.0,0.0,0.0,0.0,0.0,0.0,0.0,0.0,0.0,0.0,0.0,0.0,0.0,0.0,0.0,0.0,0.0,0.0,-1.131,-1.3382,-1.4789,-1.4697,-1.4926,-1.5108,-1.5108,-1.5108,-1.4201,-1.2077,0.0,0.0,0.0,0.0,0.0,0.0,0.0,0.0,0.0,0.0,0.0,0.0,0.0,0.0,0.0,0.0,0.0,0.0,0.0,0.0,0.0,0.0,0.0,0.0,0.0,0.0,0.0,0.0,0.0,0.0,0.0,0.0,0.0,0.0,0.0,0.0,0.0,0.0,0.0,0.0,0.0,0.0,0.0,0.0,0.0,0.0,0.0,0.0,0.0,0.0,0.0,0.0,0.0,0.0,0.0,0.0,0.0,0.0,0.0,0.0,0.0,0.0,0.0,0.0,0.0,0.0,0.0,0.0,0.0,0.0,0.0,0.0,0.0,0.0,0.0,0.0,0.0,0.0,0.0,0.0,0.0,0.0,0.0,0.0,0.0,0.0,0.0,0.0,0.0,0.0,0.0,0.0,0.0,0.0,0.0,0.0,0.0,0.0,0.0,0.0,0.0,0.0,-1.2265,-1.411,-1.5278,-1.5131,-1.5108,-1.5108,-1.5108,-1.5108,-1.4488,-1.305,0.0,0.0,0.0,0.0,0.0,0.0,0.0,0.0,0.0,0.0,0.0,0.0,0.0,0.0,0.0,0.0,0.0,0.0,0.0,0.0,0.0,0.0,0.0,0.0,0.0,0.0,0.0,0.0,0.0,0.0,0.0,0.0,0.0,0.0,0.0,0.0,0.0,0.0,0.0,0.0,0.0,0.0,0.0,0.0,0.0,0.0,0.0,0.0,0.0,0.0,0.0,0.0,0.0,0.0,0.0,0.0,0.0,0.0,0.0,0.0,-0.9133,0.0,0.0,0.0,0.0,0.0,0.0,0.0,0.0,0.0,0.0,0.0,0.0,0.0,0.0,0.0,0.0,0.0,0.0,0.0,0.0,0.0,0.0,0.0,0.0,0.0,0.0,0.0,0.0,0.0,0.0,0.0,0.0,0.0,0.0,0.0,0.0,0.0,0.0,0.0,0.0,0.0,-1.2976,-1.4562,-1.5514,-1.5278,-1.5267,-1.521,-1.5108,-1.5108,-1.4637,-1.3521,-1.2498,0.0,0.0,0.0,0.0,0.0,0.0,0.0,0.0,0.0,0.0,0.0,0.0,0.0,0.0,0.0,0.0,0.0,0.0,0.0,0.0,0.0,0.0,0.0,0.0,0.0,0.0,0.0,0.0,0.0,0.0,0.0,0.0,0.0,0.0,0.0,0.0,0.0,0.0,0.0,0.0,0.0,0.0,0.0,0.0,0.0,0.0,0.0,0.0,0.0,0.0,0.0,0.0,0.0,0.0,0.0,0.0,0.0,0.0,0.0,0.0,-0.9492,0.0,0.0,0.0,0.0,0.0,0.0,0.0,0.0,0.0,0.0,0.0,0.0,0.0,0.0,0.0,0.0,0.0,0.0,0.0,0.0,0.0,0.0,0.0,0.0,0.0,0.0,0.0,0.0,0.0,0.0,0.0,0.0,0.0,0.0,0.0,0.0,0.0,0.0,0.0,0.0,-1.3179,-1.4696,-1.5626,-1.5413,-1.5345,-1.5255,-1.521,-1.5131,-1.4786,-1.4029,-1.3256,0.0,0.0,0.0,0.0,0.0,0.0,0.0,0.0,0.0,0.0,0.0,0.0,0.0,0.0,0.0,0.0,0.0,0.0,0.0,0.0,0.0,0.0,0.0,0.0,0.0,0.0,0.0,0.0,0.0,0.0,0.0,0.0,0.0,0.0,0.0,0.0,0.0,0.0,0.0,0.0,0.0,0.0,0.0,0.0,0.0,0.0,0.0,0.0,0.0,0.0,0.0,0.0,0.0,0.0,0.0,-1.2735,-1.2661,-1.2772,-1.2919,-1.1205,-1.0745,-1.1159,0.0,0.0,0.0,0.0,0.0,0.0,0.0,0.0,0.0,0.0,0.0,0.0,0.0,0.0,0.0,0.0,0.0,0.0,0.0,0.0,0.0,0.0,0.0,0.0,0.0,-1.1421,-1.1231,0.0,0.0,0.0,0.0,0.0,0.0,0.0,0.0,0.0,0.0,0.0,0.0,-1.3459,-1.4836,-1.5659,-1.5513,-1.539,-1.5335,-1.5312,-1.5187,-1.4936,-1.4589,-1.405,-1.3122,0.0,0.0,0.0,0.0,0.0,0.0,0.0,0.0,0.0,0.0,0.0,0.0,0.0,0.0,0.0,0.0,0.0,0.0,0.0,0.0,0.0,0.0,0.0,0.0,0.0,0.0,0.0,0.0,0.0,0.0,0.0,0.0,-0.7762,-0.8737,0.0,0.0,0.0,0.0,0.0,0.0,0.0,0.0,0.0,0.0,0.0,0.0,0.0,0.0,-1.2883,-1.3314,-1.3892,-1.4625,-1.4974,-1.5157,-1.5203,-1.4854,-1.4543,-1.4231,-1.3747,0.0,-1.2395,-1.1595,0.0,0.0,0.0,0.0,0.0,0.0,0.0,0.0,0.0,0.0,0.0,0.0,0.0,0.0,0.0,0.0,0.0,0.0,0.0,0.0,0.0,0.0,-1.2695,-1.2637,-1.2666,-1.2599,0.0,-1.1087,-1.0078,-0.9942,0.0,0.0,0.0,0.0,0.0,0.0,0.0,0.0,-1.4644,-1.5363,-1.5703,-1.5513,-1.5468,-1.5435,-1.5312,-1.5187,-1.5108,-1.5174,-1.4622,-1.3983,-1.3317,-1.1944,0.0,0.0,0.0,0.0,0.0,0.0,0.0,0.0,0.0,0.0,0.0,0.0,0.0,0.0,0.0,0.0,0.0,0.0,0.0,0.0,0.0,0.0,0.0,0.0,0.0,0.0,0.0,0.0,0.0,-0.7553,-0.8793,-0.9373,-0.9876,-1.004,0.0,0.0,0.0,0.0,0.0,0.0,0.0,0.0,0.0,-1.3661,-1.3994,-1.4399,-1.4926,-1.493,-1.5145,-1.5609,-1.5775,-1.5923,-1.5968,-1.5791,-1.5613,-1.5436,-1.5341,-1.505,-1.456,-1.3103,-1.2338,-1.2011,0.0,0.0,0.0,0.0,0.0,0.0,-1.158,0.0,0.0,0.0,0.0,0.0,0.0,0.0,0.0,0.0,0.0,0.0,0.0,0.0,0.0,-1.2905,-1.2905,-1.2881,-1.2832,-1.2252,-1.158,0.0,-1.1206,-1.1282,-1.0783,0.0,0.0,0.0,0.0,0.0,-1.4905,-1.5468,-1.5748,-1.5637,-1.5536,-1.5446,-1.5312,-1.5187,-1.5131,-1.5187,-1.4935,-1.4568,-1.4063,-1.311,-1.202,0.0,0.0,0.0,0.0,0.0,0.0,0.0,0.0,0.0,0.0,0.0,0.0,0.0,0.0,0.0,0.0,0.0,0.0,0.0,0.0,0.0,0.0,0.0,0.0,0.0,0.0,0.0,0.0,-0.8724,-0.971,-1.021,-1.092,-1.125,0.0,0.0,0.0,0.0,0.0,0.0,-1.3792,-1.4917,-1.5694,-1.6084,-1.6293,-1.6493,-1.6658,-1.6185,-1.6118,-1.6473,-1.6403,-1.6444,-1.6514,-1.6514,-1.6499,-1.6394,-1.6362,-1.6328,-1.6154,-1.4439,-1.3765,-1.376,-1.3342,-1.3178,0.0,-1.3555,-1.3636,-1.3636,-1.3636,-1.3636,-1.3506,-1.2553,0.0,-1.18,-1.1164,0.0,0.0,0.0,0.0,-1.2564,-1.2671,0.0,-1.3037,-1.3037,-1.2959,-1.2929,-1.3041,-1.3089,-1.2829,0.0,-1.2111,-1.2199,-1.1548,0.0,0.0,0.0,0.0,-1.4646,-1.5133,-1.5552,-1.577,-1.5715,-1.5614,-1.5503,-1.5345,-1.5233,-1.5153,-1.5153,-1.5108,-1.4947,-1.4591,-1.4075,-1.3337,-1.2314,0.0,0.0,0.0,0.0,0.0,0.0,0.0,0.0,0.0,0.0,0.0,0.0,0.0,0.0,0.0,0.0,0.0,0.0,0.0,0.0,0.0,0.0,0.0,0.0,0.0,0.0,0.0,0.0,0.0,-1.1675,-1.2163,0.0,0.0,0.0,0.0,-1.3443,-1.4832,-1.5968,-1.6643,-1.7351,-1.7795,-1.7968,-1.7328,-1.7266,-1.7895,-1.7011,-1.6934,-1.7707,-1.7524,-1.7438,-1.7438,-1.7438,-1.7229,-1.6859,-1.6817,-1.6645,-1.6398,-1.5335,-1.5002,-1.5032,-1.425,-1.3975,-1.4046,-1.4065,-1.4075,-1.4075,-1.4075,-1.4075,-1.4065,-1.3997,-1.3467,-1.2827,-1.2788,-1.2471,0.0,0.0,-1.3105,-1.351,-1.3909,-1.3734,-1.3477,-1.3477,-1.3174,-1.3017,-1.3478,-1.3573,-1.342,0.0,-1.3205,-1.3501,-1.3465,0.0,0.0,-1.4818,-1.4929,-1.5157,-1.5684,-1.578,-1.577,-1.5715,-1.5693,-1.5637,-1.5491,-1.5368,-1.5289,-1.5289,-1.5176,-1.5096,-1.5073,-1.4603,-1.3889,-1.2877,-1.1319,0.0,0.0,0.0,0.0,0.0,0.0,0.0,0.0,0.0,0.0,0.0,0.0,0.0,0.0,0.0,0.0,0.0,0.0,0.0,0.0,0.0,0.0,0.0,0.0,0.0,0.0,0.0,0.0,-1.222,-1.3506,0.0,0.0,-1.5277,-1.6082,-1.653,-1.7319,-1.799,-1.8527,-1.9383,-2.0007,-2.0418,-2.0048,-2.0095,-2.0698,-1.9899,-1.9706,-2.0116,-2.0031,-1.9665,-1.8976,-1.8976,-1.8482,-1.7615,-1.7581,-1.7528,-1.741,-1.6805,-1.6398,-1.6129,-1.5556,-1.5381,-1.5342,-1.5059,-1.4933,-1.4894,-1.4648,-1.4551,-1.4502,-1.4202,-1.3899,-1.3665,-1.3665,-1.3549,-1.3461,-1.3617,-1.3773,-1.3919,-1.4065,-1.4278,-1.4296,-1.3641,-1.3921,-1.4181,-1.3696,-1.3847,-1.4001,-1.3836,-1.4222,-1.4472,-1.4115,-1.4735,-1.519,-1.504,-1.5301,-1.5576,-1.5768,-1.5792,-1.577,-1.5715,-1.5693,-1.5604,-1.539,-1.5335,-1.5267,-1.5187,-1.5131,-1.497,-1.466,-1.4155,-1.3578,-1.2912,-1.1687,-1.0454,0.0,0.0,0.0,0.0,0.0,0.0,0.0,0.0,0.0,0.0,0.0,0.0,0.0,0.0,0.0,0.0,0.0,0.0,0.0,0.0,0.0,0.0,0.0,0.0,0.0,0.0,-1.2652,-1.3218,-1.4746,-1.5848,-1.6088,-1.7319,-1.8292,-1.8694,-1.9316,-1.9901,-2.0396,-2.1165,-2.1808,-2.2297,-2.195,-2.1947,-2.242,-2.1616,-2.1347,-2.158,-2.1252,-2.0737,-2.0014,-1.9581,-1.8953,-1.8178,-1.7998,-1.794,-1.7988,-1.7638,-1.7356,-1.7077,-1.6514,-1.6232,-1.6056,-1.5732,-1.5537,-1.5371,-1.5088,-1.5,-1.4951,-1.463,-1.4445,-1.4328,-1.4328,-1.4221,-1.4133,-1.428,-1.4328,-1.4358,-1.4504,-1.4715,-1.483,-1.4363,-1.4536,-1.4731,-1.443,-1.4471,-1.4605,-1.4789,-1.496,-1.4982,-1.4616,-1.5245,-1.5672,-1.5325,-1.5576,-1.5792,-1.5792,-1.5792,-1.577,-1.5738,-1.5738,-1.5649,-1.5447,-1.539,-1.53,-1.5187,-1.5131,-1.497,-1.4649,-1.4132,-1.3647,-1.3142,-1.21,-1.1062,-1.0068,0.0,0.0,0.0,0.0,0.0,0.0,0.0,0.0,0.0,0.0,0.0,0.0,0.0,0.0,0.0,0.0,0.0,0.0,0.0,0.0,0.0,0.0,0.0,-1.2275,-1.2909,-1.3762,-1.4735,-1.5887,-1.677,-1.7162,-1.8781,-1.9789,-1.98,-2.0837,-2.1704,-2.2209,-2.2727,-2.3179,-2.3528,-2.2832,-2.2581,-2.2831,-2.1941,-2.1659,-2.202,-2.1043,-2.0548,-2.0481,-1.9248,-1.8662,-1.8578,-1.7977,-1.7828,-1.7974,-1.7784,-1.7818,-1.793,-1.7048,-1.6484,-1.6134,-1.6124,-1.582,-1.5449,-1.5439,-1.543,-1.543,-1.5391,-1.5137,-1.4833,-1.4833,-1.4512,-1.4241,-1.4687,-1.4833,-1.4902,-1.5303,-1.5107,-1.499,-1.554,-1.4966,-1.4588,-1.5639,-1.5498,-1.5289,-1.5703,-1.5424,-1.5131,-1.5131,-1.5503,-1.5792,-1.5792,-1.5792,0.0,-1.5792,-1.5792,-1.5792,-1.5792,-1.5792,-1.577,-1.5693,-1.5558,-1.5424,-1.5312,-1.5176,-1.5096,-1.5085,-1.4626,-1.4109,-1.3601,-1.2624,-1.1647,-1.0677,0.0,0.0,0.0,0.0,0.0,0.0,0.0,0.0,0.0,0.0,0.0,0.0,0.0,0.0,0.0,0.0,0.0,0.0,0.0,0.0,0.0,0.0,-1.5063,-1.3965,-1.4856,-1.5718,-1.5992,-1.7672,-1.9032,-1.9527,-2.0752,-2.1663,-2.2063,-2.2747,-2.3216,-2.336,-2.3505,-2.3785,-2.4222,-2.4029,-2.3874,-2.3722,-2.3489,-2.3128,-2.2713,-2.2436,-2.1833,-2.0923,-2.058,-1.9741,-1.8598,-1.8401,-1.8212,-1.8008,-1.794,-1.794,-1.7959,-1.7412,-1.7129,-1.7014,-1.667,-1.6443,-1.6287,-1.5996,-1.5919,-1.586,-1.5508,-1.5332,-1.5244,-1.5244,-1.5128,-1.5059,-1.5205,-1.5244,-1.5264,-1.5381,-1.563,-1.5743,-1.5179,-1.5764,-1.622,-1.5421,-1.5739,-1.6111,-1.5842,-1.5703,-1.5614,-1.5614,-1.5703,-1.5792,-1.5792,0.0,0.0,-1.5792,-1.5792,-1.5792,-1.5792,-1.5792,-1.5726,-1.5558,-1.5513,-1.5401,0.0,-1.5108,-1.4947,-1.4603,-1.4107,-1.3601,-1.3096,-1.2808,-1.2544,0.0,0.0,0.0,0.0,0.0,0.0,0.0,0.0,0.0,0.0,0.0,0.0,0.0,0.0,0.0,0.0,0.0,0.0,0.0,0.0,0.0,0.0,-1.5728,-1.6905,-1.6655,-1.686,-1.721,-1.7656,-1.8561,-1.9678,-2.0951,-2.1678,-2.2428,-2.3268,-2.3625,-2.389,-2.4073,-2.4085,-2.4326,-2.4831,-2.4518,-2.426,-2.4108,-2.3781,-2.3427,-2.2995,-2.266,-2.2099,-2.1389,-2.0832,-2.0072,0.0,-1.8984,-1.8662,-1.8237,-1.8237,-1.813,0.0,0.0,0.0,0.0,0.0,-1.6697,-1.6668,-1.6436,-1.6251,-1.6056,-1.5762,-1.5557,-1.541,-1.541,-1.541,-1.541,-1.541,-1.541,-1.541,-1.541,-1.5661,-1.585,-1.5523,-1.5993,-1.6444,-1.6047,-1.6289,-1.6539,-1.6488,0.0,0.0,-1.6164,-1.5936,-1.5792,-1.5792,-1.5792,-1.5792,0.0,-1.5792,-1.5792,-1.5748,-1.5748,-1.5681,-1.5513,-1.5446,0.0,0.0,0.0,-1.489,-1.4408,-1.4098,0.0,0.0,0.0,0.0,0.0,0.0,0.0,0.0,-1.2222,-1.244,0.0,0.0,0.0,0.0,0.0,0.0,0.0,0.0,0.0,0.0,0.0,0.0,0.0,0.0,0.0,0.0,-1.7373,-1.8312,-1.9597,-1.8868,-1.8488,-1.93,-1.9126,-1.9716,-2.1724,-2.2083,-2.2647,-2.3775,-2.3838,-2.4032,-2.4441,0.0,0.0,0.0,0.0,-2.4011,-2.3854,-2.3206,-2.2809,-2.2734,-2.2021,-2.1652,-2.1631,-2.0498,-1.9961,-1.9893,-1.9521,-1.9082,-1.8598,-1.8598,-1.8354,-1.8008,-1.8008,-1.7783,-1.7402,-1.6989,-1.6843,0.0,0.0,0.0,0.0,-1.6105,-1.5762,-1.541,-1.541,-1.541,-1.541,-1.541,-1.541,-1.541,-1.541,-1.541,-1.5517,-1.6083,-1.5889,-1.5882,-1.698,-1.6888,-1.6758,-1.729,-1.7387,-1.7243,-1.6775,-1.6259,-1.5864,-1.5804,-1.5792,0.0,-1.5792,-1.5792,-1.577,-1.5715,0.0,0.0,-1.5491,-1.5368,-1.5289,-1.5289,-1.5165,-1.4913,-1.4488,-1.4465,-1.4465,-1.4465,-1.4465,-1.4683,-1.5108,-1.5108,-1.5108,-1.5062,-1.3279,-1.321,0.0,0.0,0.0,0.0,0.0,0.0,0.0,0.0,0.0,0.0,0.0,0.0,0.0,0.0,0.0,-1.7196,-1.9166,-2.0552,-2.038,-2.0398,-2.021,-1.9471,-2.1005,-2.2043,-2.1924,-2.3167,-2.4118,-2.4362,-2.4143,-2.4093,-2.4186,-2.4186,0.0,-2.3463,-2.3866,-2.3489,-2.2274,-2.2096,-2.1728,-2.1049,0.0,0.0,-2.0818,-2.0594,-2.0244,-1.9912,-1.9824,-1.9319,-1.8598,-1.8598,-1.8354,-1.8008,-1.8008,-1.7959,-1.7881,-1.7793,-1.7764,-1.7715,-1.7373,-1.6973,-1.6543,-1.6212,-1.5762,-1.541,-1.541,-1.541,0.0,-1.541,-1.541,-1.541,-1.541,-1.541,-1.5439,-1.5555,-1.5879,-1.6214,-1.6515,-1.6864,-1.721,-1.7373,-1.7387,-1.7363,-1.7255,-1.6799,-1.6307,-1.5886,-1.5792,-1.5792,-1.5792,-1.5792,-1.577,-1.5715,-1.5693,-1.5604,-1.5357,-1.5312,-1.5255,-1.5165,-1.5108,-1.5062,-1.497,-1.497,-1.497,-1.497,-1.497,-1.5016,-1.5108,-1.5108,-1.5108,-1.5096,-1.4706,-1.4913,0.0,0.0,0.0,0.0,0.0,0.0,0.0,0.0,0.0,0.0,0.0,-1.389,-1.5345,0.0,-1.8178,-1.885,-2.0323,-2.1398,-2.1374,-2.1529,-2.1432,-2.0853,-2.1466,-2.2194,-2.2791,-2.3542,-2.4235,-2.4856,-2.4621,-2.4462,-2.4462,-2.4254,-2.39,-2.3329,-2.328,-2.2863,-2.2118,-2.1507,-2.1092,-2.0898,-2.0713,-2.0605,-2.0605,-2.0605,-2.0488,-2.0244,-2.0244,-1.9873,-1.9202,-1.8773,-1.8354,-1.8008,-1.8008,-1.8008,-1.8008,-1.8008,-1.8008,-1.7978,-1.7773,-1.7412,-1.6982,-1.6543,-1.6103,-1.5693,-1.5478,-1.541,-1.541,-1.541,-1.541,-1.541,-1.541,-1.541,-1.541,-1.541,-1.5633,-1.5936,-1.629,-1.6814,-1.7341,-1.769,-1.7989,-1.8121,-1.7857,-1.7592,-1.7123,-1.6331,-1.6211,-1.6092,-1.5828,-1.5792,-1.577,-1.5715,-1.5637,-1.5525,-1.5312,-1.5233,-1.5176,-1.5108,-1.5108,-1.5108,-1.5108,-1.5108,-1.5108,-1.5108,-1.5108,-1.5108,-1.5108,-1.5372,-1.551,-1.5521,-1.5727,-1.5991,0.0,0.0,0.0,0.0,0.0,0.0,0.0,0.0,-1.2368,-1.381,-1.4492,-1.5498,-1.7717,-1.8456,-1.9188,-2.0454,-2.1258,-2.1861,-2.2282,-2.2342,-2.2342,-2.2342,-2.183,-2.1957,-2.3234,-2.3502,-2.3943,-2.4803,-2.4473,-2.4251,-2.434,-2.4039,-2.3656,-2.3271,-2.2791,-2.2446,-2.2288,-2.1342,-2.0957,-2.119,-2.0869,-2.0693,-2.0605,-2.0605,-2.0605,-2.0595,-2.0517,-2.0195,-1.9727,-1.8919,-1.8354,-1.8008,-1.8008,-1.8008,-1.8008,-1.8008,-1.8008,-1.8008,-1.8008,-1.7734,-1.7314,-1.6843,-1.6436,-1.6007,-1.5537,-1.541,-1.541,-1.541,-1.541,-1.541,-1.541,-1.541,-1.541,-1.541,-1.541,-1.5584,-1.6169,-1.6669,-1.723,-1.7957,-1.8483,-1.8723,-1.8396,-1.835,-1.8001,-1.6919,-1.6751,-1.6536,-1.5986,-1.5914,-1.5833,-1.5638,-1.5525,-1.5413,-1.5255,-1.5165,-1.5108,-1.5108,-1.5108,-1.5108,-1.5108,-1.5108,-1.5108,-1.5108,-1.5108,-1.5108,-1.5108,-1.5636,-1.59,-1.5923,-1.6497,-1.6773,-0.9524,-0.9864,-1.0332,-1.0732,-1.1154,-1.1741,0.0,0.0,-1.3585,-1.466,-1.5656,-1.6764,-1.8055,-1.9412,-2.0553,-2.1206,-2.2166,-2.2855,-2.2883,-2.2927,-2.2927,-2.2927,-2.3254,-2.3032,-2.1862,-2.3159,-2.3797,-2.3316,-2.2553,-2.2283,-2.2634,-2.2629,-2.243,-2.2116,-2.2686,-2.2686,-2.1971,-2.1799,-2.1572,-2.119,-2.1142,-2.0947,-2.0605,-2.0605,-2.0605,-2.0586,-2.0156,-1.9746,-1.9316,-1.8802,-1.8354,-1.8008,-1.8008,-1.8008,-1.8008,-1.8008,-1.8008,-1.8008,-1.8008,-1.7734,-1.7314,-1.6843,-1.6436,-1.6007,-1.5537,-1.541,-1.541,-1.541,-1.541,-1.541,-1.541,-1.541,-1.541,-1.541,-1.541,-1.5584,-1.6169,-1.6358,-1.6726,-1.7875,-1.8147,-1.8352,-1.8823,-1.8903,-1.8542,-1.7459,-1.7303,-1.7075,-1.6419,-1.6325,-1.6089,-1.5426,-1.5335,-1.5255,-1.5131,-1.5108,-1.5108,-1.5108,-1.5108,-1.5108,-1.5108,-1.5108,-1.5108,-1.5108,-1.5108,-1.5108,-1.5108,-1.5636,-1.5901,-1.5923,-1.6864,-1.7315,-1.0917,-1.1084,-1.1213,0.0,-1.2396,-1.2842,-1.3379,-1.3887,-1.4593,-1.5717,-1.6461,-1.7506,-1.9324,-2.0184,-2.0971,0.0,-2.2722,-2.3119,-2.3433,-2.3216,-2.2839,-2.2427,-2.2786,-2.3034,-2.2854,-2.4038,-2.4492,-2.372,-2.3357,-2.3079,-2.2823,-2.2796,-2.2641,-2.2256,-2.2572,-2.2572,-2.2246,-2.2012,-2.1914,-2.1931,-2.1434,-2.1093,-2.0947,-2.0723,-2.0605,-2.0595,-2.041,-2.0049,-1.9619,-1.9189,-1.8769,-1.8315,-1.8105,-1.8008,-1.8008,-1.8008,-1.8008,-1.8008,-1.8008,-1.79,-1.7676,-1.7246,-1.6816,-1.6367,-1.5928,-1.5615,-1.541,-1.541,-1.541,-1.541,-1.541,-1.541,-1.541,-1.541,-1.541,-1.5468,-1.5719,-1.633,-1.6978,-1.7479,-1.8147,-1.8709,-1.896,-1.8987,-1.8816,-1.8281,-1.8022,-1.7602,-1.6955,-1.6871,-1.6574,-1.5835,-1.5486,-1.5244,-1.5108,-1.5108,-1.5108,-1.5108,-1.5108,-1.5108,-1.5108,-1.5108,-1.5108,-1.5108,-1.5108,-1.5257,-1.5579,-1.6061,-1.6463,-1.6784,-1.7484,-1.7817,-1.1658,-1.1895,-1.2074,-1.2568,-1.3193,-1.3682,-1.3682,-1.4346,-1.5317,-1.6537,-1.6852,-1.765,-1.9975,-2.0359,-2.0813,-2.2226,-2.2701,-2.3003,-2.331,-2.3079,-2.2664,-2.2082,-2.2366,-2.281,-2.3301,-2.3956,-2.4011,-2.3195,-2.3298,-2.3208,-2.2798,-2.2856,-2.2838,-2.2685,-2.2685,-2.2685,-2.2685,-2.2383,-2.2324,-2.251,-2.1843,-2.1424,-2.1181,-2.0771,-2.0605,-2.0605,-2.0605,-2.0312,-1.9893,-1.959,-1.9131,-1.8568,-1.8266,-1.8115,-1.8008,-1.8008,-1.8008,-1.8008,-1.8008,-1.8008,-1.7939,-1.7519,-1.7168,-1.6775,-1.6271,-1.587,-1.5566,-1.5449,-1.541,-1.541,-1.541,-1.541,-1.541,-1.541,-1.541,-1.541,-1.541,-1.6083,-1.681,-1.7146,-1.7902,-1.8602,-1.8934,-1.8972,-1.8919,-1.8798,-1.8517,-1.8076,-1.7401,-1.7033,-1.6643,-1.6101,-1.5568,-1.521,-1.5108,-1.5108,-1.5154,-1.5315,-1.5326,-1.5395,-1.5521,-1.5395,-1.5326,-1.5315,-1.5315,-1.551,-1.5911,-1.6531,-1.7025,-1.7419,-1.7882,-1.8084,-1.1151,-1.1875,-1.2768,-1.233,-1.3168,-1.4085,-1.4085,-1.4747,-1.5728,-1.6929,-1.6743,-1.7045,-1.9381,-1.9771,-2.0005,-2.0903,-2.1918,-2.2514,-2.2292,-2.2441,-2.2525,-2.221,-2.2441,-2.2524,0.0,-2.2036,-2.1576,-2.075,-2.1066,-2.1476,-2.1906,-2.2295,-2.2672,-2.3062,-2.3081,-2.3081,-2.3081,-2.3062,-2.2857,-2.251,-2.248,-2.2041,-2.1181,-2.0771,-2.0605,-2.0605,-2.0605,-2.0312,-1.9912,-1.9902,-1.9358,-1.8598,-1.8588,-1.8334,-1.8008,-1.8008,-1.8008,-1.8008,-1.8008,-1.8008,-1.7939,-1.7519,-1.7406,-1.723,-1.6359,-1.6085,-1.5987,-1.5527,-1.541,-1.541,-1.541,-1.541,-1.541,-1.541,-1.541,-1.541,-1.541,-1.5439,-1.5806,-1.6978,-1.723,-1.7617,-1.8789,-1.8893,-1.8798,-1.8798,-1.8694,-1.836,-1.7673,-1.6631,-1.5923,-1.5911,-1.5429,-1.5108,-1.5108,-1.5108,-1.5326,-1.5854,-1.5889,-1.6071,-1.6541,-1.613,-1.5877,-1.589,-1.589,-1.5878,-1.5911,-1.6887,-1.7384,-1.7419,-1.7882,-1.8084,-1.2402,-1.2754,-1.2978,-1.3363,-1.4007,-1.4561,-1.4561,-1.5,-1.564,-1.6487,-1.6504,-1.6956,-1.8902,-1.9547,-2.0158,-2.1332,-2.2136,-2.2626,-2.2707,-2.2482,-2.2133,-2.1527,-2.152,0.0,0.0,0.0,0.0,-2.1461,-2.2067,-2.2281,-2.1916,-2.2549,-2.2945,-2.3091,-2.3091,-2.3091,-2.3091,-2.3091,-2.3023,-2.2877,-2.2646,-2.2019,-2.119,-2.1074,-2.084,-2.0605,-2.0605,-2.0517,-2.0322,-2.0029,-1.958,-1.9043,-1.8715,-1.8344,-1.8008,-1.8008,-1.8008,-1.8008,-1.8008,-1.8008,-1.7988,-1.7842,-1.7607,-1.7357,-1.7063,-1.6738,-1.6416,-1.5967,-1.587,-1.5781,-1.5488,-1.541,-1.541,-1.541,-1.541,-1.541,-1.541,-1.5719,-1.6255,-1.7034,-1.7534,-1.8011,-1.8732,-1.8825,-1.8744,-1.8556,-1.8503,-1.8379,-1.8162,-1.709,-1.6358,-1.6358,-1.5601,-1.5108,-1.5108,-1.5441,-1.5716,-1.59,-1.6186,-1.6426,-1.6587,-1.6449,-1.6346,-1.6371,-1.6371,-1.6543,-1.6913,-1.7235,-1.7553,-1.7859,-1.8031,-1.8084,-1.2978,-1.3193,-1.3271,-1.3938,-1.4463,-1.4813,-1.4813,-1.5,-1.5354,-1.6018,-1.5844,-1.6116,-1.7859,-1.8274,-1.8891,-2.0544,-2.1108,-2.1507,-2.2067,-2.1919,-2.1602,-2.1199,-2.1162,-2.1042,0.0,0.0,0.0,-2.1649,-2.2402,-2.2671,-2.2151,-2.2721,-2.3091,-2.3091,-2.3091,-2.3091,-2.3091,-2.3091,-2.3091,-2.3091,-2.2568,-2.2002,-2.1455,-2.1143,-2.084,-2.0605,-2.0605,-2.0605,-2.0586,-2.0264,-1.9893,-1.9473,-1.9033,-1.8568,-1.8213,-1.8066,-1.8008,-1.8008,-1.8008,-1.8008,-1.8008,-1.8008,-1.7832,-1.7578,-1.7432,-1.708,-1.6609,-1.6222,-1.5977,-1.5762,-1.5488,-1.541,-1.541,-1.541,-1.541,-1.541,-1.541,-1.569,-1.6226,-1.7034,-1.7479,-1.7941,-1.8679,-1.8718,-1.8583,-1.834,-1.8286,-1.8286,-1.8286,-1.7468,-1.6899,-1.6899,-1.6153,-1.5647,-1.5647,-1.5933,-1.6244,-1.6417,-1.6727,-1.6954,-1.7137,-1.6965,-1.6899,-1.6899,-1.6899,-1.706,-1.7407,-1.7565,-1.7817,-1.8084,-1.8084,-1.8084,-1.2954,-1.3252,-1.3646,-1.4065,-1.4512,-1.4842,-1.4785,-1.4813,-1.496,-1.5505,-1.4834,-1.4673,-1.6341,0.0,-1.6588,-1.8645,-1.9036,-1.9426,-2.0437,-2.0823,-2.1055,0.0,0.0,0.0,0.0,0.0,0.0,-2.1298,0.0,-2.251,-2.251,-2.2867,-2.3091,-2.3091,-2.3091,-2.3091,-2.3091,-2.3091,-2.3091,-2.3081,-2.2305,-2.1904,-2.1855,-2.1036,-2.0625,-2.0605,-2.0605,-2.0605,-2.0605,-2.0605,-2.0293,-1.9844,-1.9443,-1.9014,-1.852,-1.812,-1.8008,-1.8008,-1.8008,-1.8008,-1.8008,-1.8008,-1.8008,-1.7939,-1.7539,-1.7109,-1.6638,-1.6251,-1.5811,-1.5439,-1.542,-1.541,-1.541,-1.5381,-1.541,-1.541,-1.5381,-1.5381,-1.5748,-1.6922,-1.7073,-1.7401,-1.8572,-1.8556,-1.8313,-1.8139,-1.8084,-1.8084,-1.8084,-1.7691,-1.7407,-1.7407,-1.6922,-1.6598,-1.6598,-1.6621,-1.6864,-1.7373,-1.743,-1.7634,-1.8088,-1.7679,-1.7442,-1.7442,-1.7442,-1.7442,-1.7442,-1.7882,-1.8084,-1.8084,-1.8084,-1.8084,-1.3617,-1.4131,-1.4561,-1.498,-1.5166,-1.5176,-1.4863,-1.4813,-1.4765,-1.4614,-1.4683,-1.5035,-1.5953,-1.6828,0.0,-1.8423,-1.9362,0.0,-2.0526,-2.0909,0.0,-2.1691,0.0,-2.1835,-2.1906,-2.2168,0.0,0.0,-2.2393,-2.251,-2.251,-2.2867,-2.3091,-2.3091,-2.3091,-2.3091,-2.3091,-2.3091,-2.3091,-2.3091,-2.2607,-2.2187,-2.1865,-2.1318,-2.0879,-2.0605,-2.0605,-2.0605,-2.0605,-2.0605,-2.0165,-1.9434,-1.9326,-1.8828,-1.812,-1.8047,-1.8008,-1.8008,-1.8008,-1.8008,-1.8008,-1.8008,-1.8008,-1.7988,-1.7881,-1.7549,-1.7129,-1.6658,-1.624,-1.585,-1.5498,-1.541,-1.5362,-1.5264,-1.5332,-1.5362,-1.5137,-1.5176,-1.5459,-1.6093,-1.6821,-1.7556,-1.8356,-1.8313,-1.8166,-1.8111,-1.8084,-1.8084,-1.8084,-1.7691,-1.7407,-1.7407,-1.6922,-1.6598,-1.6598,-1.6968,-1.7243,-1.7396,-1.7737,-1.7974,-1.8111,-1.7985,-1.7917,-1.7917,-1.7917,-1.7917,-1.7917,-1.8054,-1.8084,-1.8084,-1.8084,-1.8084,-1.3929,-1.4453,-1.4893,-1.5312,-1.541,-1.5303,-1.4883,-1.4639,-1.4339,-1.3741,-1.3881,-1.4134,-1.429,-1.5252,0.0,0.0,0.0,0.0,-2.0183,-2.083,-2.1356,0.0,-2.2051,0.0,-2.2412,-2.2646,-2.274,0.0,-2.274,-2.274,-2.274,-2.2974,-2.3091,-2.3091,-2.3091,-2.3091,-2.3091,-2.3091,-2.3091,-2.3091,-2.2519,-2.2119,-2.1865,-2.123,-2.0801,-2.0605,0.0,-2.0605,-2.0605,-2.0605,-2.0204,-1.9541,-1.9365,-1.8877,-1.8227,-1.8076,-1.8008,-1.8008,-1.8008,-1.8008,-1.8008,-1.8008,-1.8008,-1.8008,-1.8008,-1.7715,-1.7367,-1.709,-1.6553,-1.6036,-1.5791,-1.5508,-1.5284,-1.5215,-1.5205,-1.5196,-1.5029,-1.5068,-1.5235,-1.5681,-1.6436,-1.7112,-1.7418,-1.7595,-1.7705,-1.7705,-1.7936,-1.8084,-1.8084,-1.7859,-1.7714,-1.7714,-1.7435,-1.7263,-1.7263,-1.7527,-1.7714,-1.7714,-1.7951,-1.8084,-1.8084,-1.8084,-1.8084,-1.8084,-1.8084,-1.8084,-1.8084,-1.8084,-1.8084,-1.8084,-1.8084,-1.8084,-1.4007,-1.4492,-1.4951,-1.5322,-1.5371,-1.5215,-1.4795,-1.4316,-1.3724,-1.2959,-1.2816,-1.2739,-1.2461,-1.305,-1.4178,-1.5907,0.0,-1.7978,-1.9678,-2.0635,-2.1375,-2.1914,-2.2344,-2.2744,-2.3062,-2.3091,-2.3091,-2.3091,-2.3091,-2.3091,-2.3091,-2.3091,-2.3091,-2.3091,-2.3091,-2.3091,-2.3091,-2.3091,-2.3091,-2.3081,-2.2285,-2.1885,-2.1855,-2.1006,-2.0605,-2.0605,0.0,0.0,-2.0605,-2.0605,-2.0273,-1.9795,-1.9434,-1.8984,-1.8481,-1.8144,-1.8008,-1.8008,-1.8008,-1.8008,-1.8008,-1.8008,-1.8008,-1.8008,-1.8008,-1.7715,-1.7383,-1.7383,-1.6748,-1.6064,-1.6064,-1.5603,-1.5156,-1.5147,-1.5059,-1.498,-1.4941,-1.4911,-1.5059,-1.5478,-1.6007,-1.634,-1.6312,-1.6726,-1.709,-1.709,-1.7584,-1.7975,-1.7975,-1.8057,-1.8084,-1.8084,-1.8084,-1.8084,-1.8084,-1.8084,-1.8084,-1.8084,-1.8084,-1.8084,-1.8084,-1.8084,-1.8084,-1.8084,-1.8084,-1.8084,-1.8084,-1.8084,-1.8084,-1.8084,-1.8084,-1.8084,-1.4085,-1.4679,-1.5322,-1.5391,-1.5146,-1.4775,-1.4319,-1.3652,0.0,0.0,-1.2371,-1.249,-1.2827,-1.3536,-1.4548,-1.5964,-1.6887,-1.7978,-1.9678,-2.0635,-2.1483,0.0,-2.273,-2.3013,-2.3091,0.0,0.0,0.0,0.0,0.0,-2.3091,-2.3091,-2.3091,-2.3091,-2.3091,-2.3091,-2.3091,-2.3091,-2.3091,-2.3081,-2.2285,-2.1885,-2.1855,-2.1006,-2.0605,-2.0605,0.0,0.0,-2.0605,-2.0605,-2.0145,-1.9394,-1.9316,-1.8809,-1.8115,-1.8037,-1.8008,-1.8008,-1.8008,-1.8008,-1.8008,-1.8008,-1.8008,-1.8008,-1.8008,-1.7715,-1.7383,-1.7383,-1.6653,-1.5861,-1.5861,-1.5463,-1.5,-1.4834,-1.4902,-1.4921,-1.4654,-1.4604,-1.4743,-1.5332,-1.5526,-1.5748,-1.6226,-1.6386,-1.6454,-1.6454,-1.6978,-1.7352,-1.7352,-1.7788,-1.8084,-1.8084,-1.8084,-1.8084,-1.8084,-1.8084,-1.8084,-1.8084,-1.8084,-1.8084,-1.8084,-1.8084,-1.8084,-1.8084,-1.8084,-1.8084,-1.8084,-1.8084,-1.8084,-1.8084,-1.8084,-1.8084,-1.4046,-1.4572,-1.5137,-1.5352,-1.5098,-1.4678,-1.4211,0.0,0.0,0.0,-1.192,-1.1933,-1.1902,-1.2806,0.0,-1.4653,-1.5683,-1.6953,-1.8682,-1.9826,-2.0957,-2.206,-2.2711,-2.3091,0.0,0.0,0.0,0.0,0.0,0.0,-2.3091,-2.3091,-2.3091,-2.3091,-2.3091,-2.3091,-2.3091,-2.3091,-2.3091,-2.3081,-2.2285,-2.1885,-2.1855,-2.1006,-2.0605,-2.0605,0.0,0.0,-2.0605,-2.0605,-2.0096,-1.9287,-1.9287,-1.8769,-1.8008,-1.8008,-1.8008,-1.8008,-1.8008,-1.8008,-1.8008,-1.8008,-1.8008,-1.8008,-1.8008,-1.7871,-1.7705,-1.7705,-1.7106,-1.6437,-1.6225,-1.5666,-1.5085,-1.4762,-1.4725,-1.4714,-1.4545,-1.4515,-1.4595,-1.4882,-1.4931,-1.502,-1.5303,-1.5633,-1.5825,-1.5825,-1.6368,-1.6838,-1.7174,-1.7462,-1.776,-1.8057,-1.8084,-1.8084,-1.8084,-1.8084,-1.8084,-1.8084,-1.8084,-1.8084,-1.8084,-1.8084,-1.8084,-1.8084,-1.8084,-1.8084,-1.8084,-1.8084,-1.8084,-1.8084,-1.8084,-1.8084,-1.3997,-1.4453,-1.4893,-1.5312,-1.5029,-1.4551,-1.4182,-1.334,0.0,-1.1743,-1.1459,-1.1261,-1.1074,-1.1917,-1.2856,0.0,-1.4561,-1.5918,-1.7754,-1.9111,-2.041,0.0,-2.2627,0.0,-2.3091,0.0,0.0,0.0,0.0,0.0,0.0,-2.3091,-2.3091,-2.3091,-2.3091,-2.3091,-2.3091,-2.3091,-2.3052,-2.2955,-2.2246,-2.1836,-2.1719,-2.0967,-2.0605,-2.0605,0.0,0.0,0.0,-2.0507,-2.0018,-1.9277,-1.9189,-1.8682,-1.8008,-1.8008,-1.8008,-1.8008,-1.8008,-1.8008,-1.8008,-1.8008,-1.8008,-1.8008,-1.8008,-1.7974,-1.794,-1.794,-1.7485,-1.6896,-1.6485,-1.5845,-1.5155,-1.4758,-1.4586,-1.4515,-1.4515,-1.4515,-1.4515,-1.4515,-1.4515,-1.4515,-1.4515,-1.4872,-1.5216,-1.5216,-1.5825,-1.6472,-1.695,-1.723,-1.7584,-1.8057,-1.8084,-1.8084,-1.8084,-1.8084,-1.8084,-1.8084,-1.8084,-1.8084,-1.8084,-1.8084,-1.8084,-1.8084,-1.8084,-1.8084,-1.8084,-1.8084,-1.8084,-1.8084,-1.8084,-1.8084,-1.3997,-1.4453,-1.4893,-1.5312,-1.4767,-1.4153,-1.4114,0.0,-1.1704,-1.1626,-1.0958,-1.0645,-1.141,-1.1645,-1.223,-1.3792,-1.4502,-1.5586,-1.7705,-1.9111,-2.041,-2.1728,0.0,0.0,-2.3091,0.0,0.0,0.0,0.0,0.0,0.0,-2.3091,-2.3091,-2.3091,-2.3091,-2.3091,-2.3091,-2.3091,-2.2906,-2.2568,-2.21,-2.168,-2.1239,-2.0791,-2.0605,-2.0605,0.0,0.0,0.0,-2.0137,-1.9707,-1.9248,-1.8812,-1.8383,-1.8008,-1.8008,-1.8008,-1.8008,-1.8008,-1.8008,-1.8008,-1.8008,-1.8008,-1.8008,-1.8008,-1.7862,-1.774,-1.774,-1.7216,-1.6543,-1.6141,-1.5594,-1.5032,-1.4607,-1.4506,-1.4515,-1.4515,-1.4515,-1.4515,-1.4515,-1.4515,-1.4515,-1.4515,-1.4545,-1.4595,-1.4595,-1.5546,-1.6312,-1.6397,-1.7335,-1.8057,-1.8084,-1.8084,-1.8084,-1.8084,-1.8084,-1.8084,-1.8084,-1.8084,-1.8084,-1.8084,-1.8084,-1.8084,-1.8084,-1.8084,-1.8084,-1.8084,-1.8084,-1.8084,-1.8084,-1.8084,-1.8084,-1.3929,-1.4231,-1.4523,-1.5234,-1.4738,-1.4104,-1.4104,-1.2803,-1.1606,-1.1606,-1.1105,-1.084,-1.1467,-1.1809,-1.2187,-1.2856,-1.335,-1.4209,-1.584,-1.6953,-1.8467,-2.085,-2.1621,0.0,0.0,0.0,0.0,0.0,0.0,0.0,0.0,0.0,-2.3091,-2.3091,-2.3091,-2.3091,-2.3091,-2.3091,-2.2886,-2.251,-2.209,-2.165,-2.1181,-2.0771,-2.0605,0.0,0.0,0.0,0.0,-2.0088,-1.9668,-1.9248,-1.8773,-1.8344,-1.8008,-1.8008,-1.8008,-1.8008,-1.8008,-1.8008,-1.7974,-1.7862,-1.7818,-1.7818,-1.7818,-1.775,-1.7672,-1.7588,-1.7269,-1.6818,-1.6174,-1.5355,-1.4708,-1.4552,-1.4515,-1.4515,-1.4515,-1.4515,-1.4515,-1.4515,-1.4515,-1.4515,-1.4515,-1.4515,-1.4625,-1.499,-1.5439,-1.6026,-1.6754,-1.7268,-1.7705,-1.8057,-1.8084,-1.8084,-1.8084,-1.8084,-1.8084,-1.8084,-1.8084,-1.8084,-1.8084,-1.8084,-1.8084,-1.8084,-1.8084,-1.8084,-1.8084,-1.8084,-1.8084,-1.8084,-1.8084,-1.8084,-1.3695,-1.3919,-1.4094,-1.4825,-1.4455,-1.3919,-1.3919,-1.2715,-1.1623,-1.1751,-1.1309,-1.1084,-1.1682,-1.2021,-1.2252,-1.2379,-1.2783,-1.3516,-1.4785,-1.586,-1.7416,0.0,0.0,0.0,0.0,0.0,0.0,0.0,0.0,0.0,0.0,0.0,-2.2964,-2.3091,-2.3091,-2.3091,-2.3091,-2.3091,-2.2818,-2.2324,-2.2031,-2.1592,-2.1025,-2.0752,-2.0605,0.0,0.0,0.0,0.0,-1.9837,-1.9409,-1.9053,-1.8543,-1.8193,-1.8008,-1.8008,-1.8008,-1.7974,-1.793,-1.7896,-1.7896,-1.7681,-1.7647,-1.7647,-1.7569,-1.7535,-1.7545,-1.7451,-1.7101,-1.6611,-1.59,-1.5121,-1.4515,-1.4515,-1.4515,-1.4515,-1.4515,-1.4515,-1.4515,-1.4515,-1.4515,-1.4515,-1.4515,-1.4515,-1.4654,-1.5079,-1.5303,-1.5719,-1.6557,-1.6978,-1.7352,-1.7788,-1.7815,-1.7909,-1.8084,-1.8084,-1.8084,-1.8084,-1.8084,-1.8084,-1.8084,-1.8084,-1.8084,-1.8084,-1.8084,-1.8084,-1.8084,-1.8084,-1.8084,-1.8084,-1.8084,-1.8084,-1.3281,-1.3516,-1.3588,-1.4016,-1.3802,-1.3516,-1.3516,-1.2524,-1.1712,-1.2106,-1.1502,-1.1182,-1.2038,-1.2203,-1.235,-1.2827,-1.3232,-1.3945,-1.5196,-1.6533,-1.7885,0.0,0.0,0.0,0.0,0.0,0.0,0.0,0.0,0.0,0.0,0.0,-2.2672,-2.3081,-2.3091,-2.3091,-2.3091,-2.3091,-2.2715,-2.1894,-2.1885,-2.1466,-2.0615,-2.0605,0.0,0.0,0.0,0.0,0.0,-1.9251,-1.8863,-1.8559,-1.7948,-1.7828,-1.8008,-1.8008,-1.8008,-1.7974,-1.7784,-1.7706,-1.7672,-1.7564,-1.7505,-1.7461,-1.7279,-1.7201,-1.7201,-1.7201,-1.6479,-1.5606,-1.5212,-1.4808,-1.4515,-1.4515,-1.4515,-1.4515,-1.4515,-1.4515,-1.4515,-1.4515,-1.4515,-1.4515,-1.4515,-1.4515,-1.4515,-1.4506,-1.502,-1.541,-1.541,-1.6472,-1.7202,-1.7202,-1.7202,-1.7462,-1.8057,-1.8084,-1.8084,-1.8084,-1.8084,-1.8084,-1.8084,-1.8084,-1.8084,-1.8084,-1.8084,-1.8084,-1.8084,-1.8084,-1.8084,-1.8084,-1.8084,-1.8084,-1.292,-1.3076,-1.3105,-1.3242,-1.3174,-1.3076,-1.3076,-1.2318,-1.1712,-1.2116,-1.1758,-1.1555,-1.2096,-1.2447,-1.2812,-1.3242,-1.3662,0.0,0.0,0.0,0.0,-1.9492,0.0,0.0,0.0,0.0,0.0,0.0,0.0,0.0,0.0,0.0,0.0,-2.2275,-2.2285,-2.2422,-2.2705,-2.2432,-2.2148,-2.1885,-2.1582,-2.1133,-2.0605,0.0,0.0,0.0,0.0,0.0,0.0,-1.9141,-1.88,-1.8402,-1.7879,-1.775,-1.7784,-1.7701,-1.7676,-1.7642,-1.7598,-1.7564,-1.752,-1.7348,-1.7279,-1.7245,-1.7072,-1.7107,-1.7166,-1.7038,-1.6388,-1.5661,-1.5533,-1.501,-1.4515,-1.4515,-1.4515,-1.4515,-1.4515,-1.4515,-1.4515,-1.4515,-1.4515,-1.4515,-1.4515,-1.4515,-1.4654,-1.5049,-1.5274,-1.5555,-1.5968,-1.6368,-1.6585,-1.6585,-1.6585,-1.6838,-1.7435,-1.749,-1.749,-1.749,-1.7881,-1.8084,-1.8084,-1.8084,-1.8084,-1.8084,-1.8084,-1.8084,-1.8084,-1.7705,-1.7268,-1.6877,-1.7296,-1.749,-1.2289,-1.2406,-1.2406,-1.2406,-1.2406,-1.2406,-1.2406,-1.1848,-1.1467,-1.1885,-1.178,-1.1721,-1.2125,-1.2588,-1.2993,-1.3232,-1.3623,0.0,0.0,0.0,0.0,0.0,0.0,0.0,0.0,0.0,0.0,0.0,0.0,0.0,0.0,0.0,0.0,-2.0432,-2.0763,-2.1044,-2.1296,-2.1053,-2.0847,-2.0647,-2.0608,-2.0389,-2.0001,0.0,0.0,0.0,0.0,0.0,0.0,-1.8754,-1.8416,-1.805,-1.7728,-1.7623,-1.7623,-1.7529,-1.7505,-1.7505,-1.7426,-1.7392,-1.7358,-1.7141,-1.7107,-1.7072,-1.6934,-1.7003,-1.7035,-1.6759,-1.6202,-1.5661,-1.5505,-1.4992,-1.4515,-1.4515,-1.4515,-1.4515,-1.4515,-1.4515,-1.4515,-1.4515,-1.4515,-1.4515,-1.4515,-1.4515,-1.4625,-1.499,-1.5049,-1.5186,-1.5575,-1.5835,-1.5968,-1.5968,-1.5968,-1.6112,-1.65,-1.6726,-1.6866,-1.6866,-1.7213,-1.7512,-1.776,-1.776,-1.7881,-1.8084,-1.8084,-1.8084,-1.8084,-1.7733,-1.7185,-1.651,-1.6978,-1.709,0.0,-1.1538,-1.1547,-1.1518,-1.1538,-1.1557,-1.1557,-1.1222,0.0,-1.1496,-1.1606,-1.1731,-1.2164,-1.2607,-1.2935,-1.3023,-1.334,0.0,0.0,-1.6103,0.0,0.0,0.0,0.0,0.0,0.0,0.0,0.0,0.0,0.0,0.0,0.0,0.0,0.0,-1.8632,-1.9093,-1.9246,-1.9178,-1.8955,-1.8545,-1.9165,-1.9246,-1.8877,0.0,0.0,0.0,0.0,0.0,0.0,-1.8237,-1.7839,-1.747,-1.747,-1.747,-1.747,-1.747,-1.747,-1.7436,-1.7245,-1.7166,-1.7132,-1.6968,-1.6908,-1.6908,-1.6908,-1.6908,-1.6826,-1.6398,-1.601,-1.5597,-1.5203,-1.4808,-1.4515,-1.4515,-1.4515,-1.4515,-1.4515,-1.4515,-1.4515,-1.4515,-1.4515,-1.4515,-1.4515,-1.4515,-1.4515,-1.4515,-1.4515,-1.4515,-1.4515,-1.499,-1.5323,-1.5323,-1.5323,-1.5323,-1.5323,-1.5882,-1.6255,-1.6255,-1.6283,-1.6557,-1.7118,-1.7146,-1.7407,-1.7963,-1.8002,-1.7963,-1.7854,-1.7947,-1.7512,-1.6595,-1.6922,-1.6782,-1.0577,0.0,-1.0986,-1.0684,-1.0841,-1.1064,0.0,-1.0977,-1.1035,-1.1496,-1.1606,-1.1819,-1.2612,-1.2837,-1.3228,-1.4206,0.0,0.0,0.0,0.0,0.0,0.0,0.0,0.0,0.0,0.0,0.0,0.0,0.0,0.0,0.0,0.0,0.0,0.0,-1.6342,-1.687,-1.854,-1.802,-1.7895,-1.8129,-1.7935,-1.7791,0.0,0.0,0.0,0.0,0.0,0.0,0.0,-1.7837,-1.7628,-1.7279,-1.7279,-1.7279,-1.7245,-1.7116,-1.7047,-1.7047,-1.6978,-1.6968,-1.6968,-1.6908,-1.6908,-1.6908,-1.6908,-1.6908,-1.6826,-1.6398,-1.601,-1.5597,-1.5203,-1.4808,-1.4515,-1.4515,-1.4515,-1.4515,-1.4515,-1.4515,-1.4515,-1.4515,-1.4515,-1.4515,-1.4515,-1.4515,-1.4515,-1.4515,-1.4515,-1.4515,-1.4515,-1.4625,-1.4704,-1.4704,-1.4704,-1.4704,-1.4704,-1.5274,-1.5604,-1.5604,-1.6054,-1.6358,-1.65,-1.65,-1.6585,-1.6708,-1.6961,-1.6613,-1.5661,-1.6358,-1.6026,-1.4677,-1.5555,-1.5718,-0.999,-1.0439,-1.085,-1.0625,-1.0742,-1.0908,-1.0908,-1.0762,-1.0742,-1.1193,-1.1438,-1.179,-1.2451,-1.291,-1.3398,0.0,-1.4687,0.0,0.0,0.0,0.0,0.0,0.0,0.0,0.0,0.0,0.0,0.0,0.0,0.0,0.0,0.0,0.0,0.0,0.0,-1.5698,-1.6943,-1.6415,-1.634,-1.6826,-1.6629,-1.6617,-1.6772,0.0,0.0,0.0,0.0,0.0,-1.7,-1.6973,-1.659,-1.6062,-1.6499,-1.6385,-1.6026,-1.6289,-1.6149,-1.5824,-1.5824,-1.6079,-1.6438,-1.6795,-1.6908,-1.6908,-1.6908,-1.678,-1.6587,-1.6343,-1.601,-1.5597,-1.5203,-1.4808,-1.4515,-1.4515,-1.4515,-1.4515,-1.4515,-1.4515,-1.4515,-1.4515,-1.4515,-1.4515,-1.4515,-1.4515,-1.4515,-1.4515,-1.4515,-1.4515,-1.4515,-1.4515,-1.4515,-1.4515,-1.4515,-1.4485,-1.4417,-1.4704,-1.4931,-1.499,-1.5245,-1.5517,-1.5767,-1.5699,-1.5786,-1.6073,-1.6244,-1.593,-1.5128,-1.5757,-1.5449,-1.424,-1.4952,-1.5002,-0.9698,-1.0332,-1.0996,-1.0928,-1.0957,-1.1006,-1.1006,-1.0732,-1.0596,-1.0937,-1.1379,-1.1819,-1.2223,-1.2954,0.0,0.0,0.0,0.0,0.0,0.0,0.0,0.0,0.0,0.0,0.0,0.0,0.0,0.0,0.0,0.0,0.0,0.0,0.0,0.0,0.0,0.0,-1.5267,-1.4887,-1.4908,-1.5298,-1.545,-1.5621,-1.5767,-1.5884,0.0,0.0,0.0,0.0,-1.6127,-1.5882,-1.5321,-1.4673,-1.5463,-1.5286,-1.4673,-1.5365,-1.5188,-1.4601,-1.4744,-1.5286,-1.6088,-1.6691,-1.6908,-1.6908,-1.6908,-1.6633,-1.6303,-1.6239,-1.5918,-1.5505,-1.5111,-1.4763,-1.4515,-1.4515,-1.4515,-1.4515,-1.4515,-1.4515,-1.4515,-1.4515,-1.4515,-1.4515,-1.4515,-1.4515,-1.4515,-1.4515,-1.4515,-1.4515,-1.4515,-1.4485,-1.4485,-1.4485,-1.4446,-1.4387,-1.4267,-1.4237,-1.4297,-1.4417,-1.4327,-1.4488,-1.5001,-1.4864,-1.5002,-1.5507,-1.5555,-1.5449,-1.5108,-1.5478,-1.5216,-1.435,-1.4658,-1.449,-1.0078,-1.0831,-1.1389,-1.1006,-1.1213,-1.1477,-1.1477,-1.1449,-1.142,-1.1467,-1.1816,-1.2256,-1.2695,-1.3184,-1.374,0.0,0.0,0.0,0.0,0.0,0.0,0.0,0.0,0.0,0.0,0.0,0.0,0.0,0.0,0.0,0.0,0.0,0.0,0.0,0.0,0.0,0.0,-1.4691,-1.4734,-1.4824,-1.465,-1.4511,-1.4342,-1.4852,-1.484,0.0,0.0,0.0,-1.486,-1.484,-1.4744,-1.4601,-1.4744,-1.4716,-1.4601,-1.4744,-1.4716,-1.4708,-1.5365,-1.6123,-1.676,-1.6874,-1.6908,-1.6908,-1.6908,-1.6633,-1.6248,-1.589,-1.5496,-1.5102,-1.4708,-1.4561,-1.4515,-1.4515,-1.4515,-1.4515,-1.4515,-1.4515,-1.4515,-1.4515,-1.4515,-1.4515,-1.4515,-1.4515,-1.4515,-1.4515,-1.4515,-1.4515,-1.4515,-1.4396,-1.4327,-1.4327,-1.4169,-1.407,-1.404,-1.404,-1.404,-1.407,-1.407,-1.41,-1.4189,-1.4151,-1.4121,-1.4121,-1.4499,-1.4401,-1.3773,-1.4647,-1.4549,-1.3662,-1.4091,-1.4031,-0.9455,-1.0371,-1.1188,-1.125,-1.179,-1.2299,-1.2299,-1.2299,-1.2299,-1.2299,-1.2441,-1.2715,0.0,0.0,-1.425,-1.5615,0.0,0.0,0.0,0.0,0.0,0.0,0.0,0.0,0.0,0.0,0.0,0.0,0.0,0.0,0.0,0.0,0.0,0.0,0.0,0.0,0.0,-1.4423,-1.4405,-1.4244,-1.3926,-1.373,-1.374,-1.4152,-1.4178,0.0,0.0,-1.4543,-1.3998,-1.3998,-1.3745,-1.3419,-1.3854,-1.3745,-1.3346,-1.3346,-1.3637,-1.4106,-1.4895,-1.5648,-1.6368,-1.676,-1.6908,-1.6908,-1.6908,-1.6468,-1.5936,-1.5744,-1.5404,-1.501,-1.4616,-1.4515,-1.4515,-1.4515,-1.4515,-1.4515,-1.4515,-1.4515,-1.4515,-1.4515,-1.4515,-1.4515,-1.4515,-1.4515,-1.4485,-1.4396,-1.4387,-1.4357,-1.4228,-1.4169,-1.4139,-1.4139,-1.407,-1.398,-1.389,-1.389,-1.389,-1.389,-1.389,-1.3851,-1.3731,-1.3731,-1.37,-1.364,-1.3842,-1.3812,-1.3511,-1.3923,-1.3932,-1.3511,-1.3731,-1.3722,-0.9133,-1.004,-1.095,-1.1582,-1.2328,-1.291,-1.3032,-1.3105,-1.3174,-1.3174,-1.3277,0.0,0.0,-1.4133,0.0,0.0,0.0,0.0,0.0,0.0,0.0,0.0,0.0,0.0,0.0,0.0,0.0,0.0,0.0,0.0,0.0,0.0,0.0,0.0,0.0,0.0,-1.3726,-1.391,-1.3985,-1.3909,-1.3476,-1.3317,-1.3425,-1.356,-1.3593,-1.3552,-1.3923,-1.3745,-1.3208,-1.3208,-1.2849,-1.2372,-1.2989,-1.2842,-1.2305,-1.2305,-1.2915,-1.3854,-1.4386,-1.5251,-1.6158,-1.6726,-1.6908,-1.689,-1.6798,-1.6266,-1.567,-1.5579,-1.5267,-1.4891,-1.4588,-1.4515,-1.4515,-1.4515,-1.4515,-1.4476,-1.4455,-1.4446,-1.4446,-1.4446,-1.4426,-1.4387,-1.4455,-1.4417,-1.4357,-1.4237,-1.4237,-1.4169,-1.401,-1.398,-1.395,-1.395,-1.392,-1.3851,-1.3731,-1.3731,-1.3731,-1.3731,-1.3731,-1.367,-1.3511,-1.3511,-1.3511,-1.3511,-1.3511,-1.3511,-1.3511,-1.3511,-1.3511,-1.3511,-1.3511,-1.3511,-0.9971,-1.0497,-1.1027,-1.1927,-1.2529,-1.3013,-1.3369,-1.3743,-1.4016,-1.4016,-1.4365,0.0,0.0,-1.5098,0.0,0.0,0.0,0.0,0.0,0.0,0.0,0.0,0.0,0.0,0.0,0.0,0.0,0.0,0.0,0.0,0.0,0.0,0.0,0.0,0.0,0.0,-1.3168,-1.3189,-1.3449,-1.3909,-1.362,-1.3358,-1.3123,-1.2943,-1.2705,-1.2405,-1.2452,-1.2445,-1.2372,-1.2372,-1.2342,-1.2305,-1.2372,-1.2342,-1.2305,-1.2305,-1.3237,-1.453,-1.4565,-1.5578,-1.683,-1.6874,-1.6908,-1.6835,-1.6477,-1.6046,-1.5615,-1.5249,-1.4854,-1.4552,-1.4515,-1.4515,-1.4515,-1.4515,-1.4515,-1.4485,-1.4327,-1.4297,-1.4297,-1.4297,-1.4169,-1.4109,-1.4267,-1.4169,-1.404,-1.401,-1.401,-1.401,-1.401,-1.389,-1.3799,-1.3799,-1.364,-1.3541,-1.3511,-1.3511,-1.3511,-1.3511,-1.3511,-1.3511,-1.3511,-1.3511,-1.3511,-1.3511,-1.3511,-1.3511,-1.3511,-1.3511,-1.3511,-1.3511,-1.3511,-1.3511,-0.953,-1.0021,-1.0466,-1.135,-1.211,-1.2859,-1.3688,-1.4406,-1.4903,-1.4903,-1.4983,0.0,0.0,0.0,0.0,0.0,0.0,0.0,0.0,0.0,0.0,0.0,0.0,0.0,0.0,0.0,0.0,0.0,0.0,0.0,0.0,0.0,0.0,0.0,0.0,0.0,0.0,-1.2804,-1.2902,-1.2903,-1.279,-1.2692,-1.2584,-1.2509,-1.2412,-1.2305,-1.2305,-1.2305,-1.2305,-1.2305,-1.2305,-1.2305,-1.2305,-1.2305,-1.2305,-1.2305,-1.2989,-1.3926,-1.3926,-1.4609,-1.5542,-1.6044,-1.6035,-1.5883,-1.6224,-1.5854,-1.5294,-1.5139,-1.4818,-1.4515,-1.4515,-1.4515,-1.4515,-1.4515,-1.4455,-1.4366,-1.4297,-1.4198,-1.4109,-1.4109,-1.404,-1.401,-1.4109,-1.404,-1.398,-1.389,-1.389,-1.383,-1.37,-1.364,-1.3601,-1.3601,-1.3541,-1.3511,-1.3511,-1.3511,-1.3511,-1.3511,-1.3511,-1.3511,-1.3511,-1.3511,-1.3511,-1.3511,-1.3511,-1.3511,-1.3511,-1.3511,-1.3511,-1.3511,-1.3511,-1.3511,-0.9449,-0.9961,-1.0465,-1.1208,-1.2035,-1.29,-1.378,-1.4683,-1.5362,-1.5507,-1.5457,-1.5134,-1.4363,0.0,0.0,0.0,0.0,0.0,0.0,0.0,0.0,0.0,0.0,0.0,0.0,0.0,0.0,0.0,0.0,0.0,0.0,0.0,0.0,0.0,0.0,0.0,0.0,-1.2543,-1.2543,-1.2305,-1.2305,-1.2305,-1.2305,-1.2305,-1.2305,-1.2305,-1.2305,-1.2305,-1.2305,-1.2305,-1.2305,-1.2305,-1.2305,-1.2305,-1.2305,-1.2305,-1.2813,-1.3499,-1.3499,-1.3998,-1.4692,-1.5126,-1.5239,-1.524,-1.553,-1.5373,-1.5074,-1.4955,-1.4687,-1.4455,-1.4455,-1.4485,-1.4485,-1.4455,-1.4366,-1.4267,-1.4169,-1.4019,-1.395,-1.395,-1.389,-1.3851,-1.392,-1.3881,-1.3821,-1.3731,-1.37,-1.367,-1.3511,-1.3511,-1.3511,-1.3511,-1.3511,-1.3511,-1.3511,-1.3511,-1.3511,-1.3511,-1.3511,-1.3511,-1.3511,-1.3511,-1.3511,-1.3511,-1.3511,-1.3511,-1.3511,-1.3511,-1.3511,-1.3511,-1.3511,-1.3511,-0.9961,-1.0524,-1.1204,-1.1672,-1.2446,-1.319,-1.3607,-1.4486,-1.5302,-1.5714,-1.58,-1.5739,-1.5607,0.0,0.0,0.0,0.0,0.0,0.0,0.0,0.0,0.0,0.0,0.0,0.0,0.0,0.0,0.0,0.0,0.0,0.0,0.0,0.0,0.0,0.0,0.0,0.0,-1.2305,-1.2305,-1.2305,-1.2305,-1.2305,-1.2305,-1.2305,-1.2305,-1.2305,-1.2305,-1.2305,-1.2305,-1.2305,-1.2298,-1.2291,-1.2298,-1.2291,-1.2291,-1.2291,-1.2799,-1.3484,-1.3484,-1.3947,-1.4538,-1.4266,-1.4643,-1.506,-1.4322,-1.4577,-1.501,-1.4625,-1.4396,-1.4297,-1.4297,-1.4396,-1.4455,-1.4336,-1.4297,-1.4207,-1.386,-1.3799,-1.3799,-1.3799,-1.364,-1.3571,-1.3761,-1.364,-1.3511,-1.3511,-1.3511,-1.3511,-1.3511,-1.3511,-1.3511,-1.3511,-1.3511,-1.3511,-1.3511,-1.3511,-1.3511,-1.3511,-1.3511,-1.3511,-1.3511,-1.3511,-1.3511,-1.3511,-1.3511,-1.3511,-1.3511,-1.3511,-1.3511,-1.3511,-1.3511,-1.3511,-0.9842,-1.0194,-1.0761,-1.175,-1.2413,-1.3004,-1.3682,-1.4487,-1.5143,-1.5461,-1.5576,-1.54,-1.4505,0.0,0.0,0.0,0.0,0.0,0.0,0.0,0.0,0.0,0.0,0.0,0.0,0.0,0.0,0.0,0.0,0.0,0.0,0.0,0.0,0.0,0.0,0.0,0.0,0.0,-1.2305,-1.2305,-1.2305,-1.2305,-1.2305,-1.2305,-1.2305,-1.2305,-1.2305,-1.2305,-1.2305,-1.2305,-1.2058,-1.1703,-1.1917,-1.187,-1.1683,-1.1683,-1.1823,-1.2026,-1.2026,-1.2165,-1.2491,-1.3455,-1.3726,-1.381,-1.4554,-1.4686,-1.4511,-1.4393,-1.4237,-1.4079,-1.4079,-1.4109,-1.4139,-1.4109,-1.4019,-1.392,-1.383,-1.37,-1.3601,-1.3601,-1.3541,-1.3511,-1.3571,-1.3541,-1.3511,-1.3511,-1.3511,-1.3511,-1.3511,-1.3511,-1.3511,-1.3511,-1.3511,-1.3511,-1.3511,-1.3511,-1.3511,-1.3511,-1.3511,-1.3511,-1.3511,-1.3511,-1.3511,-1.3511,-1.3511,-1.3511,-1.3511,-1.3511,-1.3511,-1.3511,-1.3511,-1.3511,-1.0178,-1.0619,-1.1228,-1.211,-1.2643,-1.3157,-1.3947,0.0,0.0,0.0,-1.5576,-1.5195,-1.4114,0.0,0.0,0.0,0.0,0.0,0.0,0.0,0.0,0.0,0.0,0.0,0.0,0.0,0.0,0.0,0.0,0.0,0.0,0.0,0.0,0.0,0.0,0.0,0.0,0.0,0.0,-1.2305,-1.2184,-1.2131,-1.2131,-1.2245,-1.2305,-1.2291,-1.2178,-1.2131,-1.2124,-1.2004,-1.1744,-1.1409,-1.1623,-1.1583,-1.1389,-1.1389,-1.1389,-1.1389,-1.1389,-1.1389,-1.1574,-1.2624,-1.2992,-1.3172,-1.4113,-1.4357,-1.4267,-1.4198,-1.4049,-1.392,-1.392,-1.3851,-1.3821,-1.389,-1.386,-1.3769,-1.37,-1.3601,-1.3511,-1.3511,-1.3511,-1.3511,-1.3511,-1.3511,-1.3511,-1.3511,-1.3511,-1.3511,-1.3511,-1.3511,-1.3511,-1.3511,-1.3511,-1.3511,-1.3511,-1.3511,-1.3511,-1.3511,-1.3511,-1.3511,-1.3511,-1.3511,-1.3511,-1.3511,-1.3511,-1.3511,-1.3511,-1.3511,-1.3511,-1.3511,-1.3511,-1.3511,-1.0754,-1.143,-1.2156,-1.2634,-1.3093,0.0,-1.4341,-1.4932,-1.5417,-1.5778,0.0,-1.5059,0.0,0.0,0.0,0.0,0.0,0.0,0.0,0.0,0.0,0.0,0.0,0.0,0.0,0.0,0.0,0.0,0.0,0.0,0.0,0.0,0.0,0.0,0.0,0.0,0.0,0.0,0.0,0.0,-1.2033,-1.1893,-1.1873,-1.2104,-1.2225,-1.2204,-1.1944,-1.1852,-1.1806,-1.1523,-1.1362,-1.1315,-1.1342,-1.1335,-1.1349,-1.1349,-1.1349,-1.1349,-1.1349,-1.1349,-1.1404,-1.1793,-1.2396,-1.2965,-1.3116,-1.367,-1.4207,-1.395,-1.383,-1.3769,-1.3769,-1.364,-1.3541,-1.3731,-1.3769,-1.3731,-1.3541,-1.3511,-1.3511,-1.3511,-1.3511,-1.3511,-1.3511,-1.3511,-1.3511,-1.3511,-1.3511,-1.3511,-1.3511,-1.3511,-1.3511,-1.3511,-1.3511,-1.3511,-1.3511,-1.3511,-1.3511,-1.3511,-1.3511,-1.3511,-1.3511,-1.3511,-1.3511,-1.3511,-1.3511,-1.3511,-1.3511,-1.3511,-1.3511,-1.3511,-1.3511,-1.3511,-1.0413,-1.1017,-1.1889,-1.2901,-1.3708,-1.4295,-1.4469,-1.4609,-1.4722,-1.4814,-1.4759,0.0,0.0,0.0,0.0,0.0,0.0,0.0,0.0,0.0,0.0,0.0,0.0,0.0,0.0,0.0,0.0,0.0,0.0,0.0,0.0,0.0,0.0,0.0,0.0,0.0,-1.2305,-1.2305,-1.2184,0.0,-1.1933,-1.175,-1.1523,-1.159,-1.1582,-1.1575,-1.155,-1.139,-1.1196,-1.1322,-1.1156,-1.0801,-1.0995,-1.0949,-1.078,-1.078,-1.078,-1.078,-1.078,-1.078,-1.0863,-1.1298,-1.1907,-1.2422,-1.232,-1.3039,-1.3799,-1.323,-1.329,-1.3571,-1.3571,-1.3541,-1.3511,-1.3541,-1.3571,-1.3541,-1.3511,-1.3511,-1.3511,-1.3511,-1.3511,-1.3511,-1.3511,-1.3511,-1.3511,-1.3511,-1.3511,-1.3511,-1.3511,-1.3511,-1.3511,-1.3511,-1.3511,-1.3511,-1.3511,-1.3511,-1.3511,-1.3511,-1.3511,-1.3511,-1.3511,-1.3511,-1.3511,-1.3511,-1.3511,-1.3511,-1.3511,-1.3511,-1.3511,-1.3511,-1.3511,-1.3511,-1.0385,-1.0879,-1.155,-1.2938,0.0,-1.4268,-1.4469,-1.4515,-1.4515,-1.4515,0.0,0.0,0.0,0.0,0.0,0.0,0.0,0.0,0.0,0.0,0.0,0.0,0.0,0.0,0.0,0.0,0.0,0.0,0.0,0.0,0.0,0.0,0.0,0.0,0.0,0.0,-1.1884,-1.1884,-1.1804,-1.1657,-1.1516,-1.1296,-1.1022,-1.1262,-1.1389,-1.1382,-1.1242,-1.1136,-1.0995,-1.1009,-1.0835,-1.0606,-1.076,-1.0727,-1.0593,-1.0593,-1.0593,-1.0593,-1.0593,-1.053,-1.0555,-1.1122,-1.1483,-1.1717,-1.1865,-1.2581,-1.3169,-1.2389,-1.2826,-1.342,-1.31,-1.326,-1.3511,-1.3511,-1.3511,-1.3511,-1.3511,-1.3511,-1.3511,-1.3511,-1.3511,-1.3511,-1.3511,-1.3511,-1.3511,-1.3511,-1.3511,-1.3511,-1.3511,-1.3511,-1.3511,-1.3511,-1.3511,-1.3511,-1.3511,-1.3511,-1.3511,-1.3511,-1.3511,-1.3511,-1.3511,-1.3511,-1.3511,-1.3511,-1.3511,-1.3511,-1.3511,-1.3511,-1.3511,-1.3511,-1.3511,-1.3511,-1.0211,-1.08,-1.1366,-1.2928,-1.3589,0.0,-1.4414,-1.4515,-1.4476,0.0,0.0,0.0,0.0,0.0,0.0,0.0,0.0,0.0,0.0,0.0,0.0,0.0,0.0,0.0,0.0,0.0,0.0,0.0,0.0,0.0,0.0,0.0,0.0,0.0,0.0,-1.1389,-1.1389,-1.1389,-1.1369,-1.1349,-1.1056,-1.0821,-1.0613,-1.1056,-1.1242,-1.1263,-1.1022,-1.0915,-1.0902,-1.0661,-1.0561,-1.053,-1.0498,-1.053,-1.0561,-1.0561,-1.0561,-1.0593,-1.0561,-1.0428,-1.0364,-1.087,-1.1007,-1.1024,-1.1305,-1.1958,-1.2389,-1.1547,-1.2297,-1.3199,-1.2634,-1.3009,-1.3511,-1.3511,-1.3511,-1.3511,-1.3511,-1.3511,-1.3511,-1.3511,-1.3511,-1.3511,-1.3511,-1.3511,-1.3511,-1.3511,-1.3511,-1.3511,-1.3511,-1.3511,-1.3511,-1.3511,-1.3511,-1.3511,-1.3511,-1.3511,-1.3511,-1.3511,-1.3511,-1.3511,-1.3511,-1.3511,-1.3511,-1.3511,-1.3511,-1.3511,-1.3511,-1.3511,-1.3511,-1.3511,-1.3511,-1.3511,-0.9179,0.0,-1.1733,0.0,-1.3589,-1.4021,0.0,0.0,-1.4327,0.0,0.0,0.0,0.0,0.0,0.0,0.0,0.0,0.0,0.0,0.0,0.0,0.0,0.0,0.0,0.0,0.0,0.0,0.0,0.0,0.0,0.0,0.0,-1.1169,-1.1382,-1.1389,0.0,-1.1389,-1.1389,-1.1262,-1.1049,-1.0787,-1.0626,-1.0593,-1.0673,-1.0707,-1.0707,-1.0667,-1.0646,-1.0646,-1.0416,-1.0339,-1.0333,-1.0142,-1.018,-1.0339,-1.0339,-1.0466,-1.0593,-1.0403,-1.0333,-1.0269,-1.0085,-1.0396,-1.0706,-1.0015,-1.0692,-1.1516,-1.0818,-1.1593,-1.2604,-1.2512,-1.3009,-1.3511,-1.3511,-1.3511,-1.3511,-1.3511,-1.3511,-1.3511,-1.3511,-1.3511,-1.3511,-1.3511,-1.3511,-1.3511,-1.3511,-1.3511,-1.3511,-1.3511,-1.3511,-1.3511,-1.3511,-1.3511,-1.3511,-1.3511,-1.3511,-1.3511,-1.3511,-1.3511,-1.3511,-1.3511,-1.3511,-1.3511,-1.3511,-1.3511,-1.3511,-1.3511,-1.3511,-1.3511,-1.3511,-1.3511,-1.3511,-0.9124,-1.0272,-1.1448,0.0,-1.3102,-1.3396,-1.4011,0.0,0.0,0.0,0.0,0.0,0.0,0.0,0.0,0.0,0.0,0.0,0.0,0.0,0.0,0.0,0.0,0.0,0.0,0.0,0.0,0.0,0.0,0.0,0.0,-1.0787,-1.0841,-1.0935,-1.0942,0.0,-1.0942,-1.0942,-1.0875,-1.078,-1.0653,-1.053,-1.0434,-1.0434,-1.0498,-1.0593,-1.0466,-1.0434,-1.0434,-1.0206,-1.0206,-1.0301,-1.0206,-1.0212,-1.0301,-1.0301,-1.0276,-1.0244,-1.0149,-1.0085,-0.9989,-0.9836,-0.9926,-0.9989,-0.9612,-1.0168,-1.0881,-1.0579,-1.1469,-1.2512,-1.2512,-1.3009,-1.3511,-1.3511,-1.3511,-1.3511,-1.3511,-1.3511,-1.3511,-1.3511,-1.3511,-1.3511,-1.3511,-1.3511,-1.3511,-1.3511,-1.3511,-1.3511,-1.3511,-1.3511,-1.3511,-1.3511,-1.3511,-1.3511,-1.3511,-1.3511,-1.3511,-1.3511,-1.3511,-1.3511,-1.3511,-1.3511,-1.3511,-1.3511,-1.3511,-1.3511,-1.3511,-1.3511,-1.3511,-1.3511,-1.3511,-1.3511,-0.8995,0.0,-1.0763,-1.2064,-1.2468,-1.2753,0.0,0.0,0.0,0.0,0.0,0.0,0.0,0.0,0.0,0.0,0.0,0.0,0.0,0.0,0.0,0.0,0.0,0.0,0.0,0.0,0.0,0.0,0.0,0.0,-1.0593,-1.0593,-1.0593,-1.0593,-1.0593,-1.0593,-1.0593,-1.0593,-1.0593,-1.0593,-1.0593,-1.053,-1.0371,-1.0333,-1.0364,-1.0498,-1.0308,-1.0212,-1.0206,-1.0021,-1.0053,-1.0212,-1.0149,-1.0149,-1.0212,-1.018,-1.011,-0.9983,-0.9958,-0.9894,-0.9804,-0.974,-0.9612,-0.9516,-0.9516,-0.9862,-1.0269,-1.0453,-1.1344,-1.2297,-1.2451,-1.3009,-1.3511,-1.3511,-1.3511,-1.3511,-1.3511,-1.3511,-1.3511,-1.3511,-1.3511,-1.3511,-1.3511,-1.3511,-1.3511,-1.3511,-1.3511,-1.3511,-1.3511,-1.3511,-1.3511,-1.3511,-1.3511,-1.3511,-1.3511,-1.3511,-1.3511,-1.3511,-1.3511,-1.3411,-1.326,-1.342,-1.339,-1.3117,-1.3169,-1.329,-1.3511,-1.342,-1.3329,-1.326,-1.326,-1.3161,0.0,-0.8866,0.0,-1.1173,-1.1853,-1.2349,0.0,0.0,0.0,0.0,0.0,0.0,0.0,0.0,0.0,0.0,0.0,0.0,0.0,0.0,0.0,0.0,0.0,0.0,0.0,0.0,0.0,0.0,0.0,0.0,-1.0593,-1.0593,-1.0593,-1.0593,-1.0593,-1.0593,-1.0593,-1.0593,-1.0593,-1.0593,-1.0593,-1.0593,-1.0593,-1.0403,-1.0308,-1.0301,-1.011,-1.0015,-0.9983,-0.9862,-0.9894,-0.9989,-0.967,-0.9734,-0.9983,-0.9868,-0.9894,-0.9983,-0.9862,-0.9804,-0.9772,-0.958,-0.9516,-0.9516,-0.9516,-0.9516,-0.967,-1.0326,-1.1,-1.1703,-1.232,-1.3009,-1.3511,-1.3511,-1.3511,-1.3511,-1.3511,-1.3511,-1.3511,-1.3511,-1.3511,-1.3511,-1.3511,-1.3511,-1.3511,-1.3511,-1.3511,-1.3511,-1.3511,-1.3511,-1.3511,-1.3511,-1.3511,-1.3511,-1.3511,-1.3511,-1.3511,-1.3511,-1.3511,-1.3221,-1.2573,-1.3169,-1.3047,-1.2104,-1.2274,-1.2734,-1.3511,-1.3186,-1.285,-1.2543,-1.2543,-1.2197,-0.8324,0.0,0.0,-1.0426,-1.0981,-1.1437,0.0,0.0,0.0,0.0,0.0,0.0,0.0,0.0,0.0,0.0,0.0,0.0,0.0,0.0,0.0,0.0,0.0,0.0,0.0,0.0,0.0,0.0,0.0,0.0,-1.0593,-1.0593,-1.0593,-1.0593,-1.0136,-0.9907,-0.9907,-1.0364,-1.0593,-1.0593,-1.0593,-1.0466,-1.0206,-1.0142,-0.9989,-0.9798,-0.9702,-0.9766,-0.9862,-0.9676,-0.9702,-0.9862,-0.974,-0.9772,-0.9862,-0.9804,-0.974,-0.967,-0.9612,-0.9612,-0.958,-0.9516,-0.9516,-0.9516,-0.9516,-0.9516,-0.9734,-1.0843,-1.1298,-1.1764,-1.2856,-1.3321,-1.3511,-1.3511,-1.3511,-1.3511,-1.3511,-1.3511,-1.3511,-1.3511,-1.3511,-1.3511,-1.3511,-1.3511,-1.3511,-1.3511,-1.3511,-1.3511,-1.3511,-1.3511,-1.3511,-1.3511,-1.3511,-1.3511,-1.3511,-1.3511,-1.3511,-1.3511,-1.3009,-1.2604,-1.2389,-1.2074,-1.1734,-1.1368,-1.1205,-1.1547,-1.242,-1.1927,-1.1648,-1.1547,-1.1547,-1.1485,-0.799,0.0,0.0,0.0,0.0,-1.0316,0.0,0.0,0.0,0.0,0.0,0.0,0.0,0.0,0.0,0.0,0.0,0.0,0.0,0.0,0.0,0.0,0.0,0.0,0.0,0.0,0.0,0.0,0.0,0.0,-1.0305,-1.0392,-1.0299,-1.0008,-0.9723,-0.9476,-0.9277,-1.0043,-1.0414,-1.0383,-1.0383,-1.0195,-0.9882,-0.9844,-0.9687,-0.9472,-0.9506,-0.958,-0.9676,-0.9548,-0.9612,-0.9804,-0.974,-0.974,-0.9804,-0.9708,-0.9612,-0.9516,-0.9516,-0.9516,-0.9516,-0.9516,-0.9516,-0.9516,-0.9516,-0.9516,-0.9734,-1.0843,-1.1337,-1.1764,-1.2879,-1.3321,-1.3442,-1.323,-1.3161,-1.3161,-1.3161,-1.3351,-1.3511,-1.3511,-1.3511,-1.3511,-1.3511,-1.3511,-1.3511,-1.3511,-1.3511,-1.3511,-1.3511,-1.3511,-1.3511,-1.3511,-1.3511,-1.342,-1.3169,-1.3161,-1.3039,-1.2787,-1.2266,-1.1826,-1.1547,-1.1205,-1.0829,-1.0483,-1.0332,-1.049,-1.0961,-1.086,-1.0766,-1.0672,-1.0672,-1.0735,0.0,0.0,0.0,0.0,0.0,0.0,0.0,0.0,0.0,0.0,0.0,0.0,0.0,0.0,0.0,0.0,0.0,0.0,0.0,0.0,0.0,0.0,0.0,0.0,0.0,0.0,0.0,0.0,0.0,-1.0318,-0.9742,-0.9953,-0.9691,-0.8815,-0.9382,-0.9411,-0.8803,-0.9654,-1.0016,-0.9871,-0.9871,-0.981,-0.9664,-0.9492,-0.9395,-0.9389,-0.9447,-0.9478,-0.9516,-0.9516,-0.9612,-0.9772,-0.958,-0.9612,-0.9772,-0.958,-0.9516,-0.9516,-0.9516,-0.9516,-0.9516,-0.9516,-0.9516,-0.9516,-0.9516,-0.9516,-0.9638,-1.0301,-1.0968,-1.1602,-1.2289,-1.2948,-1.329,-1.2634,-1.2473,-1.2473,-1.2473,-1.2978,-1.345,-1.3472,-1.3472,-1.348,-1.3511,-1.348,-1.348,-1.3511,-1.348,-1.3472,-1.3472,-1.345,-1.345,-1.3472,-1.345,-1.3169,-1.2543,-1.2481,-1.2135,-1.1329,-1.1267,-1.0892,-1.0015,-1.0577,-1.0483,-0.9486,-0.9646,-0.962,-0.9274,-1.0047,-1.0268,-0.9958,-0.9958,-0.9952,-0.7284,0.0,0.0,0.0,0.0,0.0,0.0,0.0,0.0,0.0,0.0,0.0,0.0,0.0,0.0,0.0,0.0,0.0,0.0,0.0,0.0,0.0,0.0,0.0,0.0,0.0,0.0,0.0,0.0,-0.9883,-0.9722,-0.976,-0.946,-0.8669,-0.9324,-0.9324,-0.8528,-0.929,-0.96,-0.9469,-0.9469,-0.9358,-0.918,-0.9145,-0.9131,-0.9193,-0.921,-0.933,-0.9516,-0.9516,-0.9548,-0.958,-0.9516,-0.9548,-0.958,-0.9516,-0.9516,-0.9516,-0.9516,-0.9516,-0.9516,-0.9516,-0.9516,-0.9516,-0.9516,-0.9516,-0.9638,-1.0301,-1.0636,-1.0944,-1.1609,-1.1912,-1.2012,-1.1826,-1.1795,-1.1795,-1.1795,-1.1919,-1.2197,-1.2665,-1.2787,-1.2917,-1.3411,-1.31,-1.2948,-1.342,-1.31,-1.2787,-1.2787,-1.2351,-1.2228,-1.2726,-1.2351,-1.2135,-1.2328,-1.1919,-1.1485,-1.1111,-1.0553,-1.0117,-0.9869,-0.9422,-0.9049,-0.8765,-0.8829,-0.8797,-0.8738,-0.8952,-0.9017,-0.892,-0.9049,-0.9145,-0.7894,-0.8245,-0.874,0.0,0.0,0.0,0.0,0.0,0.0,0.0,0.0,0.0,0.0,0.0,0.0,0.0,0.0,0.0,0.0,0.0,0.0,0.0,0.0,0.0,0.0,0.0,0.0,0.0,-0.9361,-0.9575,-0.9506,-0.9385,-0.8998,-0.8339,-0.8907,-0.8886,-0.8119,-0.8836,-0.915,-0.9001,-0.8765,-0.8651,-0.8685,-0.8484,-0.8504,-0.8782,-0.9005,-0.9191,-0.9354,-0.9468,-0.9516,-0.9516,-0.9516,-0.9516,-0.9516,-0.9516,-0.9516,-0.9516,-0.9516,-0.9516,-0.9516,-0.9516,-0.9516,-0.9516,-0.9516,-0.9516,-0.958,-0.9983,-1.0269,-1.0579,-1.0968,-1.1298,-1.1423,-1.1149,-1.1094,-1.1094,-1.1094,-1.1094,-1.1368,-1.2328,-1.2258,-1.2289,-1.2978,-1.2543,-1.2228,-1.2604,-1.232,-1.2074,-1.2074,-1.1703,-1.1578,-1.195,-1.1571,-1.1298,-1.1329,-1.0986,-1.0546,-1.011,-0.9646,-0.9338,-0.9274,-0.877,-0.8517,-0.8517,-0.8517,-0.8517,-0.8517,-0.8517,-0.8517,-0.8517,-0.8608,-0.8673,-0.8783,-0.8926,-0.9134,-0.8861,0.0,0.0,-0.777,-0.7361,0.0,0.0,0.0,0.0,0.0,0.0,0.0,0.0,0.0,0.0,0.0,0.0,0.0,0.0,0.0,0.0,0.0,0.0,0.0,-0.8593,-0.9062,-0.9308,-0.9122,-0.8891,-0.8507,-0.7984,-0.8355,-0.8282,-0.767,-0.8309,-0.8543,-0.8321,-0.7779,-0.7723,-0.8048,-0.765,-0.7695,-0.814,-0.8747,-0.9016,-0.9027,-0.9334,-0.9486,-0.9516,-0.9516,-0.9516,-0.9516,-0.9516,-0.9516,-0.9516,-0.9516,-0.9516,-0.9516,-0.9516,-0.9516,-0.9516,-0.9516,-0.9516,-0.9516,-0.9516,-0.9926,-1.039,-1.039,-1.0843,-1.1118,-1.0541,-1.039,-1.039,-1.039,-1.039,-1.0762,-1.202,-1.1795,-1.1609,-1.2258,-1.1826,-1.1423,-1.1485,-1.1416,-1.1361,-1.1361,-1.1173,-1.108,-1.1149,-1.0923,-1.0546,-1.0015,-0.9926,-0.955,-0.8802,-0.877,-0.8673,-0.8517,-0.8517,-0.8517,-0.8517,-0.8517,-0.8517,-0.8517,-0.8517,-0.8517,-0.8517,-0.8517,-0.8517,-0.9113,-0.9097,-0.9086,-0.8292,0.0,0.0,0.0,-0.6672,0.0,0.0,0.0,0.0,0.0,0.0,0.0,0.0,0.0,0.0,0.0,0.0,0.0,0.0,0.0,0.0,0.0,0.0,-0.8352,-0.8427,-0.855,-0.8595,-0.8564,-0.8513,-0.8421,-0.8315,-0.8395,-0.8096,-0.7396,-0.7522,-0.7274,-0.6681,-0.6539,-0.6539,-0.6626,-0.7013,-0.7086,-0.6976,-0.8017,-0.8451,-0.8497,-0.8976,-0.9312,-0.9516,-0.9516,-0.9516,-0.9516,-0.9516,-0.9516,-0.9516,-0.9516,-0.9516,-0.9516,-0.9516,-0.9516,-0.9516,-0.9516,-0.9516,-0.9516,-0.9516,-0.9606,-0.9702,-0.9702,-0.9792,-0.9856,-0.9734,-0.9702,-0.9702,-0.9702,-0.9702,-0.9919,-1.073,-1.0793,-1.0912,-1.1578,-1.1156,-1.0881,-1.1423,-1.0954,-1.0521,-1.0521,-0.9894,-0.9646,-1.0205,-0.9735,-0.9518,-0.9805,-0.9338,-0.8894,-0.8576,-0.8549,-0.8549,-0.8517,-0.8517,-0.8517,-0.8517,-0.8517,-0.8517,-0.8517,-0.8517,-0.8517,-0.8517,-0.8517,-0.8517,-0.9555,-0.9313,-0.8992,-0.8311,0.0,0.0,0.0,0.0,0.0,0.0,0.0,0.0,0.0,0.0,0.0,0.0,0.0,0.0,0.0,0.0,0.0,0.0,0.0,0.0,0.0,0.0,-0.8115,-0.8295,-0.8374,-0.8395,-0.8395,-0.8395,-0.8262,-0.7957,-0.7877,-0.753,-0.6848,-0.6772,-0.6561,-0.6209,-0.5909,-0.5905,-0.6209,-0.6209,-0.6265,-0.6453,-0.7151,-0.7627,-0.7925,-0.8334,-0.8738,-0.9143,-0.9408,-0.9516,-0.9516,-0.9516,-0.9516,-0.9516,-0.9516,-0.9516,-0.9516,-0.9516,-0.9516,-0.9516,-0.9516,-0.9516,-0.9516,-0.9516,-0.9516,-0.9516,-0.9516,-0.9516,-0.9516,-0.9516,-0.9516,-0.9516,-0.9516,-0.9446,-0.9504,-0.9849,-0.9817,-0.9996,-1.0773,-1.0243,-0.9875,-1.0205,-0.9926,-0.9646,-0.9646,-0.921,-0.9022,-0.9364,-0.9017,-0.8861,-0.9113,-0.8829,-0.8608,-0.8517,-0.8517,-0.8517,-0.8517,-0.8517,-0.8517,-0.8517,-0.8517,-0.8517,-0.8517,-0.8517,-0.8517,-0.8517,-0.8517,-0.8517,0.0,0.0,0.0,0.0,0.0,-0.8118,0.0,0.0,0.0,-0.7443,0.0,0.0,0.0,0.0,0.0,0.0,0.0,0.0,0.0,0.0,0.0,0.0,0.0,0.0,0.0,0.0,-0.7953,-0.8135,-0.8218,-0.8232,-0.8156,-0.8156,-0.7883,-0.7278,-0.7149,-0.6799,-0.6199,-0.6068,-0.5964,-0.5855,-0.5391,-0.5391,-0.5855,-0.5469,-0.55,-0.5891,-0.6467,-0.693,-0.736,-0.7808,-0.8276,-0.8752,-0.9191,-0.936,-0.936,-0.936,-0.939,-0.9438,-0.9438,-0.9468,-0.9516,-0.9516,-0.9516,-0.9516,-0.9516,-0.9516,-0.9516,-0.9516,-0.9516,-0.9516,-0.9516,-0.9516,-0.9484,-0.9478,-0.9446,-0.9446,-0.942,-0.9312,-0.9242,-0.9242,-0.9081,-0.921,-0.9932,-0.9454,-0.8985,-0.8985,-0.8985,-0.8958,-0.8958,-0.8835,-0.8738,-0.8738,-0.8614,-0.8517,-0.8517,-0.8517,-0.8517,-0.8517,-0.8517,-0.8517,-0.8517,-0.8517,-0.8517,-0.8517,-0.8517,-0.8517,-0.8517,-0.8517,-0.8517,-0.8517,-0.8517,-0.8517,0.0,0.0,0.0,0.0,-0.8184,0.0,0.0,0.0,-0.7455,-0.7285,0.0,0.0,0.0,0.0,0.0,0.0,0.0,0.0,0.0,0.0,0.0,0.0,0.0,0.0,0.0,0.0,0.0,-0.791,-0.7835,-0.7618,-0.7262,-0.7246,-0.6972,-0.6367,-0.634,-0.6041,-0.5441,-0.5414,-0.5171,-0.468,-0.4625,-0.4625,-0.4708,-0.5117,-0.5089,-0.4791,-0.6369,-0.6905,-0.6772,-0.783,-0.8442,-0.8716,-0.8776,-0.88,-0.88,-0.88,-0.8945,-0.9143,-0.9143,-0.9306,-0.9516,-0.9516,-0.9516,-0.9516,-0.9516,-0.9516,-0.9516,-0.9516,-0.9516,-0.9516,-0.9516,-0.9516,-0.9478,-0.9344,-0.9338,-0.9274,-0.9087,-0.9049,-0.9049,-0.9049,-0.8926,-0.8894,-0.9113,-0.9081,-0.8985,-0.8985,-0.8894,-0.8835,-0.8835,-0.8641,-0.8549,-0.8549,-0.8517,-0.8517,-0.8517,-0.8517,-0.8517,-0.8517,-0.8517,-0.8517,-0.8517,-0.8517,-0.8517,-0.8517,-0.8517,-0.8517,-0.8517,-0.8517,-0.8517,-0.8517,-0.8517,-0.8517,0.0,0.0,0.0,0.0,0.0,0.0,-0.7491,0.0,-0.7607,0.0,0.0,0.0,0.0,0.0,0.0,0.0,0.0,0.0,0.0,0.0,0.0,0.0,0.0,0.0,0.0,0.0,0.0,0.0,0.0,-0.7195,-0.7095,-0.6783,-0.629,-0.5687,-0.5691,-0.5418,-0.4842,-0.4846,-0.4736,-0.4491,-0.4491,-0.4491,-0.4519,-0.4736,-0.4869,-0.5007,-0.5746,-0.6365,-0.6922,-0.7395,-0.7848,-0.8225,-0.8225,-0.8411,-0.871,-0.871,-0.8776,-0.889,-0.9047,-0.9071,-0.9071,-0.9221,-0.9384,-0.9516,-0.9516,-0.9446,-0.9376,-0.9376,-0.9312,-0.9215,-0.9215,-0.9215,-0.9183,-0.9145,-0.9113,-0.9113,-0.9017,-0.8926,-0.8894,-0.8894,-0.8738,-0.8641,-0.8705,-0.8705,-0.8705,-0.8705,-0.8673,-0.8614,-0.8614,-0.8544,-0.8517,-0.8517,-0.8517,-0.8517,-0.8517,-0.8517,-0.8517,-0.8517,-0.8517,-0.8517,-0.8517,-0.8517,-0.8517,-0.8517,-0.8517,-0.8517,-0.8517,-0.8517,-0.8517,-0.8517,-0.8517,-0.8517,-0.9536,0.0,0.0,0.0,0.0,0.0,0.0,0.0,0.0,0.0,0.0,0.0,0.0,0.0,0.0,0.0,0.0,0.0,0.0,0.0,0.0,0.0,0.0,0.0,0.0,0.0,0.0,0.0,0.0,0.0,-0.6605,-0.6182,-0.5691,-0.5089,-0.5089,-0.4897,-0.4519,-0.4491,-0.4491,-0.4491,-0.4491,-0.4491,-0.4491,-0.4491,-0.4791,-0.5308,-0.5469,-0.6127,-0.7112,-0.7246,-0.7547,-0.7901,-0.7901,-0.8129,-0.8493,-0.8493,-0.8536,-0.8626,-0.8818,-0.8854,-0.8848,-0.9035,-0.925,-0.9446,-0.9446,-0.9344,-0.921,-0.921,-0.9113,-0.8985,-0.8985,-0.8985,-0.8985,-0.8952,-0.8958,-0.8926,-0.8861,-0.8797,-0.8705,-0.8705,-0.8614,-0.8517,-0.8517,-0.8517,-0.8517,-0.8517,-0.8517,-0.8517,-0.8517,-0.8517,-0.8517,-0.8517,-0.8517,-0.8517,-0.8517,-0.8517,-0.8517,-0.8517,-0.8517,-0.8517,-0.8517,-0.8517,-0.8517,-0.8517,-0.8517,-0.8517,-0.8517,-0.8517,-0.8517,-0.8517,-0.8517,-0.8517,0.0,0.0,0.0,-0.7668,0.0,0.0,0.0,0.0,-0.7889,0.0,0.0,0.0,0.0,0.0,-0.7498,-0.7243,0.0,0.0,0.0,0.0,0.0,0.0,0.0,0.0,0.0,0.0,0.0,0.0,0.0,0.0,-0.5397,-0.5332,-0.5089,-0.4546,-0.4515,-0.4519,-0.4491,-0.4491,-0.4491,-0.4491,-0.4491,-0.4491,-0.4491,-0.4491,-0.4791,-0.5332,-0.5905,-0.6534,-0.7139,-0.7655,-0.7875,-0.7901,-0.7901,-0.7913,-0.7925,-0.7925,-0.8087,-0.8303,-0.8315,-0.8668,-0.9089,-0.9095,-0.9188,-0.9306,-0.9306,-0.9177,-0.9017,-0.9017,-0.9017,-0.8985,-0.8985,-0.8985,-0.8958,-0.8835,-0.8802,-0.8738,-0.8549,-0.8517,-0.8517,-0.8517,-0.8517,-0.8517,-0.8517,-0.8517,-0.8517,-0.8517,-0.8517,-0.8517,-0.8517,-0.8517,-0.8517,-0.8517,-0.8517,-0.8517,-0.8517,-0.8517,-0.8517,-0.8517,-0.8517,-0.8517,-0.8517,-0.8517,-0.8517,-0.8517,-0.8517,-0.8517,-0.8517,-0.8517,-0.8517,-0.8517,-0.8517,-0.8517,0.0,0.0,-0.8219,-0.756,0.0,0.0,0.0,0.0,0.0,0.0,0.0,0.0,0.0,0.0,-0.7565,-0.748,-0.717,0.0,0.0,0.0,0.0,0.0,0.0,0.0,0.0,0.0,0.0,0.0,0.0,0.0,0.0,-0.4952,-0.468,-0.4519,-0.4491,-0.4491,-0.4491,-0.4491,-0.4491,-0.4491,-0.4491,-0.4491,-0.4519,-0.4873,-0.5332,-0.5937,-0.6539,-0.7112,-0.7655,-0.7821,-0.7901,-0.7901,-0.7901,-0.7901,-0.7901,-0.7901,-0.7955,-0.8033,-0.7946,-0.8193,-0.8539,-0.837,-0.8579,-0.8902,-0.8902,-0.8891,-0.8867,-0.8867,-0.877,-0.8673,-0.8673,-0.8673,-0.8673,-0.8608,-0.8614,-0.8576,-0.8517,-0.8517,-0.8517,-0.8517,-0.8517,-0.8517,-0.8517,-0.8517,-0.8517,-0.8517,-0.8517,-0.8517,-0.8517,-0.8517,-0.8517,-0.8517,-0.8517,-0.8517,-0.8517,-0.8517,-0.8517,-0.8517,-0.8517,-0.8517,-0.8517,-0.8517,-0.8517,-0.8517,-0.8517,-0.8517,-0.8517,-0.8517,-0.8517,-0.8517,-0.8517,-0.8517,-0.8388,-0.8203,0.0,0.0,-0.7431,0.0,-0.7503,0.0,0.0,0.0,0.0,0.0,0.0,0.0,-0.7629,-0.7386,-0.7122,-0.6756,0.0,0.0,0.0,0.0,0.0,0.0,0.0,0.0,-0.6422,-0.6022,0.0,0.0,0.0,0.0,-0.4491,-0.4491,-0.4491,-0.4491,-0.4491,-0.4491,-0.4491,-0.4491,-0.4491,-0.4491,-0.4519,-0.4869,-0.5336,-0.5905,-0.6507,-0.7079,-0.7568,-0.7788,-0.7848,-0.7762,-0.7815,-0.7788,-0.7762,-0.7815,-0.7788,-0.7741,-0.7649,-0.793,-0.8269,-0.8109,-0.8347,-0.8726,-0.8726,-0.8712,-0.8705,-0.8705,-0.8614,-0.8517,-0.8517,-0.8517,-0.8517,-0.8517,-0.8517,-0.8517,-0.8517,-0.8517,-0.8517,-0.8517,-0.8517,-0.8517,-0.8517,-0.8517,-0.8517,-0.8517,-0.8517,-0.8517,-0.8517,-0.8517,-0.8517,-0.8517,-0.8517,-0.8517,-0.8517,-0.8517,-0.8517,-0.8517,-0.8517,-0.8517,-0.8517,-0.8517,-0.8517,-0.8517,-0.8517,-0.8517,-0.8517,-0.8517,-0.8517,-0.8517,-0.8517,-0.8517]}]]